My first half-marathon – Randolf does the Cape Town Peninsula Marathon 2011

Posted on Feb 23, 2011 under Peninsula Marathon | 1 Comment

peninsula marathon 2011

While my original plan was to premiere with my first half-marathon in April 2011 for Two Oceans Marathon 2011 a spontaneous decision made me enter and run the Peninsula Marathon in Cape Town on February 20th. 9 days prior to race I felt fit enough for the 21km race, even though I’ve never done more than 16 km before, and I was bold enough to signed up for start number 4227.

My Problems only began thursday before the race sunday, when my new Asics running shoes I had just bought in December were stolen and I decided to go for a last pre-race 13km run in my 5 year old Nikes. Just after the race I realised that my left Calf did hurt and it didn’t got much better until Saturday evening. I knew I couldn’t do the race in my old shoes, so I went to buy new running shoes and got new Asics and some great advice at The Athletes Foot at V&A Waterfront. The very helpful advice I got from Athletes Foot owner Grant Bryant was that I should be using my old inner soles in the brand new running shoes.

Race day:

With this in mind I arrived in Bergvliet on time for the 7am race start – see photo above for my impression, standing at the end of the start block. The start went well and after few minutes everybody was able to run at his or her own pace without accidentally running into others. The ache from tension in my leg didn’t really got worse during the race and I only felt weak towards the 16k mark but had no serious struggle to finish the race. My only serious issue was Runkeeper on my Android phone that crashed after 8 km just to restart with a new session that I can’t merge together. This is the reason why you can only see the last 13 km on this map.

Randolf Jorbergs Peninsula Marathon results

The race is seriously beautiful and despite the strong South-Easter wind I fully enjoyed the run past Muizenberg, Kalk Bay, Fish Hoek and Simonstown. Without my Runkeeper tracking my run I couldn’t check for time and was really surprised to end 1:58:20 and was #346 out of the 1265 half-marathon runners when the Peninsula Marathon results were published!

The Atmosphere at the finish was really pleasant, as drinks were available, 15-minute massages could be bought for a mere 50 Rand and I met four friends from the The Drinking Club with a Running Problem who just finished the full marathon in 4:29 running together for the whole race! After some glasses of Moreson bubbly we were strong enough to move to a very late breakfast at Boulders Beach restaurant – aaaah – I love these beautiful days in Cape Town!

Randolf after the Peninsula Marathon

Randolf Jorberg right after finishing the Peninsula Marathon

Peninsula Marathon 21 and 42 km results

Posted on Feb 23, 2011 under Peninsula Marathon | 1 Comment

peninsula marathon 2011Despite the strong South-Easter blowing the Peninsula Marathon 2011 was a very well organised event that saw 3131 runners completing the Peninsula Marathon & Half Marathon on Sunday. I’ve also published a personal report from my first ever half-marathon at the Peninsula Marathon 2011. The following table shows the provisional results as issued by the race organizers. To look for your result, just start typing your name into the search box of the respective distance you went for:

Full Marathon results (42.195 km)

PlaceNameLast NameNoAgeSexCatClubTime
1PIETERKOOPMAN264136MOMATIES2:32:15
2LABANPONCO241426MONEDWP2:36:55
3ZOLANIBHITANE259827MOADIDAS2:37:59
4PROFESSORKHWETHANI268428MOVOB2:38:09
5JOHANOOSTHUIZEN252837MOANMAR2:40:00
6SIHLEMAPUKATA125034MOMPWP2:40:47
7SIMONVON WITT188533MOAAC2:41:33
8ANELEMNUKWA213839MOELGRAB2:42:26
9ASANDAMKITI223632MOMPWP2:46:26
10ZOLANISOWAZI60929MORCSGUGS2:46:57
11LUYANDAMAPOYI142024MOKAC2:47:15
12JIMMYDRURY99141M40+NEDWP2:47:59
13PATRICKQELO251633MOTEMP2:48:49
14ENRICOSEPTEMBER177629MOPAARL2:51:50
15ALLANBENN112843M40+WPCC2:52:24
16CHARLESWITBOOI208938MOVOB2:52:37
17WILLIAMRUIJSCH VAN DUGTEREN237438MOAAC2:52:38
18LUNUKOSANA77433MORCSGUGS2:54:03
19ARNOLDHYDE206440M40+FHOEK2:54:18
20AJCALITZ246327MOMELKBOS2:54:18
21ELLIOTMANGETE168536MORCSGUGS2:54:36
22VULINDLELAMACEMBE169844M40+NEDWP2:55:10
23CRAIGCYNKIN60525MOTEMP2:55:24
24ALEXMADIKANE239329MORCSGUGS2:55:55
25BETHUELLEPHALLO266134MOSTRAND2:56:29
26MANDLAPHANGALELE177532MORCSGUGS2:56:46
27JOHANSTEMMET69136MOBONNIE2:56:50
28FRANCOISGROENEWALD213224MOELGRAB2:56:52
29MALIXOLEPETER220636MOMPWP2:57:43
30MIKETITLEY93127MOCELTIC2:57:44
31CLIFFORDDRURY99441M40+NEDWP2:58:07
32COBUSGOUS145731MOAMSAC2:58:17
33STEFANPATTEN125840M40+VOB2:58:45
34IMRAHPAYA148633MORCSGUGS2:58:58
35JOHANVAN ZYL76833MOTYGER2:59:05
36ANDRIESSWANEPOEL191341M40+BRACK2:59:42
37MELVYNDEAN257534MOELSIES3:00:23
38ELOYCIOUSWHITEBOOI100838MODEFWP3:01:10
39MUZIWAKHEHLONGWA193333MOSANDFWP3:02:28
40SIYABONGAMAWEZA242335MOTOPF3:02:57
41DANNYNGOY-KADISHA250628MODURBAC3:03:33
42JULIANPAUL205651M50+SANDFWP3:04:27
43DESMOREOPPEL26751M50+DURBAC3:05:26
44MARKCARLSON161140M40+AAC3:05:32
45ZOLANINTSODO65847M40+SANDFWP3:05:43
46MARCDE ROOY154641M40+SATORI3:06:16
47BONGANIPLAATJIE76128MOBELL3:06:16
48ANDREBRESLER161338MOTYGER3:06:29
49MICHAELEADIE193229MOCELTIC3:07:16
50FERRAOBATISTA132637MOTEMP3:07:55
51SIDNEYRUSTIN170944M40+DEFWP3:08:22
52COBUSMOOLMAN214132MOTEMP3:08:48
53NIGELNITZKY152135MORESBANK3:08:54
54RONNIEHOOI65941M40+SANDFWP3:09:08
55GIMOMATUSO170332MOFHOEK3:09:09
56JULIAJANSEN VAN RENSBURG213928FOVOB3:09:13
57SIYANDAMZITHO134125MORCSGUGS3:09:54
58BRETTWOOD91329MOATC RC3:10:02
59WINDELLNORTJE80424MOEDGE3:11:04
60HANSLEYWEAVER170038MODEFWP3:11:08
61YOUSSEFKANOUNI257237MOITHEKO3:11:40
62MPUMELELOQINELO260340M40+RCSGUGS3:11:48
63MOHAMMEDNTENGULA57433MOTEMP3:12:02
64JAMESBUGAN161649M40+FOREST3:12:06
65CORNEJANSE VAN RENSBURG241721MOBELL3:12:20
66RYANHAMMOND202831MOBELL3:13:13
67DERICKMBHELE133933MODEFWP3:13:21
68SIYANDAKHUZWAYO60437MOSANDFWP3:13:28
69LLEWELLYNJACOBS119624MOCELTIC3:13:49
70KUTLWANORAMABOA177734FOWCOAST3:14:06
71ERNESTNDZANDZA265140M40+CELTIC3:14:21
72PETERMILLER81430MOSTRAND3:14:40
73GUIDOTAGGE175037MOTEMP3:14:43
74ALWYNMAASS168341M40+NAMAQ3:14:46
75EZEKEILMAKHETHA191433MONEDWP3:15:00
76GERHARDDANIELS262234MOCSWPA3:15:01
77DUNCANGILMOUR264034MOVOB3:15:23
78GARYBANFIELD194237MOVOB3:16:03
79IANMETCALFE80730MOCELTIC3:16:50
80BUSISIWEMATIWANE176435FOCELTIC3:16:52
81JOHANNESMATLOU267233MORCSGUGS3:16:53
82LUNGISACUBA183840M40+CELTIC3:17:12
83MICHAELGIBSON218134MOTEMP3:17:13
84WALTERSEGATSWI125157M50+CELTIC3:17:13
85ONDELASIBETWANA223727MONEDWP3:17:14
86WILHELMCOETZEE68954M50+WCOAST3:17:26
87GARETHCLOETE189638MOSTRAND3:17:36
88GEORGERENCKEN190042M40+STRAND3:17:47
89KERRYNARMSTRONG74725FOCELTIC3:18:05
90MICHELLEDREYER95632FOPAARL3:18:05
91MARIETTEESTERHUYSE249648F40+TYGER3:18:14
92ROBBIEFARQUHAR95738MOTEMP3:19:08
93MELANYPORTER129035FOPINE3:19:17
94CHRISTIAANDE WET117537MOWHALERS3:19:19
95PHUMLANIMEHLOMAKULU226031MORCSGUGS3:19:32
96PAULFLOQUET167138MOVOB3:19:34
97TIMLOW82941M40+PINE3:19:40
98EESASADIEN189237MOCELTIC3:19:56
99ROBERTRORO173234MOAAC3:19:57
100MZIWENDODATSONGOYI235626MOHOUTBAY3:20:11
101MICHAELMARILLIER150734MONEDWP3:20:18
102CARLFOSTER268629MONBMSM3:20:36
103JOGIEMAARMAN33645M40+MAMRE3:20:49
104LIONELATSON222638MOMPLAIN3:20:49
105ALEXJOINER133626MOTEMP3:21:05
106TEMBELANIFIGLAN69246M40+NEDWP3:21:27
107MONTYSAHD250428MOBELL3:21:28
108SIMONLLOYD108842M40+HARF3:21:36
109SEANDALTON231541M40+VOB3:21:37
110WILSONBAARTMAN22352M50+SH3:21:42
111GERRITVERLAND253630MOFHOEK3:22:10
112MARKLAGAN198834MOCHAPPIES3:22:26
113MAXWELLGODLOZA8654M50+NBMSM3:22:36
114QUINTONWALKER152037MOATC RC3:22:42
115SIZWEBELUKWANA105738MORCSGUGS3:23:13
116HEIMIEMISROLL238639MOPINE3:23:14
117IAINMCGREGOR209334MOTEMP3:23:25
118FRANCOISFINLAY87840M40+CHAPPIES3:23:31
119MASHUDUMUNZHELELE112926MOMETLIFE3:23:36
120ANDREWHALL186631MOATC RC3:23:36
121SHAHIDJAGGER177934MONEDWP3:23:37
122RACHELSHUTTLEWORTH238144F40+STRAND3:23:40
123LUKEPOWERS126239MOCHAPPIES3:23:41
124MOYRASHEARD63537FOCELTIC3:23:42
125LIONELCRONJE251329MOMETLIFE3:23:42
126ERICHMARITZ212238MOSANLAMC3:23:44
127STEPHENDENNIS194048M40+TITANS3:23:47
128STANLEYBEYERS240438MOMETLIFE3:24:14
129MASERAKWAKWA100032MOSANDFWP3:24:16
130ROBERTARNOLD244153M50+TOPF3:24:17
131HENDRIKVAN RENSBURG267943M40+PHOBS3:24:17
132QUINTONANTHONY143133MOAMSAC3:24:23
133LOUISCLAASEN101354M50+AMAC3:24:27
134ANDREWCOTHILL202140M40+FHOEK3:24:34
135CANDYCEHALL162126FOHOUTBAY3:24:52
136EDWARDCONRAD173341M40+MAMRE3:24:59
137STUARTMURRAY-SMITH56342M40+DURBAC3:25:08
138YIANNISGERAKARIS117133MOCHAPPIES3:25:13
139GORDONWYKEHAM117233MOAAC3:25:18
140DOCTORTSHISEKA191545M40+CELTIC3:25:26
141ISHMAELSOMEME255841M40+BELL3:25:27
142ALSCHERMBRUCKER65333MOVOB3:25:27
143WARRENHAWKINS161431MOATC RC3:25:38
144MARCELJOUBERT55146M40+AAC3:25:39
145CYRILWILSON232050M50+INTOUCH3:25:45
146PIERREGOUSSARD110443M40+ADIDAS3:25:50
147MTSEKISPAYER136139MOTYGER3:25:57
148JASONBELL-LEASK60037MOSATORI3:26:06
149ROBERTBATEMAN183236MOTEMP3:26:29
150DANIELCUNNAMA223226MOUWC3:26:29
151THEMBADLAMINI238324MORCSGUGS3:26:36
152ANDILENGXISHE244033MOCSBOL3:26:36
153PATRICH130931FOAAC3:26:38
154HENNIEDU PLOOY211438MOSOUTHS3:26:43
155ROBERTBARTHOLOMEN127726MOTYGER3:26:50
156GARIONKRAUSS205337MOTYGER3:26:51
157BRENDONLEASK226626MOWCOAST3:27:10
158CAROLEMESSHAM113932FOATC RC3:27:14
159MARTINERASMUS146641M40+WEST3:27:15
160BELINDAHICKMAN-MOSDELL198540F40+PHOBS3:27:31
161JLVAN DER MERWE213034MONBMSM3:27:34
162ERICMEMELA144145M40+NBMSM3:27:48
163MARTINDELPORT74626MOCELTIC3:27:56
164QUINTONJACOBS226436MOTITANS3:27:57
165DOMINICSTRANO262631MOSACS3:27:58
166MARKWURDEMAN167246M40+WCOAST3:28:02
167DAVIDBUCKLOW112341M40+FHOEK3:28:17
168ALBIEBASSON230829MODURBAC3:28:24
169LIZZIEDE GOUVEIA210836FODURBAC3:28:24
170NIKLAASVLOK198039MOYEBO3:28:25
171CRAIGKOTZE132037MODURBAC3:28:26
172JUANCARSTENS174925MOSTELLEN3:28:27
173RIAANVAN ZYL176236MOSWART3:28:28
174FEZILEGROOM113041M40+DEFWP3:28:28
175LEANNEJUUL114237FOWPA3:28:30
176ALMARIEDE BRUYN59243F40+NBMSM3:28:30
177STEFANDIENER186331MOSTRAND3:28:30
178LISA-JOAUSTIN184726FODURBAC3:28:31
179BRETTKING31746M40+WCOAST3:28:31
180MURRAYANDERSON195840M40+VOB3:28:32
181RANDALLJOSHUA204336MOTELKWP3:28:32
182WENDTSAURMA-JELTSCH22442M40+VOB3:28:32
183ESTELLEVAN SCHALKWYK72544F40+STRAND3:28:33
184ADIEWATERMEYER199728MOHELD3:28:33
185RICHARDMULLER255146M40+BIDWP3:28:33
186ANDREASLAPPE80552M50+AAC3:28:34
187BRETTGODFREY222428MOFOURWAYS3:28:34
188CAMPBELLPARRY102541M40+TEMP3:28:35
189MICHAELYEATS163330MOTEMP3:28:35
190SCOTTHALLLIFORD103029MOLLAN3:28:38
191LOUISVAN DER WALT165047M40+LBAAN3:28:44
192KARLWIMHEESE97145M40+LBAAN3:28:49
193JULIANJOHNSON188141M40+WORC3:28:50
194MIRANDASYMONS162832FOADIDAS3:28:56
195ROBYNWOODWARD68637FOHARF3:29:18
196QUINTONSINCLAIR99634MOOLDMUT3:29:19
197SIYABONGANDLUMBINI258737MONBMSM3:29:24
198CHRISLOKER51042M40+NETAAC3:29:27
199URSULATURCK238038FOSTRAND3:29:35
200PATRICKSINELI148147M40+NEDWP3:29:37
201FRANCOISGOUWS58145M40+EDGE3:29:42
202ERICFELEZA139935MORCSGUGS3:29:43
203KENNYWILLIAMS11361M60+PINE3:29:45
204ROGERRUDOLPH223039MOHARF3:29:46
205ALISTEROATES217533MOPAARL3:29:54
206ALBERTWILLIAMS176957M50+TOPF3:30:00
207PHILDU TOIT180632MOPAARL3:30:01
208NATHANPRINS171250M50+DURBAC3:30:04
209GREGPORRITT166530MOSACS3:30:23
210HAYDNFRANCKEISS180148M40+STRAND3:30:25
211NCEBAVIPU190836MORCSGUGS3:30:27
212NORMANJOHNSON262046M40+FHOEK3:30:27
213RODNEYDANIELS109143M40+SH3:30:28
214THEODOREHILL227740M40+MPLAIN3:30:28
215RICARDOMATTHEWS228429MOMPLAIN3:30:35
216MOGAMMEDBAGUS57247M40+TEMP3:30:53
217SIBONGILEMBAMBISA234428MOHOUTBAY3:30:55
218GREGGCHEETHAM82634MOAAC3:30:57
219LEONSCHIPPER207139MOTYGER3:31:01
220TOMASCUNNAMA67629MOVOB3:31:04
221GIDEONREDELINGHUIS244847M40+DURBAC3:31:05
222ANTHONYLOPEZ95940M40+EDGE3:31:15
223STUARTPURCELL155744M40+WPCC3:31:20
224PETERBASSINGTHWAIGHTE167431MOVOB3:31:24
225STEPHENKRIGE71726MOTEMP3:31:35
226SEANWELDON122444M40+LLAN3:31:36
227RODGILSON80847M40+STRAND3:31:38
228RASSIEWENTZEL187135MODURBAC3:31:42
229NIKKICOCKCROFT53030FOTEMP3:31:54
230LEROISTEENKAMP165133MOSTRAND3:31:54
231ROBWRIGHT65742M40+TEMP3:31:59
232SABANDUNA248439MONEDWP3:32:11
233JULIANPRETORIUS157427MOOUTENH3:32:16
234EUGENEMARAIS66040M40+EDGE3:32:18
235PIERREWILLEMSE50931MOAAC3:32:20
236FORGIVENESSZHANJE101132MODURBAC3:32:27
237MALCOLMFIELLIES72137MOMUTUAL3:32:27
238RICHARDJOHNSON25954M50+OLDMUT3:32:35
239HENRYCIEVERTS16452M50+TOPF3:32:41
240SYDWELLHUNGANA269137MONEDWP3:32:45
241CHARLSOUMA73231MOVOB3:32:45
242DANIELHAYNES99331MOVOB3:32:58
243ALANHAZELL174347M40+VOB3:33:01
244DARRENDUKES163139MOTEMP3:33:09
245MANDLENKOSINGQUNGE265345M40+NEDWP3:33:11
246EBENLE ROUX246043M40+ADIDAS3:33:13
247WILLEMVAN DER MERWE88034MOOLDMUT3:33:21
248MTHOBEKISIDABUKA182034MOCSBOL3:33:21
249WILLIAMALEXANDER140033MOSACS3:33:30
250MALCOLMCOLLINS83245M40+VOB3:33:41
251JULIETTESAVINI76753F50+DURBAC3:33:51
252MOSESVAN DER WESTHUIZEN256537MOELSIES3:33:58
253GARETHCLEMENTS184239MOSACS3:34:04
254QUINTUSVAN RENSBURG199542M40+BELL3:34:11
255KINGNTLUZI204636MOYEBO3:34:13
256MARKLADEN106338MOWCOAST3:34:13
257MARTINSTEWART94946M40+WCOAST3:34:17
258MZOLISISOBHOYISI134632MOSH3:34:23
259MTHOBISISIHLUKU99940M40+RCSGUGS3:34:26
260CONRADMOOLMAN123833MODURBAC3:34:37
261PAULLEADER19555M50+CELTIC3:34:39
262BRIANGROVERS224747M40+PICKPAY3:34:41
263FRANCOISSIMERIE161940M40+LBAAN3:34:42
264JOHANDE GOEDE81342M40+LBAAN3:34:43
265ROBERTHEWETSON145940M40+SATORI3:34:47
266MARKWAGENHEIM8954M50+AAC3:34:49
267SUEULLYETT89844F40+AAC3:34:50
268CLAIRELOUW64544F40+ACNW3:34:51
269LUBABALOMTIKITIKI89030MOCSWPA3:34:58
270RALPHADAMS162351M50+TOPF3:35:15
271BONGAMBILI100126MODEFWP3:35:26
272MXOLISIMABUNZANA265838MONEDWP3:35:51
273LORNALOUBSER252336FOSANLAMC3:35:54
274KIRSTENNORRIS53628FOVOB3:35:55
275KASHADICKIE138630FOCELTIC3:35:56
276JAMESFRAZER205841M40+BELL3:35:58
277GRANTWHITFIELD94335MOADIDAS3:36:04
278PIERRECONRADIE130841M40+WCOAST3:36:18
279ANTONDU PLESSIS246445M40+WHALERS3:36:20
280THERESSABURGESS179835FOGROOT3:36:27
281JEANDRETHEUNISSEN61521MOBRACK3:36:28
282MARKTOLSMA119249M40+SATORI3:36:33
283HENDRIKCOETZEE220852M50+DURBAC3:36:51
284TREDOUXJACQUES164835MOBRACK3:36:51
285GARRONPAYNE150840M40+BRACK3:36:51
286CHARLOTTENOBLE233345F40+FHOEK3:36:54
287DUMISANEHLATSHWAYO77536MOPICKPAY3:37:32
288CARINAVAN DER MERWE173046F40+WHALERS3:38:01
289ISAACFLINK265953M50+EAST3:38:23
290JEREMYBROWNE130347M40+WHALERS3:38:31
291CAROLINEWILLS165734FOCELTIC3:38:34
292JOELKOOPMAN150147M40+METLIFE3:38:34
293GEORGESTEGMANN186124MOAAC3:38:41
294CORIAANDE VILLIERS171639FOHARF3:38:47
295JACOCLAASSENS204133MOBRACK3:38:49
296EUNICEAVENANT201844F40+HELD3:39:02
297HENRYSCHOLTZ189848M40+NAMAQ3:39:03
298TRACYBAXTER229841F40+SATORI3:39:07
299MICHAELJANISCH148542M40+VOB3:39:12
300RICHARDBUCKLEY124650M50+TELKWP3:39:15
301MBUYISELIZAKUMBA234638MOHOUTBAY3:39:16
302BRYANTURNER181729MOAAC3:39:20
303GRANTGOODWIN115345M40+WPCC3:39:21
304MARCTUDHOPE246643M40+HOUTBAY3:39:27
305ALANBIRD71141M40+ADIDAS3:39:30
306DONALDSCOTT124049M40+WCOAST3:39:34
307JOHANVAN DYK178838MORAC3:39:40
308SJVAN HEYNINGEN229635MOSTELLEN3:39:40
309ERNESTLEROUX256831MOEAST3:39:42
310ANDREGERBER81631MODURBAC3:39:43
311STEPHENMCCARTHY126150M50+EDGE3:39:49
312ANDRIESSWARTS179247M40+CERES3:39:54
313GEORGINASINCLAIR55948F40+VOB3:39:55
314MAXWELLSCHOOR64443M40+VOB3:39:57
315GRAHAMTHURTELL201949M40+STRAND3:40:08
316ROBINTOOTH165953M50+DURBAC3:40:11
317PIERRESTADLER158637MOADIDAS3:40:13
318THEMBINKOSINDUDE235022MOHOUTBAY3:40:14
319ANITAOPPEL26646F40+DURBAC3:40:19
320ESMEKOOPMAN101242F40+DURBAC3:40:20
321HUGUETTEVAN DER MERWE143242F40+PAARL3:40:28
322KEITHTESSNER133248M40+DEFWP3:40:29
323SYBRANDDU PLESSIS260657M50+PAARL3:40:30
324MARTINCELE187231MOEGIJWP3:40:41
325ANTONJOUBERT263739MOVOB3:40:44
326NATALIEDE VILLIERS151349FMATIES3:40:45
327ANDRESTADLER86641M40+WPCC3:40:48
328SCHALKENGELBRECHT146347M40+STRAND3:40:51
329RICHARDRAMPLIN122530MOBELL3:41:02
330JOHNMOSDELL198245M40+PICKPAYC3:41:09
331HANSNEETHLING86149M40+AAC3:41:16
332HANSMAKATEES266435MOMETLIFE3:41:16
333TANJAFOURIE157524FOOUTENH3:41:17
334FRIKKIESYSTER252441M40+BRAND3:41:26
335MERTONSNYDERS54141M40+MUTUAL3:41:38
336TSEDISORAMABITLE268341M40+NEDWP3:41:43
337OMMUNDSIVERTSEN226746M40+VOB3:41:55
338CHARLESLORENTZ235435MOVOB3:41:56
339SHAUNMARTHEZE174446M40+EDGE3:42:12
340CRAIGCOWAN178341M40+HARF3:42:15
341TILLYTERBLANCHE231250M50+AAC3:42:21
342RUSSELLSMITH87937MOAAC3:42:24
343COLLINALLIN233931MOATC RC3:42:25
344CRAIGDODDS103242M40+VOB3:42:26
345ANDREWAUSTIN184828MODURBAC3:42:28
346JOHNLUDICK116850M50+MUTUAL3:42:36
347SARAHGORDON58741F40+WHALERS3:42:40
348CORNIMYBURGH52845M40+WAND3:42:40
349CARINAROUX267438FONBMSM3:42:42
350CHRISTOPHERSWIFT239437MOTEMP3:42:48
351AUBREYSYMINGTON131042M40+AAC3:42:48
352ANDREWWONNACOTT210435MOLEGENDS3:42:49
353SEANPRIVETT236040M40+WHALERS3:42:49
354RANDALLWESSELS89244M40+PAARL3:42:49
355AXELRITTERSHAUS70640M40+AAC3:42:53
356LIONELKLASSEN75760M60+DURBAC3:43:22
357VERMEULENMORGAN180846M40+INTOUCH3:43:27
358ANDREFILANDER24446M40+CELTIC3:43:28
359JOHANNESPIETERSE257732MOEAST3:43:37
360SEANMCDIARMID162534MOPINE3:43:49
361MARIUSVAN SCHALKWYK123649M40+ORAC3:43:49
362WILHELMOFFERMEIER140340M40+TUKSGN3:43:54
363SAMSONMAIMELA195342M40+TEMP3:43:58
364NICODU PLESSIS121028MOCELTIC3:43:58
365SJNEL121627MOCELTIC3:43:59
366DANIEBRUWER172931MOBRACK3:44:12
367PHILIPKING117341M40+DURBAC3:44:24
368MICHAELCOETZEE239650M50+VOB3:44:50
369CHRISMAGOBOTITI260543M40+CELTIC3:44:53
370NICKPENROSE213536MONETAAC3:44:56
371JOHNSTEWE245644M40+RAVENS3:45:00
372FRANCOISTHERON225536MOATC RC3:45:01
373ANDREKLEINSMITH190450M50+SANDFWP3:45:03
374EDUANMILNER167644M40+DURBAC3:45:04
375HANJAOOSTHUIZEN85030FODURBAC3:45:07
376GARTHLARY116338MODEFWP3:45:09
377ALBERTARNTZ55839MOVOB3:45:16
378ANDREWCOLLIER78638MOATHN3:45:21
379LOURENSVAN RENSBURG268741M40+STRAND3:45:22
380NOELBUGAN181638MOFOREST3:45:22
381MYNHARDTKITSHOFF82140M40+YEBO3:45:24
382NICKSMITH CHANDLER220330MOTEMP3:45:52
383RICMARINI95356M50+RAC3:45:59
384MARCELINOMEINTJIES195520FOSALKOR3:46:05
385SHANEMURRAY103329MOTITANS3:46:10
386DANNYGRIEBENOW88929MOADIDAS3:46:27
387WILLIAMGREIG119830MOVOB3:46:31
388DEONFRENCH92746M40+EDGE3:46:40
389NOELDE VILLIERS187346M40+HOUTBAY3:46:44
390RAYMONDCURRIE98542M40+EDGE3:46:49
391ALANLEWIS142143M40+HELD3:46:50
392CHERRYELCOTT90025FORAC3:46:50
393LIZELLEBRUNDYN153045F40+ADIDAS3:46:55
394MUZINDLOVU128537MORCSGUGS3:46:56
395PIETERROELOFSE98337MOCELTIC3:46:57
396CLAIREHAMMON250321FOHARF3:47:02
397JOAODE ABREU135148M40+AAC3:47:04
398WENTZELOAKER81739MOVOB3:47:20
399ALBERTPOOLE89146M40+CSBOL3:47:23
400MORNEVELDSMAN202334MOBELL3:47:28
401JOANNASAMSONOWICZ73935FOAAC3:47:32
402ULRICHJAKOBUS120544M40+HELD3:47:44
403BRETTCLARK58838MOVOB3:47:44
404ANDREVAN DER MERWE173148M40+WHALERS3:47:45
405ROGERRONNIE187951M50+VOB3:47:56
406HPMULLER62637MOATC RC3:48:08
407MIRIAMVALLIE182337FONBMSM3:48:13
408GRANTSETON-SMITH197036MOWCOAST3:48:14
409ADRIANEKSTEEN195742M40+NAMAQ3:48:18
410MARIEKEVORSTER254638FOVOB3:48:26
411DANIELAUGUSTYN176830MOAAC3:48:29
412CLIFFORDBLAKE17145M40+BRACK3:48:34
413ANDREWJANISCH195940M40+TEMP3:48:49
414FRANKKELLERMAN148928MOBELL3:48:54
415JACODE JAGER231033MONBMSM3:48:56
416TREVORSASMAN215047M40+SOUTHS3:48:59
417MANDLANGWEVELA91642M40+CERES3:48:59
418TRACEYHOUSDON`268041F40+PHOBS3:49:01
419ALBERTUSVAN ZYL235541M40+STRAND3:49:04
420LORINDEOLIVIER147045F40+STRAND3:49:05
421WARDAARYA183540F40+CELTIC3:49:05
422SEANLAVERY184938MOWPCC3:49:06
423WERNERBURGER62530MOSANLAMC3:49:15
424JACOVAN DER WESTHUIZEN86541M40+STELLEN3:49:23
425MERVINLAKAY196140M40+NBMSM3:49:26
426ANDREAPPOLLIS227138MODEFWP3:49:28
427ANNMARIESTEYN164141F40+WHALERS3:49:32
428VUYANINGALWANA141643M40+RCSGUGS3:49:33
429CLIFFIEWALTERS89346M40+PAARL3:49:44
430MARCROLFE143832MOWHALERS3:49:47
431NARDUSLE GRANGE116143M40+NBMSM3:49:52
432GERALDMYBURGH259939MOTEMP3:49:52
433BERTHADENICHAUD194749F40+EDGE3:49:56
434COLLEENHOHLFELD210649F40+SOUTHS3:49:56
435LEWIESFREDERICKS252550M50+CSBOL3:49:57
436BRADCAMERON170742M40+LLAN3:49:59
437ANTHONYIRISH201749M40+LLAN3:50:01
438LISANEVITT152226MOAAC3:50:02
439DIRKVAN ZIJL98239MOAAC3:50:03
440SANDILEMKHIZE70239MONBMSM3:50:18
441PAULADAMS177239MOYEBO3:50:18
442EUGENECAIRNCROSS159762M60+SOUTHS3:50:22
443LINDIEBOUWER150426FOSANLAMC3:50:24
444PIETERHANEKOM150342M40+NEDWP3:50:27
445HAMIDSANGLAY154948M40+TOPF3:50:27
446JACQUESBOUWER150626MOSANLAMC3:50:31
447JULIEMARSHALL64934FOADIDAS3:50:34
448SARAHFAIRHEAD96728FOTEMP3:50:37
449THOMASWEBB74834MOSTELLEN3:50:41
450DAVIDJENKINS119944M40+FHOEK3:50:52
451MARKMAWMAN77236MOVOB3:50:54
452SEANROBINSON187843M40+SSETAC3:50:59
453EMMALIEBENBERG102927FOTEMP3:50:59
454CARELVAN VUUREN263934MODURBAC3:51:03
455GEORGEGLOYNE154740M40+VOB3:51:04
456ROWENGLOYNE154834FOVOB3:51:08
457PETERJUDGE124147M40+HARF3:51:18
458JULIANKARP141050M50+NBMSM3:51:19
459CHRISTYSMITH169931FODURBAC3:51:20
460CHRISTINEHIBBERD67054F50+WHALERS3:51:23
461ILANAWOEKE165237FOSTRAND3:51:23
462MARIKEVAN DYK178937FORAC3:51:24
463ANDREWBATEMAN190337MOTEMP3:51:25
464TREVORMARLE164328MOFOREST3:51:29
465ADELECRUYWAGEN151443F40+SWART3:51:29
466JUANDU PLESSIS179730MOBRACK3:51:34
467NOELEENVAN DER LEEK185341F40+AAC3:51:43
468MARKWRIGHT233240M40+VOB3:51:49
469JOHNSTEVENS247849M40+TYGER3:51:50
470ELPHASNGCOBO95029MORCSGUGS3:51:52
471BARRYLANGENHOVEN72239MOAAC3:52:04
472GIDEONVAN DER KOLF215122MOMATIES3:52:06
473PETERLEUKES257351M50+RAVENS3:52:17
474JAMESDOUGLAS212538MOADIDAS3:52:24
475JADEDE HUTTON115632FOHARF3:52:36
476GREGREIS88647M40+HOUTBAY3:52:37
477KGABOPHOSA127638MODEFWP3:52:38
478CAROLINEWEINEL220752F50+DURBAC3:52:45
479FRANCIOSVAN DYK126547M40+EDGE3:52:49
480RICHARDPRICE154243M40+EDGE3:52:51
481FIONAHIBBS237829FOAAC3:52:53
482JOEVAN ROOYEN105844M40+DURBAC3:52:57
483COLINDUTKIEWICZ120841M40+TEMP3:53:05
484ALISONMAIN97737FOSH3:53:13
485JOPOYNTON245742F40+RWFLWP3:53:13
486GEORGENEWMAN254349M40+YEBO3:53:19
487ANDREWLAWLOR196330MOVOB3:53:21
488TIMOTHYBURDETT197150M50+NEDWP3:53:27
489TOMMYBALL104248M40+FHOEK3:53:31
490JANATROJAN224643M40+VOB3:53:32
491PAULSTEWART86441M40+HOUTBAY3:53:33
492ERICBATEMAN263M60+VOB3:53:36
493RENATOGONSALVES90246M40+DURBAC3:53:36
494BRADLEYPARK134741M40+HARF3:53:38
495NICHOLASWOODWARD167044M40+HARF3:53:39
496LANCEWYNNE197338MOAAC3:53:41
497LODEWYKLABUSCHAGNE57945M40+DURBAC3:53:47
498MAURICENAIDOO203945M40+MATIES3:53:47
499ROELOFVAN WEELE177867M60+WHALERS3:53:48
500DANIELBOTHA218831MOPAARL3:53:49
501PIETERCARSTENS244948M40+PAARL3:53:50
502SHURAINEABRAHAMS52342F40+BRACK3:53:51
503CLIVEMITCHELL204552M50+DURBAC3:53:52
504WENDYJANSEN108043F40+EDGE3:53:57
505NICHOLASCUPIDO182559M50+VOB3:53:58
506DUNCANMAYNE169540M40+VOB3:53:59
507LYALLRUSHTON233537MOVOB3:54:02
508DAVIDMACKAY237129MOCELTIC3:54:06
509IGHSAANSADIEN188834MOCELTIC3:54:12
510ROBINZIEHL116542M40+AAC3:54:13
511ROCCODE VILLIERS268854M50+STRAND3:54:13
512BERNARDHAYES26559M50+FHOEK3:54:18
513BEAUMONTCOOPER28057M50+FHOEK3:54:19
514STUARTSHILLINGLAW114441M40+EDGE3:54:19
515RANDALLMARGEMANN240224MOFARNESE3:54:19
516GREGHECHTER109037MODURBAC3:54:21
517DEANMOLDENHAUER118040M40+NBMSM3:54:22
518GERHARDUSNIENABER160438MONBMSM3:54:22
519JULIANMAGGOTT24850M50+CELTIC3:54:26
520GARYLEMKE237747M40+DURBAC3:54:27
521REGANALDCROWSTER127048M40+TYGER3:54:31
522LYLEBARREIRO86829MOEDGE3:54:35
523ANNEPOOL58349F40+STRAND3:54:38
524LORCANMCHARRY191034MOVOB3:54:38
525CLIVESMITH226143M40+TITANS3:54:39
526SAMMYJONES225953M50+TITANS3:54:42
527JOHNALLIES258949M40+MUTUAL3:54:44
528KIRADARENBY107729FOVOB3:54:45
529MARRILLBUCKLEY132124FOTELKWP3:54:48
530BRIANSUPER196452M50+EDGE3:54:49
531BRIANMERRYWEATHER85157M50+EDGE3:54:51
532MICHAELHYNE103841M40+WPCC3:54:52
533JOHANPRETORIUS134932MOVOB3:54:54
534GINAKEYSER109238FOAAC3:54:56
535CHARLESWARREN-CODRINGTON65422MOUCT3:54:56
536FRIKNELSON163745M40+BELL3:54:57
537PIERREKLEINSMITH175634MORCSGUGS3:55:01
538ROBERTZIVE183336MOAAC3:55:10
539STEVEHALDANE227938MOVOB3:55:16
540NEILBALES199837MOVOB3:55:18
541PETERROBERTS135253M50+SH3:55:18
542STANTONJANDRELL54442M40+VOB3:55:18
543BRYANMOYLES85742M40+VOB3:55:20
544EMMACARPENTER64834FOAAC3:55:22
545MICHAELMEY229345M40+VOB3:55:23
546RIAANVILJOEN174538MOTEMP3:55:30
547STEPHANDU TOIT161733MOTEMP3:55:33
548RORYCRAWFORD67335MOVOB3:55:34
549BRENDASTEVENSON26856F50+PINE3:55:38
550NICKYECKSTEIN51641F40+TEMP3:55:39
551JOHANESTERHUIZEN106634MONAMAQ3:55:39
552PIERREDE VILLIERS151552M50+MATIES3:55:40
553XOLANIMBUZO142328MOHARF3:55:43
554SHAUNROUX227237MOSH3:55:45
555THOMASANDREWS128852M50+VOB3:55:53
556ROBVAN HILLE216536MOVOB3:55:54
557VERITYERLANGSEN132445F40+VOB3:55:57
558DIRKGROENEWALD148254M50+RWFLWP3:55:57
559JOHNNYDHLAMINI215349M40+MOSSEL3:55:58
560DALEMILLAR218238MOVOB3:56:04
561REUBENFRANK240942M40+ARD3:56:07
562NONHLANHLANGCOBO56625FOUWC3:56:09
563NICHOLASEVRARD150039MOATC RC3:56:09
564MARWAANFREDERICKS235930MOMETLIFE3:56:10
565DANBIGGS250252M50+HARF3:56:14
566ASLAMGALANT121950M50+ITHEKO3:56:18
567PHILLIPACOLEMAN230239FOSATORI3:56:21
568TARRYNBURTON136234FOTEMP3:56:30
569FLORICIUSBEUKES88540M40+GROOT3:56:32
570SARSHENMARAIS54932FOSATORI3:56:33
571BERGHKENNETH105444M40+RWFLWP3:56:33
572CHANELLEHOFFMAN136339FOSTRAND3:56:34
573BEVMACKINTOSH156843F40+FHOEK3:56:35
574SHOEFIYANDYER268132MOCELTIC3:56:35
575ENRICODANIELS199931MOMAMRE3:56:38
576SPENCERWILLIAMS96844M40+CELTIC3:56:40
577MARKCARSTENS225344M40+FOREST3:56:44
578NICOLEGRIFFITH92239FOVOB3:56:45
579TONYABRAHAMSON7361M60+FOREST3:56:46
580NEVILLEVELDMAN209140M40+TYGER3:56:47
581JANHAGEN123948M40+DURBAC3:56:48
582IMRAANALLIE264935MOMETLIFE3:56:58
583JORGSCHMID77749M40+FHOEK3:56:59
584JOSEPHMATTHEWS141766M60+TITANS3:57:00
585GREGORYCROWDER170850M50+TELKAGN3:57:01
586BRADFORDLUBBE73341M40+HOUTBAY3:57:03
587VICTORIASHEPPARD51532FOATC RC3:57:03
588GEORGINARATCLIFFE157135FOTEMP3:57:04
589TALLISCALMEYER156125MOEDGE3:57:04
590EDWINOLIVIER180445M40+RWFLWP3:57:05
591KASHIEFSARDIEN209654M50+AAC3:57:09
592SULEIMANSOEKER141554M50+TOPF3:57:13
593CONRADBASSON177050M50+STELLEN3:57:14
594EBRAHIMABRAHAMS178740M40+ITHEKO3:57:21
595MOGAMATBURGHERS28159M50+FHOEK3:57:22
596LANCEBARROWMAN204833MOEDGE3:57:34
597FALLONHOPE63628FOVOB3:57:37
598GRAHAMBENTZ129729MOSASOLMC3:57:41
599ROBBROSTER75137MOCHAPPIES3:57:45
600WAYNEGALANT212136MOCELTIC3:57:48
601MOOSRUITERS165842M40+SALKOR3:57:49
602MANDLENKOSISIBANDA60840M40+MUTUAL3:57:53
603ANTHONYMEYER192845M40+PAARL3:57:54
604GIELIEELLIS62445M40+BRACK3:57:55
605MEGANGOLIATH81535FOBRACK3:57:58
606KARENJENNINGS67545F40+VOB3:58:01
607DAVIDFENNIE241647M40+METLIFE3:58:01
608NIZAAMFREDERICKS68039MOMETLIFE3:58:08
609NATALEROELOFSE23157M50+WORC3:58:08
610IANNIXON248534MOVOB3:58:09
611PAULHOBDEN118236MOSATORI3:58:09
612MARCYLOUBSER147341F40+SATORI3:58:11
613JOENEWBERT136536FOVOB3:58:12
614RIAANMULLER173835MOEDGE3:58:14
615DANIELVAN DER WESTHUIZEN243242M40+METLIFE3:58:17
616FRANSJOOSTE124556M50+TEMP3:58:17
617DANIEVAN DER MERWE231941M40+BELL3:58:18
618CONBRINK210144M40+DURBAC3:58:18
619EDWARDPOTZEE221745M40+INTOUCH3:58:23
620SIRAJWILLIAMS226940M40+METLIFE3:58:24
621TAYEBJAPPIE137540M40+TOPF3:58:25
622IANWARD89744M40+FOREST3:58:27
623RIANMIA189340M40+VOB3:58:28
624JANSWANEPOEL222840M40+TEMP3:58:29
625CAROLINEBALKWILL87037FOAAC3:58:31
626RAJUVUPPALAPATI144448M40+VOB3:58:31
627EVERETTBROWN110741M40+MSM3:58:32
628ANGELIQUERABIE201644F40+PINE3:58:35
629HENRYCLEOPHAS203652M50+MUTUAL3:58:35
630NEILVALLANCE130535MOTEMP3:58:38
631LEEDOBES155036MOVOB3:58:40
632LUCINDAREAD161236FOVOB3:58:41
633ALANGLASSER83344M40+WPCC3:58:44
634VERNONMURTZ192054M50+PINE3:58:45
635BERTUSCILLIERS106441M40+BELL3:58:55
636MARIANCILLIERS106541F40+BELL3:58:55
637WENDYHUDSON239740F40+VOB3:58:57
638VELAPHINTULI119735MOEGIJWP3:58:57
639ELAINEHARVEY135636FOVOB3:58:58
640ZELDAVAN WIJK162741F40+STRAND3:58:58
641ISMAILAHMED206042M40+MUTUAL3:58:58
642MUJHAHIDDICKSON104433MOITHEKO3:58:59
643QUINTONPETERS94552M50+VOB3:59:00
644TERRYDEATS53242F40+AAC3:59:00
645SUSANGLUCKMAN140939FORWFLWP3:59:02
646MARTINECOHEN120926FOAAC3:59:09
647CLIVEELLIOTT92947M40+VOB3:59:12
648ISAACMARTIN224232MORCSGUGS3:59:13
649HERMANWILLIAMS260956M50+RCSGUGS3:59:15
650RICHARDBUTCHER1261M60+SWART3:59:20
651INGRIDDUKES162939FOTEMP3:59:21
652WILLIAMCOLEMAN78335MOSATORI3:59:25
653KGAKGAMATSOGAOBUSE61042M40+TYGER3:59:27
654CLIVEVAN ROOYEN82239MOTEMP3:59:27
655JENNYSLACK120751F50+VOB3:59:28
656JUSTINKRUGER78138MOFITWP3:59:29
657FRITZSONNENBERG163243M40+CELTIC3:59:31
658HEADMANDAMOYI82552M50+NEDWP3:59:32
659ANNALIESMITH174040F40+ATC RC3:59:33
660ARTHURJACOBS265548M40+TITANS3:59:35
661LINDAMALLON135948F40+PINE3:59:42
662KOBIEBUYS59839FOSTRAND3:59:44
663LIZETTEBANNISTER141237FOEDGE3:59:47
664ISMAILISAACS258239MOTYGER3:59:48
665ROBERTDE MONK204943M40+SOUTHS3:59:48
666JOHNBROWN181352M50+DEFWP3:59:57
667PAULMURPHY212646M40+SOUTHS4:00:00
668CHRISTOBOTHMA108632MOEDGE4:00:02
669RUSHIJEFTHA261650M50+WORC4:00:10
670JOHANETTEJACOBS120243F40+BFNACH4:00:10
671MOIRAOLIVER64251F50+SATORI4:00:11
672GRANTOLIVER64151M50+SATORI4:00:11
673BOOIMALGAS126952M50+AAC4:00:24
674RIANABEYERS174738FOSTRAND4:00:28
675ALEXVAN DER HORST66834MOAAC4:00:30
676JOHNLESTER113444M40+WCOAST4:00:34
677BERNARDSYLVESTER136946M40+CELTIC4:00:36
678MARTINJACOBS181246M40+BRACK4:00:37
679BARNARDJACOBUS96946M40+DURBAC4:00:39
680RONELLEBESTER244642F40+DURBAC4:00:40
681JEREMIAARNOLDS207234MODURBAC4:00:40
682WENDYMCLEOD155842F40+FHOEK4:00:41
683RUSSELLMACKINTOSH30744M40+FHOEK4:00:43
684MAURICEHILL32142M40+RCSGUGS4:00:52
685CATHERINEHOLLAND68735FOHARF4:00:53
686DAVIDAUCAMP100448M40+NBMSM4:01:00
687ANNALITAGOOSEN100544F40+NBMSM4:01:07
688CHARLDU PLESSIS55441M40+STRAND4:01:11
689RUSSELMATHEWS172736MOWELLING4:01:13
690GEORGELEWIS240054M50+MAMRE4:01:24
691HEINSTANDER50030MOKNYSNA4:01:27
692STANLEYCONGO58246M40+METLIFE4:01:32
693CHARNDE LANGE175839FOEDGE4:01:36
694GREGORCALDERWOOD66436MOTEMP4:01:42
695WESLEYVAN DER MERWE205028MOVOB4:01:46
696NEILLEWUS168939MOROCKIES4:01:48
697ABIEDAMONS179352M50+UWC4:02:02
698MAREKRANOSZEK120148M40+VOB4:02:13
699RICHARDMAJIET191657M50+PINE4:02:19
700GEORGINAPETERS162436FOFOREST4:02:20
701JOANNEELS172648F40+WELLING4:02:20
702RONELTERBLANCHE216940F40+WELLING4:02:21
703CLIVEADENDORFF136850M50+INTOUCH4:02:40
704LOUISBOTHA158543M40+DURBAC4:02:42
705VERNONDU PREEZ139665M60+LBAAN4:02:43
706FIDELMBHELE149633MOTEMP4:02:50
707MARCBRIGHT196637MOTEMP4:02:51
708ANDRETLABUSCHAGNE81232FOATC RC4:02:54
709GIDEONBEUKES81144M40+FHOEK4:02:55
710ABRAHAMFREDERICKS188251M50+WORC4:02:56
711ALICETARNICHOLS261042M40+TEMP4:03:08
712HETSIEVAN ZYL230748F40+NBMSM4:03:09
713MATILDALE ROUX101749F40+DURBAC4:03:12
714PAULJOUBERT218543M40+CPUT4:03:19
715ALANSEABERG50747M40+AAC4:03:21
716GERHARDVAN DER MERWE69337MOTEMP4:03:29
717DARRYLMATHYS194347M40+INTOUCH4:03:33
718THOBAANBEDFORD213135MOMETLIFE4:03:42
719JOLEENBILGIN62336FOWCOAST4:03:43
720DAVIDBOTES167927MOAAC4:03:47
721MIKECLAMPETT202230MOATC RC4:03:47
722EDWARDBAARDMAN239944M40+ATLANTIS4:03:50
723DESMONDARENDSE206349M40+ATLANTIS4:03:56
724RALPHPIETERSEN143729MODURBAC4:03:57
725IANJONES253955M50+CELTIC4:03:57
726STANLEYMITCHELL153338MOFITWP4:03:58
727DERIKRABIE92530MODURBAC4:04:10
728STANLEYWESSELS92627MODURBAC4:04:12
729JOHNGAMBLE255743M40+DURBAC4:04:25
730LIESLBESTER142436FOWORC4:04:26
731JUNITAVAN AS178236FODURBAC4:04:27
732ANNELIEVAN DER LINDE102157F50+DURBAC4:04:32
733LOUISHUGO209744M40+TEMP4:04:34
734JEANROUX351229MONBMSM4:04:36
735COLINKORTE151856M50+EDGE4:04:45
736BEKKERVAN NIEKERK160840M40+WELLING4:04:46
737HAYLEYCHESTERTON102643F40+VOB4:04:49
738JOHNBOWLER62039MOTEMP4:04:49
739SHAHMIEISMAIL71345M40+METLIFE4:04:51
740RYANDE JAGER132726MOTEMP4:04:59
741CLEMENTINEREBELO24749F40+EDGE4:05:15
742LIEZELJOUBERT110641F40+EDGE4:05:19
743SANVEERHARIPARSAD203527MOPICKPAY4:05:19
744BRUCEBARBER63164M60+FHOEK4:05:23
745ELROYDU PLESSIS104136MOCELTIC4:05:23
746JACKHODKIN121253M50+HOUTBAY4:05:28
747ADNAANMANUEL181939MORCSGUGS4:05:39
748NATASHAKRUGER92037FONBMSM4:05:49
749MARIUSKRUGER92136MONBMSM4:05:50
750TRACYBUNN234341F40+RWFLWP4:05:53
751JUSTINBLAKE229122MOTEMP4:05:55
752CHARLYATES247439MOWELLING4:06:03
753STEVENVON SCHLICHT247653M50+WELLING4:06:13
754ELYDIADE MONK207844F40+SOUTHS4:06:13
755REECOETZER111541F40+PAARL4:06:14
756REGGIESAUNDERS169055M50+WORC4:06:18
757LUCILLEDAMON20651F50+FOREST4:06:21
758JACQUESDREYER95541M40+PAARL4:06:22
759MARTINDAVIDS242550M50+EGIJBOL4:06:22
760MARKBARRON203756M50+MATES4:06:33
761ADAMTHOMAS248935MOTEMP4:06:37
762PIETERTALJAARD135752M50+SAPSWP4:06:40
763JACQUELINEBATT110335FOADIDAS4:06:47
764ALROYBROWN166342M40+YEBO4:06:57
765DAVIDMAXWELL20146M40+VOB4:06:59
766ASHLEYRADLEY91851M50+FITWP4:07:01
767ALISONBALL230446F40+TEMP4:07:08
768BRANDONSEPTEMBER129544M40+SH4:07:18
769IVANCOCKCROFT55559M50+BENH4:07:20
770GRAHAMTJABRING231437MOTEMP4:07:25
771HERMANSTRYDOM59549M40+VOB4:07:29
772WERNERJURGENS74338MOWCOAST4:07:32
773HOWARDSILKE15355M50+AAC4:07:39
774JOHANSMIT147951M50+HELD4:07:42
775MARCSPOLANDER66333MONBMSM4:07:44
776CHANTALLI258137FOWCOAST4:07:49
777MARLENESWART138552F50+PAARL4:07:51
778NICKYHORENZ111137FOVOB4:07:53
779VERNONWILKENSON239046M40+METLIFE4:07:53
780MARIETJIEDE VRIES78238FOSTRAND4:07:54
781ANNERIEBOTHA114630FOBELL4:07:56
782ALFREDNTSETE257433MOEAST4:07:58
783DENNISSTEAD212844M40+CELTIC4:08:00
784ADNAANVAN HEERDEN142931MOYEBO4:08:07
785SIDNEYCLEOPHAS18954M50+PINE4:08:09
786CECILREID218933MOCELTIC4:08:14
787SHAHEEDJAKOET226249M40+VOB4:08:19
788LOMONVAN DER VYVER168644M40+WORC4:08:23
789ALANWHITE61946M40+WPCC4:08:26
790BRADLARRATT82738MOWPCC4:08:33
791IANDINAN110042M40+PINE4:08:33
792JUSTINKRETZSCHMAR120339MOTEMP4:08:39
793EBRAHIMGASNOLA143332MOYEBO4:08:42
794JONATHANBERGER102243M40+RAC4:08:45
795BERYLMAHARAGE143044F40+CELTIC4:08:48
796TREVORADAMS26058M50+CELTIC4:08:52
797MARKSAMPSON245335MOCELTIC4:08:53
798DEXTERMILLER134820MOVOB4:08:55
799ROBERTEDSON204746M40+INTOUCH4:09:00
800MIEKIELAMPRECHT184546F40+SAPSWP4:09:01
801DIVANPRETORIUS157323MOOUTENH4:09:02
802DIONSMITH252144M40+AAC4:09:04
803HENDRICKDUTHIE186547M40+STRAG4:09:07
804LESLEYFORTUIN211035MOTYGER4:09:08
805NEILBAILLIE62841M40+VOB4:09:09
806BELINDAHEIDMANN244441F40+VOB4:09:18
807KARLBAKER255551M50+RCSGUGS4:09:20
808TANIAIDAS209042F40+NBMSM4:09:20
809ARCHIEGROENER105149M40+DAC4:09:21
810TASWELLSCHULLER93846M40+TOPF4:09:23
811MOHAMMEDALLIE133734MOTOPF4:09:23
812WALEEDBAKER63246M40+AAC4:09:24
813CONRADMULLER134526MOTYGER4:09:26
814MASOKANDILEQOBONGO182233MOKAC4:09:35
815JOSEPHSTRAUSS263640M40+HOUTBAY4:09:38
816CARELVAN NIEKERK144631MOATC RC4:09:44
817CAROLINESANDS197555F50+HOUTBAY4:09:45
818TRAVISSJACOBS219039MOSOUTHS4:09:58
819FRANPOCOCK232861F60+CELTIC4:10:03
820TIMJOBSON23450M50+METLIFE4:10:07
821RAYAANJARLEY102035MOTOPF4:10:13
822WILHELMRICHTER75238MOBRACK4:10:14
823GRAEMESEARLE213444M40+TOPF4:10:18
824GREGSONLUBBE188036MOHOUTBAY4:10:21
825CASSIEMLEWIS79243M40+TOPF4:10:27
826SAEEDFAKIER256743M40+TOPF4:10:28
827JONATHANOHANLON111953M50+TEMP4:10:28
828PETERWOODARD163434MOTEMP4:10:31
829RITZDE LA BAT197843M40+PAARL4:10:34
830ALISTERSMUTS101538MOAAC4:10:35
831LYNETTEHIGGO199338FOTYGER4:10:36
832ALANDALY174653M50+RWFLWP4:10:43
833JOHNNYPIETERSE193439MOTELKWP4:10:56
834MATTHIASAPOLLES228850M50+CELTIC4:11:02
835CHRISMCMINN118654M50+EDGE4:11:03
836LAURASIMONIS110939FOWCOAST4:11:06
837SZILARDBAKA266746M40+STRAND4:11:08
838GAVINROME105645M40+ROCKIES4:11:12
839KIMWETTERGREEN103753F50+FHOEK4:11:13
840SUNETDE JAGER235839FONEDSWD4:11:22
841PETRAROSSOUW235333FONEDSWD4:11:24
842SIEGFRIEDKUPCZOK51869M60+TEMP4:11:27
843ADRIVISSER173759F50+SWART4:11:37
844RICARDOKORKEE193737MOTITANS4:11:38
845GAVINWILLIAMS131845M40+METLIFE4:11:40
846RAZZAKSAMAD215254M50+TOPF4:11:40
847JOHANWILDE69550M50+NEDWP4:11:43
848FUADADAMS257047M40+TITANS4:11:47
849ANTHONYLEWIS138041M40+TITANS4:11:48
850FRANKSTEYN229224MOTEMP4:11:53
851TREVORHILL12751M50+CELTIC4:11:54
852MARKRENAUD111354M50+FHOEK4:12:05
853ISAACEDWARDS139337MOOLDMUT4:12:12
854LOUISEKITSON80239FONBMSM4:12:21
855CHRISVAN ZYL149145M40+NBMSM4:12:31
856BERNARDWYATT51241M40+TEMP4:12:36
857WANEROSSOUW74440M40+ATC RC4:12:37
858FREDERICKVAN DER MERWE260249M40+TELKWP4:12:40
859ABRAHAMSQUARE251449M40+TELKWP4:12:42
860ROSCOENOBLE223123MOTEMP4:12:42
861OCKERTBROODRYK245950M50+DURBAC4:12:42
862JOHNMCLEAN172249M40+DURBAC4:13:04
863COLINKEY87261M60+RANDH4:13:07
864LESUEURKEYSER91429MONBMSM4:13:10
865ZOLANIYAKO86941M40+CELTIC4:13:15
866RODNEYABRAHAMS247743M40+CERES4:13:16
867PAULVISAGIE87630MOTEMP4:13:19
868LULAMAMAGQAZA243140M40+METLIFE4:13:21
869ZAKERIYAFIRFIREY144937MOTOPF4:13:26
870STEPHENDELPORT202947M40+NBMSM4:13:27
871PETER-JOHNAUGUST23046M40+VOB4:13:27
872TANIASTEVEN-JENNINGS53934FOTEMP4:13:28
873JANOTTRAND99726MOSH4:13:35
874JANETHODKIN121348F40+HOUTBAY4:13:40
875PHILIPMONK220444M40+TEMP4:13:41
876JULYANCLIFFORD65653M50+BRACK4:13:42
877JACOPIENAAR192637MODURBAC4:13:43
878SEANHAMMON222238MOHARF4:13:44
879KHAYAKUSE223830MONBKHAY4:13:46
880PAULHILLS200047M40+DURBAC4:13:48
881THIANDE BEER207626MOBRACK4:13:49
882DAVIDNEL185830MOEDGE4:13:53
883CHRISTOENGELBRECHT259045M40+SAPSWP4:13:58
884RICHARDFRANCOIS203235MOBRACK4:14:06
885LARAGROENEVELDT106829FOVOB4:14:09
886ANTONGROENEVELDT199033MOCELTIC4:14:10
887JOHNNIETROMP261944M40+TYGER4:14:10
888AUBREYMCQUWERN239148M40+METLIFE4:14:11
889DAMONMOHAMED90642M40+TOPF4:14:12
890JOHNDAWES30550M50+PINE4:14:12
891GAVINMACKAY136044M40+STRAND4:14:14
892NEILMORGAN159255M50+PINE4:14:14
893LOUISBOTHA143534MOYEBO4:14:16
894COLINSEWELL236642M40+WCOAST4:14:17
895HUISAMENNUHOLT159038MOCELTIC4:14:20
896BOTHAMATTHYS131343M40+DURBAC4:14:21
897WILLIEVAN NIEKERK215748M40+DURBAC4:14:23
898ADAMLOTTERING255446M40+BRACK4:14:26
899ROANMACKINTOSH108431MOCELTIC4:14:30
900TERSIAVAN STRAATEN57846F40+NBMSM4:14:39
901SHARONMARLE52524FOFOREST4:14:41
902MARIEBARNARD269352F50+RWFLWP4:14:41
903HANELHOFMEYR174831FORWFLWP4:14:54
904CAROLINELEE86046F40+MCCRR4:14:56
905SERAJACKERS122951M50+TOPF4:14:57
906TIMELLIOTT219246M40+FHOEK4:15:01
907GERRYBRYNARD109746M40+NBMSM4:15:04
908SALIETALIEP123154M50+TOPF4:15:08
909DOMINICFISHER166435MOITHEKO4:15:12
910ROLENELIEBENBERG110150F50+SH4:15:13
911IANSMITH216639MONBMSM4:15:13
912VUKILEMAYEKISO172550M50+RCSGUGS4:15:31
913DAVEWAYWELL98851M50+VOB4:15:32
914DEBORAHHORN-BOTHA155345F40+VOB4:15:34
915WAYNEPARSONS123246M40+SATORI4:15:35
916GRANTLABUSCHAGNE164450M50+FHOEK4:15:35
917ELIZABETHBAX127850F50+PINE4:15:37
918ABDUL-MALICKKALAM258437MORCSGUGS4:15:38
919JANOLIPHANT248143M40+WORC4:15:40
920ANDREWGOLIATH202742M40+METRO4:15:50
921ROBERTEMMETT253552M50+HEWAT4:15:57
922BARBARASTEVENS259149F40+PINE4:16:01
923BENKHONYANE62948M40+WCOAST4:16:15
924NADIAGONSALVES102836FOAAC4:16:17
925MALCOLMROSS-WATT252953M50+KHOSA4:16:21
926RIANMARREN86335MODURBAC4:16:24
927WILLEMBURGER113236MOSTRAND4:16:30
928CATHERINEPARKER60332FOAAC4:16:32
929VELMABOTHA81034FOAAC4:16:33
930DOMINICMURGATROYD198144M40+STRAND4:16:36
931BENNIECARSTENS202525MOSWART4:16:37
932BERNARDMANIM62144M40+VOB4:16:38
933PAULDE WET198464M60+WORC4:16:38
934DOCTORPOTWANA261137MOVOB4:16:47
935ALANKAY253847M40+VOB4:16:48
936RONALDTEEMANE131639MOEGIJWP4:16:49
937NICHOLASSTEVENS205924MOFHOEK4:16:52
938ROCHELLEROSE206938FODURBAC4:16:59
939MENNOROSE207940M40+DURBAC4:17:02
940KYLIEHATTON169133FOHARF4:17:08
941WALLYSTEEL76665M60+HOUTBAY4:17:12
942MNICHWOLFGANG33848M40+TEMP4:17:13
943DORISFLINK264755F50+EAST4:17:13
944JACQUESSENEKAL67838MOMETLIFE4:17:14
945LLOYDADRIAAN149848M40+NBMSM4:17:21
946ANGUSDUFFETT97637MOFOREST4:17:21
947RICHARDSHORT140731MOFOREST4:17:25
948VIVIENFRANSMAN183451F50+NAMAQ4:17:31
949EMRAANRAILOUN52643M40+TOPF4:17:37
950CHRISJACOBS266054M50+STRAND4:17:38
951KERRYCOCHRANE67231FOVOB4:17:39
952KARENBOTHA175132FOVOB4:17:41
953PETERBOTHA71651M50+TEMP4:17:44
954MEGANLANGEVELDT183138FOTOPF4:17:50
955ANDREWSTAMPER214028MODURBAC4:17:54
956GANIEFELLOKER233651M50+SH4:17:54
957STEVEREVELL139843M40+EDGE4:18:07
958ROGERLAUF208838MOCELTIC4:18:17
959GARYLAUF208740M40+CELTIC4:18:19
960CAMERONANLEY245034MOTEMP4:18:22
961RODNEYCUPIDO245546M40+SANLAMC4:18:24
962RYANFROUDE154535MOVOB4:18:25
963LENKOK208342M40+DURBAC4:18:25
964MFUNDOTALIWE228634MOEGIJWP4:18:30
965EDWINABARTES258641F40+PINE4:18:30
966WENDALSMITH248043M40+PINE4:18:31
967JEROMEMERTON238935MOPINE4:18:31
968LIONELABRAHAMS19344M40+PINE4:18:32
969CATHERINEHISHIN70042F40+FHOEK4:18:32
970JACOBMARTIN64048M40+DISCOVER4:18:33
971RAHIMADNAAN190134MOPAARL4:18:34
972CHRISREADMAN19761M60+AAC4:18:44
973MANDYTEMPLETON52933FOAAC4:18:47
974ANTONDIEDERICKS14550M50+DURBAC4:18:49
975BERTUSCAMPHER198740M40+AAC4:18:49
976HENDRIHAMMAN154035MOWELLING4:18:55
977HELENTARR178040F40+HARF4:18:58
978KEITHSEARLE99056M50+FHOEK4:19:12
979GIDEONLE GRANSIE222939MOTEMP4:19:12
980FRANSRAUTENBACH196553M50+FITWP4:19:26
981ERNALDBOYD100334MOSH4:19:34
982KEVENGREEN165546M40+EDGE4:19:37
983NICOLENEKOEGELENBERG184650F50+BRACK4:19:38
984ANDYDANIELS166656M50+INTOUCH4:19:49
985VALENTINENEFDT177442M40+TEMP4:19:51
986WAYNEHERMAN159852M50+TEMP4:19:54
987TAKALANIRADALI129931MOTEMP4:19:56
988OLWYNOLIVER71460F60+FHOEK4:19:59
989ISOBELCALITZ176729FODURBAC4:20:02
990ANDREWMINNAAR94452M50+EGIJWP4:20:07
991ELNAVAN RENSBURG123731FODURBAC4:20:21
992ANDREWHERRMANN20847M40+FOREST4:20:24
993PIETERLENNOX145244M40+OUTENH4:20:30
994DEONVAN DER HEEVER133437MODEFWP4:20:34
995CECILEBALKEMA217034FOAAC4:20:36
996STUARTOCKHUIS113143M40+MUTUAL4:20:40
997BERTRAMLEUKES182846M40+CELTIC4:20:55
998DESROYSCHOEMAN113341M40+MUTUAL4:20:57
999MEI JUANLEI223935FOITHEKO4:20:59
1000LAURENFRIEDMAN88234FOROCKIES4:21:00
1001MARIUSVENTER265249M40+WHALERS4:21:00
1002JANGILDENHUYS247946M40+WHALERS4:21:01
1003DESMONDMUDGE71957M50+ELGRAB4:21:01
1004IANWALTON96559M50+ELGRAB4:21:03
1005IQBALSIRKOT53435MOMETLIFE4:21:05
1006WALIEDJABAAR103541M40+VOB4:21:07
1007TONNIUPHAM261359F50+SH4:21:08
1008SERGIODANIELS218637MOTOPF4:21:11
1009CHRISMYERS212040M40+FHOEK4:21:15
1010GAVINWRIGHT5552M50+FOREST4:21:19
1011PETERSLATTERY103955M50+WCOAST4:21:32
1012MAGHDIARNOLD259348M40+PINE4:21:44
1013RICHARDMARKS138456M50+HOUTBAY4:22:02
1014SADICKSAMSODIEN117052M50+VOB4:22:05
1015MAAJIDWARLEY26964M60+SH4:22:08
1016LAMLAHANGANA117842M40+RCSGUGS4:22:10
1017NICOLASTRYDOM236323FOFHOEK4:22:13
1018ALANMARGOLIN20055M50+FOREST4:22:14
1019SULEIMANJACOBS189042M40+TOPF4:22:14
1020FIONASCHOLTZ53554F50+STELLEN4:22:24
1021ERNESTFRITZ228741M40+CELTIC4:22:25
1022MOGAMATCASSIEM32650M50+TOPF4:22:29
1023LEANNEPITCHERS74539FOVOB4:22:34
1024JOSEPHTYRRELL266264M60+VOB4:22:41
1025SIRAAJTOEFY193047M40+VOB4:22:47
1026DE WETSCHREIBER68840M40+STRAND4:22:49
1027LIEZLVAN ROOYEN56836FOSTRAND4:22:50
1028HOWARDWARRINGTON54646M40+STRAND4:22:50
1029NINONAIDOO142538FOCELTIC4:22:55
1030DIONHORNE263146M40+METLIFE4:22:56
1031REGINALDVAN WYK147724MOGROOT4:22:56
1032CONITAHENRY94748F40+STELLEN4:22:58
1033FADIELKASSIEM184348M40+ITHEKO4:22:59
1034JUDYBLEEKERS78542F40+TEMP4:23:04
1035STEPHENPEIRCE115940M40+CELTIC4:23:12
1036THEOHENDRICKSE160751M50+SOUTHS4:23:17
1037TREVORPANTI254048M40+SH4:23:25
1038LE ROUXHOFFMANN130225MOBELL4:23:43
1039DARNELLMARTIN63948F40+DISCOVER4:23:50
1040RIAANKUNZ91539MOTEMP4:24:00
1041GERALDKAROLUS137146M40+SALKOR4:24:03
1042MARTINARENDSE149259M50+HELD4:24:12
1043ANDREWGELDENHUYS250747M40+CELTIC4:24:13
1044STEPHANIEGRIFFITH-RICHARDS185141F40+DURBAC4:24:22
1045STRYMARSTRYDOM237243M40+BDOWNS4:24:22
1046MARIOSOLOMONS264539MOTEMP4:24:24
1047RICHARDKLOOSMAN186838MOSTRAND4:24:27
1048KARINAVAN SCHAIK203841F40+TYGER4:24:32
1049NATASJAHARDING190740F40+STRAND4:24:34
1050MARDREBETHKE155638FOMETRO4:24:36
1051LIEZLRENCKEN190239FOSTRAND4:24:38
1052FERDIEVILJOEN150256M50+STRAND4:24:41
1053CARLPUNT126427MOHELD4:24:42
1054SONWABILEDUDA221126MOTEMP4:24:42
1055GERHARDUSBOONZAAIER83838MOPINE4:24:43
1056MICHAELMILNE179153M50+WHALERS4:24:46
1057LOUISEJOUBERT184446F40+TEMP4:25:06
1058ANDREVAN DER BERG168741M40+DURBAC4:25:07
1059REONJACOBS214240M40+SH4:25:10
1060JULIACURTIS75343F40+AAC4:25:14
1061DIANNEDE CARTERET-MARTIN70949F40+MATES4:25:15
1062ALANTHOMAS119041M40+PINE4:25:16
1063HENKBOTHA200139MOTUKSGN4:25:18
1064HOWARDVERNON199637MOTUKSGN4:25:19
1065ISABELSTEENKAMP67442F40+WCOAST4:25:21
1066EVELINATSHABALALA73845F40+TEMP4:25:30
1067CALLAREYNOLDS114137MOAMAC4:25:30
1068MARALOUBSER116441F40+SANLAMC4:25:51
1069MICHAELORTLEPP143929MOSACS4:25:54
1070DENISEJOHANNES69653F50+SH4:25:56
1071NICOLIENVAN DER LINDE70433FOTEMP4:25:57
1072JOYABRAHAMS216045F40+SH4:26:00
1073RIAANMULLER264345M40+YEBO4:26:01
1074CRAIGMELLING-WILLIAMS130137MOFOREST4:26:01
1075LANCEBRINDERS217738MOEDGE4:26:02
1076RUSSELLWRIGHT184139MOFHOEK4:26:07
1077CLAUDEBROOKS253765M60+BIDWP4:26:18
1078ANDRESCOTT137345M40+SWART4:26:20
1079RUDOLPHLEWIS263355M50+STRAG4:26:20
1080JACOBUSWIESE206537MOSAPSWP4:26:27
1081CARLOSBARREIRO149943M40+AAC4:26:30
1082BRIDGETMARSHALL162244F40+CELTIC4:26:37
1083RUSSOUWBESTER70749M40+BRACK4:26:48
1084TREVORRORBYE251947M40+AAC4:26:54
1085NICKEYERASMUS163647F40+MAG4:26:55
1086GARETHLLODY-JONES260737MOWCOAST4:27:00
1087DAVIDSTEVENSON57346M40+CELTIC4:27:01
1088MARIAANCLOETE92834FOSTELLEN4:27:07
1089MICHELLECLARENCE171544F40+SH4:27:14
1090ERICPOCOCK109362M60+FOREST4:27:15
1091VANESSAOUWERKERK93941F40+EDGE4:27:16
1092ELBERTDE KOCK85823MOCELTIC4:27:17
1093SIMEONCLAASEN125644M40+MUTUAL4:27:20
1094LYLECREBO191945M40+HARTBES4:27:23
1095RUSSELPETERS225138MOOLDMUT4:27:24
1096KOOSBLEEKER131766M60+FHOEK4:27:24
1097HANNESSLABBERT221040M40+STRAND4:27:25
1098KARLIENSCHOLTZ62737FOTEMP4:27:25
1099FRANCOISHEUNIS166753M50+STRAND4:27:26
1100RAPULEBOSHOMANE99843M40+DEFWP4:27:31
1101CHRISTIAANSTEYN163037MOTYGER4:27:32
1102BETTINAKOEDITZ61440F40+AAC4:27:32
1103JUANDE WITT217945M40+WCOAST4:27:35
1104MARKROBERTS68233MOTEMP4:27:36
1105ANDREWRIDL171938MOSTELLEN4:27:38
1106YA BINGWANG224134MOITHEKO4:27:39
1107JOHNJACOBS106947M40+TELKWP4:27:44
1108VENITANEL89541F40+TYGER4:27:46
1109ERIKWESTVIG52238MOVOB4:27:53
1110VONDRASINGLETON54843F40+WORC4:27:54
1111LINDSAYEVARD105343F40+AAC4:27:57
1112ADRIDE WITT142833FOAAC4:28:00
1113VUYOPANA236733MOTEMP4:28:01
1114ANDRIESVAN DER WESTHUIZEN22948M40+SALKOR4:28:11
1115ALANJACOBS101953M50+SH4:28:11
1116GAVINRICH225845M40+WCOAST4:28:15
1117ISHMAELTLOU105239MODEFWP4:28:16
1118MARKCARSTENS228233MOVOB4:28:18
1119FRANCISANTROBUS79938MOWPCC4:28:20
1120WENDYHOLROYD186947F40+VOB4:28:21
1121VICTORIAPUTTER72926FOATC RC4:28:23
1122SIMONSWARTZ118337MOEDGE4:28:26
1123ANNEZIMMERMAN126847F40+AAC4:28:36
1124ERICVAN DEN BERG80648M40+PIR4:28:37
1125GYSTERDYSSEL240753M50+MUTUAL4:28:41
1126OMARAJOUHAAR63039MOTEMP4:28:45
1127SOPHIALOUW111041F40+RWFLWP4:28:47
1128DANIELFARMER104954M50+EGIJWP4:28:47
1129MICHAELSCHRIKKER203454M50+MUTUAL4:28:53
1130HONORNKALA118165F60+AAC4:28:56
1131RODNEYPLETT121165M60+ROCKIES4:28:56
1132JANMENTOOR192355M50+EGIJWP4:28:58
1133NICOOOSTHUIZEN106241M40+BRACK4:28:59
1134RODERICKWILLIS134453M50+TOPF4:29:01
1135HENRYHENDRICKS249939MONAMAQ4:29:10
1136LEONIESTEYN128248F40+DURBAC4:29:11
1137CASPARGREEFF32276M70+AAC4:29:13
1138JEANNEAUSTIN94242F40+TEMP4:29:17
1139PAULBLAKE50327MOCARB4:29:18
1140JOHNMCINROY130428MOCARB4:29:25
1141MANDISIDYANTYIS181527MOTEMP4:29:37
1142SANDRABAETSEN93037FOTEMP4:29:45
1143SHAFIEKJOHNSON122338MOMETLIFE4:29:45
1144STEPHANIESCHWATLO89430FOTEMP4:29:46
1145TOLULLAHONI180330FOMATIES4:29:46
1146ANNELAITINEN192134FOTEMP4:29:46
1147GUSTAVMEHL250154M50+SH4:29:46
1148HESTERLE ROUX112144F40+PAARL4:29:47
1149WPVAN ZYL232132MOCARB4:29:47
1150LOURENSVAN ZYL232528MOCARB4:29:48
1151SHAUNWILLIAMS253442M40+MUTUAL4:29:48
1152MERRICKWHITTLE213642M40+SH4:29:48
1153TERSIARALL117932FONBMSM4:29:49
1154JOHANNEL247343M40+UPING4:29:51
1155CHRISWISE93438MOPINE4:30:00
1156ASHRIFBARDAY211844M40+TOPF4:30:01
1157PAULBUCKLAND189548M40+CENTURY4:30:02
1158ANDRZEJOKREGLICKI84450M50+UCT4:30:05
1159BELINDAMINTER242038FOVOB4:30:09
1160SEANSEPTEMBER89640M40+VOB4:30:14
1161DEIDRELE ROUX248247F40+AMAC4:30:17
1162RYNODE JAGER132954M50+UCT4:30:26
1163JACQUESGROENEWALD155137MOFOREST4:30:31
1164HENKSCHOEMAN205243M40+AMSAC4:30:39
1165ROBYNBROUGHTON65039FOVOB4:30:40
1166PETERROSENBAUM51959M50+TEMP4:30:41
1167MIKEUNGERER112456M50+BRACK4:30:44
1168HENRYOSHEA182755M50+HEWAT4:30:47
1169BRIANMOLYNEAUX11759M50+FHOEK4:30:50
1170ELSABEMOYO128442F40+RCSGUGS4:31:22
1171CHIPPYSTEEL77365F60+HOUTBAY4:31:29
1172TRISHGILMOUR101848F40+VOB4:31:32
1173ANNETMULLER264238FOYEBO4:31:34
1174DEBRITTENLE ROUX239846M40+ATLANTIS4:31:39
1175JANNIENEL64643M40+HANG4:31:46
1176ALANHUNTERS256640M40+AACWP4:31:52
1177RONALDABRAHAMS264443M40+RCSGUGS4:31:53
1178SANETDU TOIT104542F40+BRACK4:32:02
1179JONATHANBOUWER66125MOFHOEK4:32:06
1180CASPERSTEENKAMP196938MONBMSM4:32:17
1181LEONARDDE LANGE177345M40+BRACK4:32:18
1182HASSIEMARNOLD178463M60+TOPF4:32:19
1183GAILMACDONALD220550F50+WCOAST4:32:27
1184MONICAPALMER205449F40+WCOAST4:32:29
1185JACOBUSSMITH225448M40+TITANS4:32:30
1186ROWEIDASAMODIEN178147F40+SH4:32:31
1187JOHANNAVAN DER MERWE107239FOBELL4:32:32
1188MARELIZEEARLE175541F40+NEDSWD4:32:32
1189ANTONJOOSTE172829MOBRACK4:32:33
1190KEVINDE KLERK181828MOHARF4:32:34
1191PAULJONKERS238847M40+BRACK4:32:37
1192ALLISTERROODE227037MOMETLIFE4:32:46
1193JOSESOLIS-PERALTA246546M40+SATORI4:32:46
1194PETERLUDI152645M40+TEMP4:32:48
1195DAVIDKAGAN22561M60+AAC4:33:02
1196ELAINEBARBER63360F60+FHOEK4:33:03
1197BEVSCHULTZ121442F40+DURBAC4:33:12
1198LYDIACHARLES104848F40+TYGER4:33:16
1199MICHAELFAULMANN253055M50+SH4:33:17
1200JAPIELEWIS185650M50+SANDFWP4:33:18
1201GEORGEHILL128946M40+VOB4:33:29
1202MICHELLEBASSON119538FORWFLWP4:33:34
1203NEILARENDSE236241M40+HEWAT4:33:36
1204AMANDAHOWELLS137645F40+FHOEK4:33:41
1205SHARONBULL137844F40+HOUTBAY4:33:49
1206STEPHENABRAHAMS263452M50+TEMP4:33:49
1207COLINWHITE205744M40+FHOEK4:33:54
1208LYNDALLLAVER77129FOSATORI4:33:57
1209DONALDJOSEPH117735MOBRACK4:34:00
1210NICMISPLON183931MOSACS4:34:00
1211RICHARDMEYER262731MOSACS4:34:01
1212MARKPEDERSEN257631MOTEMP4:34:02
1213ZUKILEDUDUMASHE258337MORCSGUGS4:34:05
1214JONATHANMARTIN88140M40+ROCKIES4:34:05
1215PAULVAN ECK75041M40+FHOEK4:34:06
1216JACQUELINELUKIC58637FORWFLWP4:34:18
1217EDWARDSTEVENS181047M40+RWFLWP4:34:24
1218VERNONSMITH258550M50+BRACK4:34:29
1219ADNAANMOHAMED219344M40+TOPF4:34:31
1220RUSSELARENDSE64342M40+CELTIC4:34:33
1221CERENUSPFEIFFER109443M40+STRAND4:34:34
1222SUSANSTEYN85638FONBMSM4:34:43
1223DAVIDSCHEPPENING78433MOPINE4:34:48
1224MICHAELERASMUS208145M40+CELTIC4:34:51
1225JOHNKEMP10362M60+BRACK4:34:55
1226ROBYNLAMB71038FOVOB4:35:03
1227MICHELLEVAN REENEN129847F40+HOUTBAY4:35:05
1228MUSTAQABBAS144335MOTOPF4:35:06
1229JIMMYADONIS124958M50+RCSGUGS4:35:06
1230KAAREJAMES1667M60+PINE4:35:10
1231PIETERROSSOUW255039MONBMSM4:35:10
1232BRIANMITCHELL33256M50+FHOEK4:35:13
1233CHELLAINEGIESKE147440F40+FLORIDA4:35:18
1234TERESAWILSON147544F40+MCCRR4:35:21
1235SASHABODE59926FOMCCRR4:35:24
1236CHRISTINEMILLER168448F40+EDGE4:35:26
1237ROYMCIVER235162M60+EDGE4:35:26
1238LAURIANBARROW18651F50+FHOEK4:35:27
1239HUDDLESTONERABIE165449M40+WORC4:35:27
1240JENNYDA SILVA242950F50+METLIFE4:35:29
1241WANITAGOODWIN61641F40+HARF4:35:32
1242KERRYMCCONNELL189739FOTEMP4:35:34
1243MADRIVAN DER WESTHUIZEN65238FONBMSM4:35:35
1244MICHIELLOUBSER116240M40+SANLAMC4:35:35
1245JOHANNCLAASSEN73431MOSANLAMC4:35:36
1246GARETHROBERTSON219631MOSTELLEN4:35:42
1247ESTERLENELEVENDAL132850F50+INTOUCH4:35:44
1248SONJAKOEHLER81843F40+SSETAC4:35:44
1249MARYBALL103144F40+FHOEK4:35:45
1250SHAMELAEBRAHIM210749F40+KZNSTRI4:35:51
1251JULIANRAMPARSAD211144M40+KZNSTRI4:36:00
1252ROHANGOUWS90849M40+RCSGUGS4:36:15
1253VITALINADE OLIVIERA182642F40+WCOAST4:36:19
1254JAMEELAHMAD80339MOPINE4:36:19
1255ANDREWKARELSE241844M40+DEFWP4:36:20
1256STEVENLEVETT220048M40+EDGE4:36:25
1257RONELLLOMBARD200352F50+BRACK4:36:29
1258BONITAMANUEL135037FOTYGER4:36:31
1259MARKFRANS84642M40+VOB4:36:38
1260ISAKMARTINUS137455M50+ATLANTIS4:36:38
1261CHERILYNVOSSBERG224831FOMATES4:36:41
1262FAYROZKHATIEB129254M50+TOPF4:36:41
1263LLEWELLYNBESTER127445M40+SWART4:36:42
1264SUZANOSBORNE127549F40+SWART4:36:49
1265KEVINKOTZE185037MOATC RC4:36:58
1266RUSSELLHEMMANT136741M40+VOB4:37:08
1267MTHOBISIZUBANE87521MOTEMP4:37:08
1268LOUISBEARDSWORTH70350M50+TEMP4:37:10
1269IRVINFRANKSON263050M50+TEMP4:37:11
1270HEATHERCAMPBELL217620FOFHOEK4:37:15
1271KARENTHORNTON73036FOFHOEK4:37:20
1272DOUGLASRICHARDS240556M50+SH4:37:25
1273OTTO-CARLMARTE194435MOVOB4:37:38
1274YUSUFABRAHAMS33549M40+NBMSM4:37:39
1275ANNE-MARIEHERSCHAP114535FOEDGE4:37:40
1276ANDREDU TOIT79048M40+SANDFWP4:37:43
1277ASHLEYBRAVER80942M40+EDGE4:37:45
1278HESTERFORTUNE195254F50+BRACK4:37:47
1279NATALIEWILLIAMS-ASHMAN59134FOTEMP4:37:50
1280WILFREDSOEGOF249420MOSALKOR4:37:50
1281WAYNETWIGGE108138MOVOB4:37:53
1282HUGHSOLOMON18259M50+HELD4:38:01
1283JACQUELINFLAGG71528FOTEMP4:38:02
1284BERNARDADAMS250940M40+TEMP4:38:02
1285SHELDONBRANDT93340M40+CELTIC4:38:03
1286JOHNHILL33760M60+FOREST4:38:08
1287DENVORPETERSEN206153M50+LBAAN4:38:09
1288DAVIDFINCH152836MOTEMP4:38:10
1289NIKKICAMPBELL218048F40+FHOEK4:38:21
1290FLIPPIEVAN DYK24251M50+EGIJWP4:38:23
1291FRANCOISSWANEPOEL198640M40+HARTENBO4:38:24
1292LARAKRITZINGER185238FOVOB4:38:26
1293ANDREWQUINLAN192244M40+VOB4:38:27
1294ALANFLEETWOOD140852M50+OUTENH4:38:33
1295LIZEBRUWER160929FOSWART4:38:43
1296ADRIAANENGELBRECHT161029MOSWART4:38:44
1297ANTOINETTEENGELBRECHT146549F40+STRAND4:38:46
1298ZAINNODIENBROWN243940M40+TITANS4:38:49
1299SHANCORNELIUS131438MOMPLAIN4:38:50
1300CORNELIUSDE WEE209459M50+TYGER4:38:50
1301MOGAMMADADAMS123047M40+YEBO4:38:51
1302HOWARDDAVIDS19253M50+SANDFWP4:38:54
1303MARGARETMARKS140153F50+HOUTBAY4:38:54
1304TISHSHEARD91245F40+FOREST4:38:59
1305DAVEFOYN103653M50+VOB4:39:01
1306APRILENGELBRECHT137053M50+SALKOR4:39:02
1307SANDILEMYEKI220232MOTEMP4:39:03
1308HILTONFRANCKE70146M40+HELD4:39:07
1309MIKETAYLOR17066M60+STRAND4:39:08
1310FABIANBRANDT208231MOTYGER4:39:10
1311LOYISOMDOLO261828MOTEMP4:39:10
1312DENISEDU PLESSIS125739FOCELTIC4:39:15
1313CHRISDU TOIT111249M40+STELLEN4:39:16
1314MUSSASHAIBU148421MOTEMP4:39:16
1315MONRAYROUX256238MONBMSM4:39:16
1316RIAANBARNARD256332MONBMSM4:39:27
1317IANISAACS139531MOTEMP4:39:31
1318MZOTANDOMTIKITIKI52133MOTEMP4:39:33
1319JOHANNATAYLOR143447F40+FHOEK4:39:35
1320ISMAILABDULLAH160146M40+TOPF4:39:39
1321JEROMEMENTOR231641M40+TOPF4:39:40
1322MINESWART197241F40+NBMSM4:39:41
1323FRANCOISLOEDOLFF95149M40+RWFLWP4:39:43
1324ROBINBUGLER114346M40+WPA4:39:51
1325WERNERDU PLESSIS197734MOSWART4:40:09
1326LYNNETOLSMA119446F40+SATORI4:40:15
1327ESTELLEBOSMAN140645F40+SATORI4:40:18
1328PETRAKING82453F50+SANLAMC4:40:18
1329EDWINKING29559M50+SANLAMC4:40:19
1330FORTUNEAZIZ146949M40+ARD4:40:21
1331ABDUL-MUIZHLEWIN25230MOARD4:40:26
1332SUSANNAKUUN267039FOHELD4:40:26
1333HENKCARSTENS269636MOHELD4:40:27
1334LESLEYFISCHER225048M40+CELTIC4:40:27
1335MALCOLMPIKE155552M50+PINE4:40:33
1336MICHELLEBEDWELL155435FOPINE4:40:33
1337JOHANMAARTENS243643M40+TYGER4:40:37
1338BRUCEBELL145553M50+FHOEK4:40:42
1339CELESTEKOOYMAN254233FOSOUTHS4:40:44
1340SHANEKOOYMAN254734MOSOUTHS4:40:44
1341MARGARETEHEESE97245F40+TEMP4:40:45
1342EDDYWENDZICH234848M40+LBAAN4:40:52
1343MOHAMEDWAGGIE181131MOPICKPAY4:40:55
1344SEANNORTHCOTE209935MOBRACK4:40:56
1345EDWARDMATTHYS243751M50+HEWAT4:40:57
1346DANIELLEDE KOCK55648F40+STRAND4:40:59
1347TORSTENKOEHLER196045M40+TEMP4:41:05
1348DESMONDCOETZER73535MONBMSM4:41:11
1349INGEDU PLESSIS236448F40+VOB4:41:12
1350CHRISVAN NIEKERK74032MOYEBO4:41:15
1351STEPHANIEMOOLMAN141322FOPROFILES4:41:17
1352MICHELLEFOOKWE65543F40+PICKPAY4:41:18
1353ANTHONYMACDONALD159348M40+CELTIC4:41:19
1354NADINEMACDONALD-HOFINGER159134FOCELTIC4:41:22
1355RUSSELLLUDWIG232335MOTEMP4:41:27
1356MARKSOLOMON234238MOTEMP4:41:37
1357JACQUIAHRENDS55348F40+AAC4:41:38
1358SURAYDAVIDS132348F40+RCSGUGS4:41:45
1359SHAMIELFORTUNE188944M40+ITHEKO4:41:45
1360ZAAYDAMANUAL181441F40+OMI4:41:46
1361DAVIDJONES236864M60+SH4:41:49
1362ALBERTHESS261764M60+RCSGUGS4:41:49
1363WANDACARSTENS203349F40+SWART4:41:51
1364FREEDOMGUMEDZE265741M40+TEMP4:41:56
1365JOHNEGAN169248M40+VOB4:41:59
1366MAARTENPRINS146048M40+AAC4:42:00
1367LYNNEWILKINSON146735FOCELTIC4:42:02
1368JOSENELE GRANGE94854F50+PHOBS4:42:02
1369LEENAKAN57048M40+FITWP4:42:03
1370VICTORRAMBAU193538MOEGIJWP4:42:07
1371JCVAN DER WESTHUIZEN140253M50+VOB4:42:15
1372JOLANDAVAN HEERDEN114738FONBMSM4:42:18
1373ALEXANDERHEERSCHAP148041M40+METLIFE4:42:22
1374HUGHWATERS111674M70+WHALERS4:42:23
1375JEREMIAHSAULS252051M50+EGIJWP4:42:27
1376ELNASTIENKOTZE144851F50+BELL4:42:29
1377HELASTREZ240849F40+HARF4:42:30
1378NAASIEFMOHAMED216428MORCSGUGS4:42:48
1379JOHNBURNS92337MOBELL4:42:49
1380CHARLENEMANZONI110535FOBELL4:42:52
1381FIONAHARDNECK85352F50+CERES4:42:54
1382MATTHYSCARSTENS144052M50+WELLING4:42:56
1383LINDACOETZEE170550F50+PINE4:43:00
1384ETIENNEJOOSTE75460M60+STRAND4:43:04
1385PROTASIADLAMINI128335FORCSGUGS4:43:05
1386SAMANTHASCARBOROUGH87740F40+AAC4:43:06
1387COLLINHUMAN232249M40+TELKWP4:43:07
1388CHRISMARAIS120434MOBELL4:43:10
1389WINSTONMIDDLETON255356M50+UWC4:43:12
1390SHAMILJEPPIE211646M40+CELTIC4:43:15
1391CHERYLGROD65141F40+AAC4:43:17
1392MUBEENFAKIER148827MOITHEKO4:43:19
1393GAVINVISSER175340M40+DURBAC4:43:31
1394HENNIELANGE67148M40+DURBAC4:43:32
1395CHERYLBUCKLOW112239FOFHOEK4:43:37
1396VERUSCHKEKOLBE187733FOINTOUCH4:43:43
1397INEZDE VRIES205132FOINTOUCH4:43:50
1398HENDRITERBLANCHE229034MOTELKWP4:43:51
1399LUYANDAMABUYA269531MOCSBOL4:43:51
1400ABRAHAMSYSTER252241M40+TEMP4:43:51
1401CHRISTOPHERHOP250831MOBRAND4:43:59
1402RIAANPRETORIUS261238MODURBAC4:43:59
1403RICHARDLAPPERTS151747M40+TEMP4:43:59
1404DEANLAPPERTS151926MOTEMP4:44:00
1405CHRISTOPHERMANUEL259739MOSANDFWP4:44:04
1406ADRIANDOMMISSE145637MOVOB4:44:11
1407NATHANVAN ROOYEN72035MOMSM4:44:11
1408HENRYWILLEMS224354M50+RCSGUGS4:44:11
1409MARCTISON56148M40+STELLEN4:44:13
1410KHANITARHODE232644F40+STELLEN4:44:23
1411RENEHEFER109648F40+STELLEN4:44:26
1412OLUGBENGAAJAYI209837MOTOPF4:44:28
1413ELMARIEDE BRUIN245846F40+UPING4:44:43
1414LEONCEUSTERMANS56943M40+STRAND4:44:45
1415DAVIDMULLER109552M50+STRAND4:44:47
1416CHRISOSBORN242743M40+TOPF4:44:55
1417TANSWELLASPELLING256425MOTEMP4:44:56
1418PETERWEEKS159958M50+CELTIC4:45:03
1419IRENEVAN DEN BERG234154F50+STRAND4:45:03
1420JULIEMARSDEN131555M50+STRAND4:45:03
1421JACQUESROOS237546M40+DURBAC4:45:17
1422BRIANJACK216857M50+CELTIC4:45:23
1423JENNIFERSMITH260842F40+AIR4:45:24
1424ESMEGATZANIS122742F40+RANDH4:45:27
1425IANREID66246M40+TEMP4:45:27
1426RICKIBORRELL157726MOHOUTBAY4:45:38
1427MARKBORRELL158051M50+HOUTBAY4:45:38
1428SHAWNCOMBRINK222752M50+RAC4:45:39
1429ANDREWSMITH59435MOCELTIC4:45:41
1430KIMJACKSON55030FOFOREST4:45:42
1431DAVIDPITT64742M40+WCOAST4:45:55
1432PAULFAIRHURST131236MOHOUTBAY4:45:55
1433SEANDAVIDS267335MORAVENS4:45:56
1434ANNEWILLIAMS125954F50+PICKPAY4:46:01
1435THEODOREMAFEKING243049M40+DURBAC4:46:13
1436DORANVAN DER VIWDT405437MOTEMP4:46:16
1437ROGERARENDSE75852M50+CELTIC4:46:18
1438NOELWESSELS151051M50+BELL4:46:21
1439MARLETPEARSON246131FOTEMP4:46:23
1440RIANAKARSTEN184033FOUPING4:46:28
1441MAHOMEDAHMED256150M50+TOPF4:46:30
1442PHILCROWSON211351M50+PINE4:46:33
1443GIDEONNEETHLING234946M40+PAARL4:46:36
1444DEIRDREENGELBRECHT249742F40+SAPSWP4:46:36
1445LEONTHELANDER217450M50+TYGER4:46:41
1446GODFREYJULIES24147M40+STRAND4:46:42
1447RICARDOBOSMAN128038MOMUTUAL4:46:43
1448CHRISTIANSCAROL126734FORCSGUGS4:46:43
1449PETERSCHUTTE210254M50+FHOEK4:46:50
1450MICHELLEDE LANGE177144F40+BRACK4:46:51
1451PETERHATHORN147850M50+TEMP4:46:59
1452NICKCALOTHI179535MOGROOT4:47:01
1453ANTONETTEGREENAWAY185938FOTEMP4:47:05
1454FARIEDAWILLIAMS-GHANY21352F50+VOB4:47:07
1455RUDYRAATH267758M50+VODA4:47:09
1456SUSANBRADLEY212345F40+HOUTBAY4:47:11
1457VARSHAGIHWALA153547F40+CELTIC4:47:13
1458DEONVISAGIE147246M40+MPLAIN4:47:32
1459ALISONKOUVARELLIS156523FOVOB4:47:37
1460WAYNELABUSCHAGNE61352M50+VOB4:47:43
1461ISHMETDAVIDSON51745M40+TEMP4:47:45
1462RAFIQISAACS221951M50+PICKPAY4:47:47
1463THEMBINKOSIMHLUNGU196841M40+FITWP4:47:48
1464CHARLESGOREDEMA164549M40+VOB4:47:49
1465THEUNISDE LANGE76039MOMATIES4:47:50
1466DEONCUPIDO183044M40+DURBAC4:47:51
1467CRAIGSTOKELL113740M40+DURBAC4:47:52
1468EDGARISAACS169646M40+ELGRAB4:47:55
1469GERRYDELPIERRE108942M40+RCSGUGS4:47:56
1470MARYANNSCHEEPERS150546F40+STRAND4:47:57
1471RODNEYBRAAF126049M40+SH4:47:58
1472SHERRYCOATES171349F40+NBMSM4:47:59
1473CHARLENEIRWIN93530FORWFLWP4:47:59
1474PETERNAYLOR70558M50+VOB4:48:00
1475WARRENHURD72840M40+CELTIC4:48:01
1476HEINRICHHEYDENRYCH164734MOBRACK4:48:02
1477LIZANNVICTOR154442F40+DURBAC4:48:05
1478MOHAMMADALLI127142M40+ITHEKO4:48:07
1479MARIANNADREYER190550F50+TUKSGN4:48:09
1480GORDONBELL96454M50+FHOEK4:48:15
1481SARAHVEENSTRA66937FOFHOEK4:48:24
1482IGSHAANKENNY147129MOSAPSWP4:48:30
1483LARRYJENKINS182969M60+VOB4:48:39
1484PATRICKSOLOMON151155M50+METLIFE4:48:39
1485MOGAMATPETERSEN186254M50+ITHEKO4:48:40
1486LUNGELOSOLOMBELA58539MOEDGE4:48:40
1487PETERJONES216349M40+WCOAST4:48:44
1488LOUISEROUX156245F40+EDGE4:48:45
1489PIETERCARSTENS175245M40+BELL4:48:54
1490FRANCOISKELLERMAN15461M60+BELL4:48:54
1491WILLIEZEEMAN140465M60+TUKSGN4:49:06
1492MICHELEMURRY73648F40+EDGE4:49:08
1493RICHARDHEALY242653M50+HERBAL4:49:08
1494ANNEMCCANN87358F50+RANDH4:49:10
1495YVONNEPERRY262536FOWCOAST4:49:11
1496THEBEMOKONE261530MOUCT4:49:23
1497DANIEDU TOIT179058M50+PAARL4:49:24
1498THOBILENDZUBE206641M40+RCSGUGS4:49:26
1499DIANNEDUNSTAN158952F50+VOB4:49:35
1500GRANTARBUTHNOT158852M50+SAVAGES4:49:40
1501GORDONKERSHAW227452M50+WCOAST4:49:43
1502JOPPIEFISCHER154345M40+LBAAN4:49:50
1503HAROLDVAN DER POOL212951M50+TYGER4:49:50
1504JENNYBRADSHAW149733FOVOB4:49:59
1505JOHANLE ROUX176361M60+BRACK4:50:00
1506JOHANBOONZAAIER239249M40+NEDWP4:50:12
1507STEVENCLARKE197441M40+SATORI4:50:16
1508FRANSMARAIS231153M50+BRACK4:50:16
1509INGEREISSENZAHN174239FOPINE4:50:20
1510KARENERVENS53146F40+PICKPAY4:50:34
1511PETERKEITZMAN202639MONBMSM4:50:37
1512IRVINTSELANE133830MOWCOAST4:50:39
1513STEVEMAITLAND98950M50+FHOEK4:50:39
1514HUGHPARRY269462M60+RWFLWP4:50:41
1515CORNELUISKELLERMAN146853M50+HELD4:50:43
1516SCHALKVAN DER LINDE130658M50+STRAND4:50:43
1517ERNATHERON100927FOTEMP4:50:44
1518BARBARAKINGSLEY84340F40+PINE4:50:47
1519LESLEYMATTHEWS153451F50+RWFLWP4:50:49
1520ASHLEIGHEDWARDS231841F40+VOB4:50:57
1521BARBARAJOHNSTON-READ23752F50+AAC4:50:59
1522LESLINEMCGLENATENDOLF106150F50+VOB4:51:05
1523GRAEMEMANNE87131MOCELTIC4:51:08
1524QUENTINBENJAMIN111848M40+RCSGUGS4:51:12
1525PATRICKDLANGAMANDLA111454M50+CELTIC4:51:13
1526DOUGCAMERON15965M60+SH4:51:14
1527JOHANSTEYN206244M40+BRACK4:51:14
1528PEARLRONDGANGER204250F50+TELKWP4:51:15
1529WARRENPELSTON176634MOEGIJWP4:51:19
1530CAJSAMEINTJES156436FOLBAAN4:51:27
1531ROBMEINJIES156342M40+LBAAN4:51:28
1532CECILMANUEL233052M50+METLIFE4:51:32
1533INGRIDLOUW146151F50+AAC4:51:35
1534GEORGEREISSENZAHN174142M40+PINE4:51:36
1535MARTINSBEETS231366M60+LBAAN4:51:37
1536COLLINSEDEMAN227547M40+AAC4:51:41
1537KURTCOLLISON221438MOCELTIC4:51:44
1538DAVIDCHARLES151646M40+RAVENS4:51:47
1539MARTINKOCH81944M40+VOB4:52:01
1540DAVIDCONRADIE133557M50+SSETAC4:52:14
1541ANGELICLOVE172130FONEDWP4:52:14
1542LIEZELCOETZER108332FOATC RC4:52:15
1543MARIZAHNLANDMAN97026FOTEMP4:52:15
1544RIDAAKHAN167527MOITHEKO4:52:25
1545RICHARDBERRY85537MOTEMP4:52:31
1546MICHAELFICHARDT211736MOTEMP4:52:31
1547BONTIAJONES216242F40+WCOAST4:52:44
1548RENEGOULD183632FOEDGE4:52:44
1549MOHAMEDOSMAN218359M50+TOPF4:52:46
1550AVRILDE LAPELIN DUMONT90766F60+WCOAST4:52:46
1551JHANAKNOETZE139728FONBMSM4:52:46
1552CELESTEUYS131127FONBMSM4:52:48
1553CAROLINEWYATT51144F40+TEMP4:52:52
1554SAVILLERIBERTS59040M40+JAGUARS4:52:52
1555BARRYSHAMLEY52735MOCELTIC4:52:53
1556CHRISTASIEBRITS53746F40+WHALERS4:52:53
1557NADINESWART185434FOVOB4:52:57
1558COBUSOOSTHUIZEN88332MONBMSM4:52:58
1559MARLIZEJELLIMAN99225FOTEMP4:52:58
1560ERROLDAVIDS214656M50+TYGER4:53:04
1561NAZIERKHAN56236MOTOPF4:53:08
1562SHEILAHEIDEMAN166943F40+METLIFE4:53:09
1563FIETIEROCHER119335MOTEMP4:53:09
1564POMPIESV NIEKERK166047M40+TEMP4:53:11
1565ANDYCAMPBELL218447M40+FHOEK4:53:12
1566ISMIALSHAIBU122838MOTELKWP4:53:14
1567HILLARYOSBORN242844F40+TOPF4:53:21
1568DELYSERIST84048F40+PINE4:53:21
1569CHALDENEMISROLL238537FOPINE4:53:24
1570EBRAHIEMDARIES240144M40+FARNESE4:53:32
1571MAITELETSHIFULARO253241F40+PINE4:53:35
1572ERNSTNEETHLING249248M40+WORC4:53:36
1573ROGERSMITH145160M60+CELTIC4:53:36
1574JULIANBULL137748M40+TEMP4:53:47
1575DAWOODFORTUNE90356M50+TOPF4:53:48
1576REINERVAN DEN BERGH69944M40+HOUTBAY4:53:52
1577GRAHAMBOTHA230357M50+HOUTBAY4:53:53
1578SYLVIACROTZ142756F50+HELD4:53:54
1579JEFFREYSHAPIRO214933MOVOB4:53:55
1580EBRAHIMHASSEN211546M40+TOPF4:53:55
1581MASIXOLEMAQOTANA180532MOTEMP4:53:57
1582WILLIAMSHAW178567M60+TYGER4:53:58
1583ABUMOWLANA97545M40+ITHEKO4:53:59
1584INSAFKAMISH168235FOITHEKO4:53:59
1585ELAAMANDERSON226346F40+TOPF4:54:01
1586MUSHTAQRAHIM164246M40+TOPF4:54:02
1587STANLEYMUSHANGANYISI258035MOPINE4:54:03
1588FERIALJOHAAR179452F50+TOPF4:54:08
1589ANNMARGOLIN14859F50+CELTIC4:54:08
1590GERHARDRADEMEYER27146M40+BRACK4:54:09
1591MARTINRIX25544M40+SAPSWP4:54:13
1592STUARTMCCONNELL189942M40+TEMP4:54:17
1593DEONDE VILLIERS246849M40+TEMP4:54:20
1594CHRISKASFIKIS201248M40+FHOEK4:54:24
1595TERTIADE WAAL144737FOSTELLEN4:54:26
1596SANDILENDIMANDE101636MOSTELLEN4:54:43
1597CHRISTAUNGERER157629FOSTELLEN4:54:45
1598FERDIEUNGERER157928MOSTELLEN4:54:46
1599KEVINCLENCH255644M40+WCOAST4:54:51
1600ANELENDZUTA259431MOADIDAS4:54:52
1601MARTINSCOTT134340M40+BELL4:54:52
1602MAGEDIETHEUNISSEN146252M50+TOPF4:54:52
1603EDDIEMILES182470M70+RAC4:54:53
1604TRACEYGHIARONI221843F40+SH4:54:57
1605ANVERYASIN125353M50+TOPF4:54:58
1606WAYNEGROEPIES127938MOATLANTIS4:54:58
1607ALBERTSAULS240344M40+WORC4:55:00
1608NICOMANTHEYS240634MOBDOWNS4:55:01
1609KYRASOLOMON242148F40+BRACK4:55:03
1610CATHERINEFUTTER63732FODURBAC4:55:04
1611ROGERWISEMAN120036MOFOREST4:55:06
1612CHRISDOYLE168138MOFOREST4:55:08
1613DARRYLCOOKE164937MOWPCC4:55:09
1614SONIAHUMAN111753F50+SOMEAST4:55:10
1615PATCOLTMAN178657F50+SSETAC4:55:14
1616FRANKFOURIE170451M50+DEFWP4:55:14
1617FREDERICKKRUGER169465M60+AAC4:55:18
1618EDWARDARENDSE170662M60+OLDMUT4:55:20
1619MICHAELKRUGER21252M50+SH4:55:35
1620HULIMOLIEA115235FOMANONI4:55:38
1621JEANDU TOIT114839MOTEMP4:55:44
1622NATASHAVAN WYK135341F40+TYGER4:55:44
1623DWIGHTLAWRENCE135427MOTYGER4:55:52
1624ABDUL-AZIZDOLLIE138736MOCGA4:56:00
1625NOMAWETHUNIKA235235FOHOUTBAY4:56:01
1626MOHAMEDHAMDULAY72641M40+TOPF4:56:05
1627MICHAELHEATH148744M40+WELLING4:56:06
1628BULELWASTWAYI106733FOTYGER4:56:07
1629CHARLENEMAARTENS243441F40+TYGER4:56:07
1630RODGERBROWNE233437MOPINE4:56:10
1631EDWARDGLUCKMAN227638MOTEMP4:56:13
1632ANNTALJAARD135549F40+SAPSWP4:56:15
1633EUGENELEKAY196246M40+BRACK4:56:19
1634DERICKJOHANNES69751M50+SH4:56:22
1635JANETDU PLOOY138141F40+SANDFWP4:56:23
1636FRANKMALLOY253353M50+HELD4:56:23
1637PATRICKMADDEN100642M40+SH4:56:25
1638MAHLATSIMOVUNDLELA171030MOMANONI4:56:26
1639MARGIEKSTEEN58455F50+STRAND4:56:29
1640CHRISTINEFOURIE113837FOSATORI4:56:31
1641CLIFFORDRHODE194947M40+BCSAC4:56:32
1642CALVINDIRKS226538MOMETLIFE4:56:36
1643JOHNEKSTEEN267547M40+METLIFE4:56:39
1644CATHYHUMPHRY54050F50+AAC4:56:54
1645MOESHARRAFAMAJIET77649F40+OMI4:56:56
1646GOZYNALLIE254450M50+ODRAAI4:56:59
1647ALVINKHAN216738MOVOB4:57:00
1648PATRICKPETERSEN217263M60+BDOWNS4:57:04
1649EDITHSAMPSON138250F50+WELLING4:57:04
1650DANIELMALAN56538MONBMSM4:57:10
1651MALCOLMMARKS29354M50+WCOAST4:57:11
1652JEFFREYMARTIN245157M50+TYGER4:57:13
1653NOZIPHOBONGELO161541F40+EGIJWP4:57:15
1654RAGMAHABRAHAMS201338FOHELD4:57:16
1655RONALDVAN VEEN144252M50+DURBAC4:57:16
1656CHARMAINENICKS54247F40+AAC4:57:17
1657FREDRIKHAGELBERG226837MOTEMP4:57:20
1658NICOLAFORGAN118926FOFHOEK4:57:22
1659THEABOTHA267851F50+BRACK4:57:34
1660MONIQUEVAN HEERDEN210036FOBRACK4:57:36
1661PETERMEYER259255M50+MPLAIN4:57:40
1662ROBBIEGONSALVES74148M40+HARF4:57:40
1663MARKCLOETE195148M40+INTOUCH4:57:43
1664CHRISTIANMATHEWS202058M50+ATLANTIS4:57:50
1665RICHARDJAHNIG89944M40+VOB4:57:51
1666ROYTOMLINSON223563M60+SH4:57:54
1667GERRITGELDENHUYS88740M40+SANLAMC4:57:55
1668ANDREHUGO84542M40+TITANS4:57:56
1669DEONHEUBNER189442M40+TITANS4:57:57
1670GODFREYSEPTEMBER207035MONEDWP4:57:58
1671LYNNMACKENZIE96247F40+SSETAC4:58:01
1672ZUBEIDALIPPERT129447F40+CELTIC4:58:02
1673SIRAJANTHONY193136MOYEBO4:58:05
1674ALISTAIRSPRINGFIELD217147M40+TEMP4:58:09
1675SHAUNFUCHS97939MONEDWP4:58:10
1676NICOLAKANNEMEYER151236FONBMSM4:58:25
1677RICHARDHAMMILL213751M50+PDMC4:58:25
1678LINDASYFORTUNE193852M50+TOPF4:58:28
1679ABOUBAKARABRAHAMS128643M40+TOPF4:58:33
1680JOHANLINGENFELDER264637MOBELL4:58:35
1681ANVIRLOGENSTEIN242245M40+EAST4:58:51
1682MICHAELMTIWETAFA112538MORCSGUGS4:58:57
1683LEE-ANNEJONES196728FOBRACK4:59:04
1684ROCHELLEMCCARTHY252747F40+BRACK4:59:06
1685LAURETTEVAN DER MERWE260445F40+TELKWP4:59:07
1686DERRICKRONDGANGER204054M50+TELKWP4:59:08
1687MALCOLMHAYE104746M40+METLIFE4:59:11
1688ANGUSKLEINSMITH16950M50+SH4:59:12
1689TANIAMEHL60140F40+CELTIC4:59:16
1690HERMONHESS223344M40+MPLAIN4:59:16
1691BETINADE ARAUJO80040F40+EDGE4:59:19
1692BELINDAHALL149048F40+EDGE4:59:20
1693ROBINDENNIS163564M60+EDGE4:59:21
1694CLAUDINEMENTOR231741F40+TOPF4:59:23
1695VANESSADU TOIT243832FOCPUT4:59:24
1696ERICHSCHOLTZ243344M40+CPUT4:59:29
1697NYANISOQWESHA116034MORCSGUGS4:59:30
1698JANEENDE KLERK87450F50+MAG4:59:31
1699MERVINSMITH205556M50+TITANS4:59:34
1700EVARIENHARDT68348F40+NEDWP5:00:01
1701SANDRAJONATHAN186445F40+STRAG5:00:01
1702ELMARIESMEDEMA199146F40+NBMSM5:00:02
1703EUGENEDE KOCK222132MOTOPF5:00:13
1704MARYAUSTIN137239FOTITANS5:00:15
1705ROVAANFAURE221640M40+TOPF5:00:21
1706PAMELACHARLES191254F50+TITANS5:00:24
1707MIRANDAWHITLEY192734FONBMSM5:00:29
1708ROSETTESCHEEPERS191143F40+TITANS5:01:05
1709TERENCESEPTEMBER100241M40+SH5:01:07
1710MEGHOLTZHAUSEN113536FOTEMP5:01:08
1711ANDREWFORTUNE263847M40+METLIFE5:01:20
1712CHRISTOPHERJONKER107147M40+ATLANTIS5:01:24
1713DOUGLASTAFT244248M40+VOB5:01:25
1714MARTHAKNOETZE156742F40+WORC5:01:26
1715MUJAHIDBOOLEY153639MORCSGUGS5:01:50
1716TIMOTHYRIPSOLD194540M40+NBMSM5:02:00
1717JOHNKOLBE219853M50+METLIFE5:02:03
1718GALIELJARDINE80144M40+ITHEKO5:02:04
1719DELENEWALLER158351F50+PINE5:02:16
1720MAWETHUNCACA260036MOTEMP5:02:49
1721JALALALLIE62254M50+TOPF5:02:50
1722ACHMATSALIE225656M50+ARD5:02:53
1723MERVYNSTEVENS137944M40+TEMP5:03:28
1724MAXIMILIANWIMMER118860M60+AAC5:03:32
1725JCTHESNAAR258827MOAAC5:03:33
1726KIMCRAIG223437FOSH5:03:53
1727CINDYCHAITEL180933FOCELTIC5:04:01
1728SUBRAMANYENGEL197954M50+SALKOR5:04:18
1729DESMONDKLUE153242M40+SAPSWP5:04:36
1730HENRYFRITZ127233MOTYGER5:04:39
1731EHSANSHABODIEN170255M50+ITHEKO5:05:04
1732MOEGAMATSAMBO224939MOTOPF5:05:13
1733ROZETTAHENDRIKSE227847F40+HELD5:06:24
1734JOHNCHILD83960M60+SH5:06:25
1735PHUMINHLAPO112737FOWCOAST5:07:35
1736BENHATTINGH186061M60+YEBO5:08:00
1737GABRIELETOERIEN68134FOBELL5:08:01
1738BEVINTHYS78737MOCELTIC5:08:09
1739JANPIENAAR169326MOPIR5:08:10
1740JELITTEFRITZ224540F40+EAST5:08:47
1741WESLEYBLOCK267121MOTEMP5:08:52
1742HENRYADAMS265059M50+MPLAIN5:09:29
1743MANOLAMKABELA159449M40+CSWPA5:09:48
1744LIEZELMATTHEE180238FOSTRAND5:10:16
1745ALLANGODFREY152442M40+TITANS5:10:48
1746BASILMASHAPPIE218747M40+AAC5:11:14
1747LINDELAMADIKIZELA197637MODEFWP5:11:14
1748ZAITOONKATHRADA82355F50+TOPF5:11:22
1749FLORENCETHOM55752F50+WAND5:11:23
1750MNCEDISIAPRIL171134MORCSGUGS5:11:36
1751JOHANPRETORIUS157253M50+OUTENH5:11:48
1752NEZAAMISAACS107440M40+ITHEKO5:11:51
1753ZAAHIEDAISAACS107536FOITHEKO5:11:52
1754ANTHONYCRONJE12156M50+VOB5:12:10
1755KARDEBUYS209248F40+DURBAC5:12:45
1756GERRYGROLL254165M60+AAC5:12:52
1757MARLENEHIRSEKORN83748F40+VOB5:13:06
1758LAURENMCCARTHY98131FOAAC5:13:19
1759ANDREDE GOEDE251065M60+TEMP5:13:20
1760LESLIECHAPMAN219763M60+SH5:14:09
1761WENDYADAMS173549F40+RCSGUGS5:14:13
1762RUSTUMSOLOMON186742M40+ITHEKO5:14:53
1763AFRICANVOLKWYN269255M50+ELGRAB5:14:54
1764DEREKFOSTER199261M60+PINE5:15:23
1765PIETERKARSTEN193635MOUPING5:15:48
1766SALIEMOOS214850M50+TELKWP5:15:54
1767NTEVHETSHIVHASE115436MOMANONI5:15:59
1768ISAACMCCLOEN112043M40+SAPSWP5:16:27
1769ROSEMARYMOSIA127343F40+CENTURY5:16:53
1770EBRAHIMMOEGSIEN50151M50+NBMSM5:17:26
1771SUSKASNYMAN169746F40+NAMAQ5:17:49
1772WALTERPETERSEN85254M50+RWFLWP5:17:53
1773MARTINSPEIER246755M50+ROCKIES5:17:56
1774MICHAELMALLON21067M60+PINE5:18:42
1775MARCELLELE ROUX75552F50+STRAND5:18:47
1776LIONELTOLL230037MORCSGUGS5:19:06
1777GAYETHORPE185738FOTEMP5:19:27
1778MARIUSLEUVENNINK107953M50+STELLEN5:19:36
1779CHRISTOPHERMEYER263565M60+TYGER5:19:38
1780HILTONHENNING179951M50+CELTIC5:19:49
1781THURSTONKHAN96047M40+PICKPAY5:20:57
1782REYAADACKERDIEN171837MOITHEKO5:21:10
1783LINDASWART241555F50+FHOEK5:21:14
1784DANNYSQUARE253157M50+HELD5:22:26
1785ANNARIENEL215654F50+WHALERS5:23:34
1786JEANBURGHER124748F40+PINE5:23:38
1787SAMUELBARON175450M50+TELKWP5:23:48
1788PAULADAMS233136MOVOB5:24:11
1789SAMIEGADAMS187030MOYEBO5:24:40
1790ROBERTKORB76457M50+EDGE5:27:55
1791WILHELMBESTER245446M40+WELLING5:28:15
1792DERRYDEVINE29775M70+VOB5:29:05
1793DUNCANISAACS208542M40+MUTUAL5:29:10
1794LODICRONJE113640M40+TEMP5:29:39
1795MIKESTEWARD35469M60+VOB5:29:39
1796DONFISHER207450M50+TYGER5:29:39
1797MICHELLECUPIDO157843F40+PINE5:29:39
1798MARISHATROUT168840F40+PAARL5:30:04
1799RICHARDMASELA202437MOPAARL5:30:04
1800PORCHIACHRISTIANS254542F40+BDOWNS5:30:05
1801MZIKAYISEMAY95429MOTEMP5:30:47
1802ANDREAVINK88837FOINTOUCH5:30:47
1803SARAHMARTINS249852F50+METLIFE5:31:01
1804ROGERCARDOZA247528MOTEMP5:31:10
1805BENNIEVAN ALMELO201142M40+TYGER5:31:31
1806WERNERTHETARD115739MOHOUTBAY5:31:32
1807IRAFAANABRAHAMS175940M40+ITHEKO5:31:57
1808JACOBUSVAN WYNGAARDT142646M40+TELKWP5:32:20
1809MOGAMATALLIE256052M50+ODRAAI5:32:25
1810SAADIAISMAIL230152F50+KZNSTRI5:32:49
1811REZAEBRAHIM229944M40+TOPF5:32:53
1812SHIRLEYQUINLAN192453F50+VOB5:33:29
1813LEANORTON266655F50+RCSGUGS5:33:35
1814JOHNSIMS150966M60+TITANS5:33:47
1815MELANIESHIRK128147F40+VOB5:33:49
1816NOROOISIKUNANA105035FOCELTIC5:34:15
1817DAVETHOMAS210345M40+BRACK5:34:53
1818FRANCOISRAATH66532MODURBAC5:35:49
1819ABUBAKRMARCUS217371M70+ARD5:37:17
1820RALPHKEYS252638MOTEMP5:37:59
1821LESLIECLARKE265653M50+METLIFE5:39:16
1822SALWAHMARLIE194137FOITHEKO5:39:27
1823FATIMAHJACOBS145051F50+ITHEKO5:39:28
1824DENISEHERDIEN204450F50+EGIJWP5:39:34
1825JOYRIVIERA79356F50+SH5:40:35
1826ANTHONYHARKER152341M40+TITANS5:41:02
1827FRIKKIECARSTENS203048M40+SWART5:41:03
1828LIONELABRAHAMS208061M60+MUTUAL5:41:24
1829RENEDICK219946F40+VOB5:41:25
1830NAZEEMAHFELDMAN32354F50+SH5:41:36
1831JONATHANMAREE230542M40+EAST5:42:04
1832ELAINEJACOBS238253F50+TEMP5:42:05
1833PAKAMILEMADONCI263239MOTEMP5:42:06
1834CHRISTIANNICHOLLS207762M60+NEDWP5:42:20
1835JOCHENABB52062M60+TEMP5:42:55
1836GILBERTHHOWBURG187446M40+ACSA5:42:56
1837COLLEENARENDSE134031FOPINE5:43:45
1838ELENAABRAHAMS262934FOTYGER5:46:02
1839TERENCESTRONG79857M50+TEMP5:46:14
1840TISHFOURIE158122FOLEGACY5:47:10
1841MATTHYSFOURIE158223MOLEGACY5:47:11
1842SAMUELMILNER3979M70+SH5:47:51
1843JEANNINECHRISTIE176045F40+RWFLWP5:48:12
1844CECILDRAMAT128756M50+TITANS5:49:35
1845KOERTMEYER132564M60+TYGER5:49:46
1846GLENVILLEKINNES185548M40+TEMP5:49:47
1847CHERYLLEWIS142241F40+HELD5:50:10
1848PAULMATTHEWS261445M40+TYGER5:50:11
1849MARIANNENELSON179667F60+DURBAC5:50:57
1850ELIZKAHENDRIKSE25640F40+DURBAC5:51:38
1851MARINADE KOCK180053F50+DURBAC5:51:39
1852BERNIELATIMER206741F40+DURBAC5:51:39
1853FLORENCEGROENER105544F40+DURBAC5:51:39
1854ABRAMMADIEHE191843M40+RAVENS5:51:44
1855JOSEPHSAULS30655M50+TITANS5:52:17
1856GARYHARRIS254945M40+METLIFE5:53:53
1857KEITHSOLOMON124849M40+PINE5:53:59
1858TREVORBUSBY32060M60+METLIFE5:54:35
1859EUGENEVINK115840M40+INTOUCH5:55:25
1860CASSIEMMADATT257138MOOMI5:57:48
1861JOANSAULS249150F50+EGIJWP5:57:50
1862TALONJACOBUS214330MOYEBO6:00:45
1863CILLIAMPHEPHU69438FOTOPF6:00:46
1864JONATHANPETERSEN116945M40+MUTUAL6:07:31
1865FATIMANIEUWENHUIS84263F60+TOPF6:08:23
1866EBRAHIMJACOBS126345M40+CENTURY6:15:23

Half Marathon results (21.0975 km)

PlaceNameLast NameNoAgeSexCatClubTime
1LINDIKHAYAMTHANGAYI453631MOMPWP1:10:17
2MTHANDAZAQHINA406133MORCSGUGS1:11:58
3SITYHILODIKO451520MOADIDAS1:13:28
4RIAANWITBOOI435928MOEERSTE1:15:32
5GRAHAMKATZEN309840M40+CELTIC1:15:52
6RICARDOJAFTHA397323MOEERSTE1:16:48
7WANDARORO448821MOADIDAS1:17:26
8NELSONBASS448732MOUCT1:17:27
9JOHNNYPERSENTS372646M40+ADIDAS1:20:58
10ZONDWANOMBEXEZA415027MORCSGUGS1:21:16
11DAMIANWILL412824MOPINE1:22:48
12RICHARDWOOLRICH355132MOCELTIC1:22:53
13JESSEPETOORS448221MOEERSTE1:23:03
14CHRISTOPHERMITCHELL305949M40+CELTIC1:23:12
15MALCOLMPRINGLE435832MOPICKPAY1:24:32
16OLOFFVAN ZYL403641M40+VOB1:24:58
17MIKEODONOVAN398242M40+VOB1:25:18
18ALANMATTHEWS382232MOVOB1:25:59
19NEILQUAYLE438532MOTEMP1:27:07
20ALEXANDERPAGON361328MOTEMP1:27:29
21CHARLESPAULSE447232MOEERSTE1:27:37
22NOMVUYISISETI434429FOCELTIC1:28:00
23MICHAELJOSEPH444129MOTEMP1:28:31
24MICHAELLOSEBY401922MOUCT1:28:51
25PIERREEVARD336843M40+AAC1:29:26
26MALCOLMHALL328238MOTEMP1:29:27
27BULELWASIMAE355533FONEDWP1:29:30
28ABREJORDAAN449442M40+STRAND1:29:44
29HELENEPEROLD389926FOADIDAS1:29:52
30STEPHENJAMES363523MOUCT1:31:05
31ZUBSHARNEKER451329MOTEMP1:31:07
32CARLPAUL339320MOUCT1:31:09
33MUHAMMADKRIEL445857M50+NEDWP1:31:20
34BRUCELIDDLE305240M40+CELTIC1:31:48
35VUKILESKOTI394932MONEDWP1:34:27
36ENRIQUEHAVENGA388417MOWORC1:34:28
37ANDREPANDY419044M40+TEMP1:34:40
38SUZANNEMARAIS449345F40+STRAND1:34:46
39SALIHSOLOMON424830MOTEMP1:34:50
40ALLANMCCREADIE383033MOTEMP1:35:09
41MOGAMAD-SALIEGSALIE348842M40+TEMP1:35:19
42PIERSSTEAD401643M40+WPCC1:35:19
43RUDYVEY424349M40+VOB1:35:21
44JASONGROENEVELT306934MOTEMP1:35:29
45PHAPANGCHAKANA332732MOSH1:35:57
46MATTHEWHENSHALL334520MOUCT1:36:04
47WESSONANEL374936FOTEMP1:36:06
48REAGANBOOYSEN399023MOSTELLEN1:36:11
49DANEGODWIN419322MOTEMP1:36:12
50MANFREDNAKAMBARE383230MONAMAQ1:36:17
51EIONELS385135MOVOB1:36:18
52ADAMBOTHMA426323MOTEMP1:36:26
53DAVIDTALBOT393335MOTEMP1:36:30
54DESMONDFRECTHAS388152M50+DEFWP1:36:38
55GERHARDVISSER432349M40+BENNOR1:36:44
56PETERHUGO343422MOUCT1:37:36
57CHANTELSIMPSON384741F40+NEDWP1:37:39
58JACOVAN ZYL410743M40+VOB1:37:40
59EDWARDPIETERSE447333MOEERSTE1:37:42
60HANNESGELDENHUYS317728MOTEMP1:37:54
61RONELLEMARSHALL310341F40+VOB1:37:55
62PAULKELLY423646M40+RWFLWP1:37:56
63PATRICKGORDON405527MOTEMP1:38:02
64STEPHENTAYLOR377128MOTEMP1:38:05
65JACQUESTHERON323828MOTEMP1:38:25
66MARIAHBARSTOW393520FOTEMP1:38:25
67MOKWAIMOLETSANE440328MOSANDFWP1:38:40
68KOBUSVAN SCHALKWYK405743M40+MATIES1:38:44
69LIZVERHEYDEN339427FOTEMP1:38:45
70JONATHANWESSON374837MOTEMP1:38:46
71BRENTJANARI326227MOTEMP1:38:47
72PROTASIUSMUKUVE383325MONAMAQ1:38:56
73EVERHARDVAN DER WESTHUIZEN439626MOSTELLEN1:39:02
74NEILJACKSON418546M40+WPCC1:39:13
75ROBBAIRD389029MOVOB1:39:20
76GREGCALE345741M40+VOB1:39:22
77THYSBOUWER360055M50+SANLAMC1:39:43
78AWIEDE SWARDT370335MODURBAC1:39:48
79BYRONASCOTT-EVANS362923MOTEMP1:39:49
80MADRESTEENKAMP399233FOMETLIFE1:40:02
81BEVCHARTERS358653F50+VOB1:40:11
82JUSTINCROWHURST308240M40+SATORI1:40:20
83HEIDIVAN DE MERWE314133FONBMSM1:40:21
84TRACYFORBES394438FOVOB1:40:38
85PARRYCHARLES364751M50+PINE1:40:39
86JEAN-PIERREVAN HEERDEN306739MOCELTIC1:40:46
87CLINTONKELLY325232MOFOREST1:41:07
88DYLANGROBLER349420MOTEMP1:41:14
89SHAUNMCPHERSON323932MOYEBO1:41:16
90NICHOLASOBREE305130MOPICKPAY1:41:19
91MAURICEMARINUS446231MONBMSM1:41:27
92WALTHERGROENEWALD365342M40+HELD1:41:32
93RAEEZHENDRICKS305424MOITHEKO1:41:35
94MLAMLIMABULU440635MOEDGE1:41:36
95ASHWINSILVER412241M40+CSWPA1:41:41
96MARKFARRELL367439MOYEBO1:41:46
97SEANLUZMORE337236MOVOB1:41:48
98ANDREFERREIRA192926MOPINE1:41:51
99MARKSMIT375245M40+WCOAST1:41:55
100GIDEONGRANVILLE375334MOAAC1:42:00
101TALIANORVALL358523FOATC RC1:42:11
102ALLANRYNINKS398353M50+HARF1:42:17
103REECEMAHARAGE397520MOUCT1:42:36
104CHARMAINECUPIDO326355F50+NEDWP1:42:46
105MARLONPRRING302934MODURBAC1:42:52
106BRYNKASS447120FOTEMP1:42:53
107AMICHALONTE392432FOTEMP1:43:00
108CARINAVILJOEN374642F40+TEMP1:43:01
109JOHNGILLMER343037MOVOB1:43:15
110MARKNEEL312525MOTEMP1:43:21
111JOHANIMMELMAN427339MONBMSM1:43:35
112MARKTAIT395622MOTEMP1:43:41
113KATHRYNLEEK346629FOTEMP1:43:45
114TERENCESOUTHAM357835MOTEMP1:43:48
115SLOETHAVINGA365229MONBMSM1:43:58
116JILLWALKER369745F40+VOB1:44:02
117JOTRAFFORD303538MOSATORI1:44:09
118GUYFANN318350M50+VOB1:44:17
119ROALDBESSELAAR389846M40+TEMP1:44:21
120JOHNSEARLE408542M40+TEMP1:44:25
121JAKESJACOBS344751M50+STRAND1:44:25
122WARRENPEARCE300934MOAAC1:44:56
123TIMOTHYABRAHAMS300828MOTEMP1:44:59
124PIETERSMITH301831MODURBAC1:45:11
125TERRANCEMAZZOLINI415655M50+VOB1:45:15
126LEONARDOOSTHUIZEN401845M40+STELLEN1:45:16
127PAULWILES303832MOTEMP1:45:28
128ANDRERHOODE336639MOTEMP1:45:29
129MUDODANGAMZA443320MOTEMP1:45:38
130MANDISINDZOMBANE425825MOPINE1:45:39
131LEONJANSE VAN RENSBURG373918MOHANG1:45:50
132SA-AADATPARKER365530MOSTRAND1:45:52
133JACOBSSULAIMAN392124MOITHEKO1:45:52
134BERNARDVAN DER POLL330441M40+VOB1:45:53
135DONVEPEARCE418927FOCENTURY1:45:59
136DOMINIQUELEIBBRANDT352321FOUCT1:46:00
137JAMESBOSENBERG374523MOTEMP1:46:01
138LESLEYGIBSON406735FOTEMP1:46:01
139PIETERROUX438640M40+NBMSM1:46:06
140JAMESBHANA424060M60+TEMP1:46:07
141PETERHUGHES323048M40+WPCC1:46:08
142MARLIZEVAN SCHAIK365735FONBMSM1:46:10
143BRIDGETVAN BREDA364836FOWPA1:46:16
144FRANKLINZINN403854M50+VOB1:46:20
145MICHAELDE VRIES379626MOTEMP1:46:30
146JANETADAM395938FOHARF1:46:41
147SADEQFATAAR425020MOCPUT1:46:43
148M RAFEEQSALIE427123MOODRAAI1:46:51
149MARCCORNWELL418729MOTEMP1:46:59
150STEVEBENHAM300344M40+TEMP1:47:07
151WOJCIECHKRZEMINSKI400922MOUCT1:47:11
152RIDHAHARTLEY416035MOTEMP1:47:13
153BRIANMUNDIE346944M40+BRACK1:47:17
154RUSSELLSMEDLEY442128MOTEMP1:47:18
155SEBASTIANRAUS354128MOTEMP1:47:29
156DAVIDHOWARD332039MOTEMP1:47:37
157CAILEYBREDENKAMP333347F40+PAARL1:47:41
158WILLEMVISAGIE415939MONBMSM1:47:45
159RIAANALDRICH340929MOTEMP1:47:47
160BERNIESMITH352255M50+EDGE1:47:53
161VERNONGALP437541M40+TEMP1:48:08
162OLIVERWOLF367750M50+TEMP1:48:10
163PETERJOHNSTONE351458M50+SANDFWP1:48:13
164JENNYCLOSE325633FONBMSM1:48:22
165KABELOMOGOIWA442431MOTEMP1:48:23
166DALEHARRISON364941M40+VOB1:48:27
167MUJEEBKAJEE441629MOITHEKO1:48:38
168TANYAPOSTHUMUS - FOX321730FOTEMP1:48:39
169PETERCOMMIN400741M40+OLDMUT1:48:55
170DOUGLASDUMBRILL328042M40+CELTIC1:49:04
171HEINRICHBADENHORST417726MOVOB1:49:07
172FAHEESBENJAMIN404134MOITHEKO1:49:09
173RICHARDBEDFORD341540M40+TEMP1:49:15
174ROYHANNINGTON410023MOTEMP1:49:15
175ROBERTOBREE426125MOTEMP1:49:16
176AJITDAYA324237MOWPCC1:49:23
177BIANCAMARAIS315235FOEDGE1:49:23
178BRUCEJANSE VAN RENSBURG379840M40+TEMP1:49:25
179TIMHENSHALL334238MOTEMP1:49:39
180KEATONODDY378528FOTEMP1:49:42
181MBULELOMADLOLO440530MOEDGE1:49:42
182ROMEOCARELSE404740M40+TEMP1:49:42
183ROBYNHOPKINSON335335FOTEMP1:49:50
184ANTHONYAUBIN414341M40+TEMP1:49:51
185PIERREVAN NIEUWENHUIZEN395546M40+AAC1:49:51
186ALEXAPEARCE393822FOTEMP1:49:54
187STEVENRICHARDSON304064M60+SATORI1:49:55
188AARONNDHLUNI428647M40+VOB1:49:57
189JOHANMARAIS347944M40+VOB1:49:58
190MIKEBOWLES348435MOTEMP1:50:19
191GARYLE ROUX389430MOTEMP1:50:20
192LYNDSAYJACKSON326953F50+VOB1:50:20
193HERMANAUCAMP308622MOTEMP1:50:20
194NATASHAEKSTEEN373437FOTEMP1:50:21
195MIKEPATERSON395256M50+WCOAST1:50:21
196ANGUSBEVERIDGE306245M40+TEMP1:50:22
197EBRAHIMSTEMMET410655M50+TOPF1:50:26
198DEONPAULSEN440137MOVOB1:50:28
199CRAIGBOWKER305834MOPINE1:50:34
200HANNAFOURIE311749F40+MAG1:50:38
201JOHANGILLMER315455M50+TEMP1:50:41
202JOHNKENDALL437646M40+SATORI1:50:47
203GRAHAMDE VRIES379323MOUCT1:50:48
204TREVORJOUBERT410439MOOLDMUT1:51:01
205TANAJANSE VAN RENSBURG442840F40+WCOAST1:51:06
206ANDRIESSWART378946M40+AAC1:51:07
207MOIRAHARDING385640F40+SATORI1:51:07
208FAIZELJACOBS385031MOITHEKO1:51:10
209JONATHANCLOETE366947M40+TELKWP1:51:27
210JAMESDOWNIE327151M50+TEMP1:51:30
211JASONMEYER339132MOTEMP1:51:31
212MAXWELLNITZKY413324MORESBANK1:51:32
213ABRAHAMPATIENCE446048M40+STRAND1:51:36
214JACQUESVAN STADEN383138MONBMSM1:51:37
215CLAIREPAYNE373640F40+TEMP1:51:42
216JESSICAGARLICK358023FOTEMP1:51:43
217FREDERICKKOEBERG425640M40+TELKWP1:52:03
218ANDREJACOBS372238MONEDWP1:52:03
219GERTDOLS341352M50+WCOAST1:52:04
220GAVINMCDERMID382436MOTEMP1:52:07
221HANNESMULLER382850M50+AAC1:52:11
222QUASEEMMOHAMED408826MOITHEKO1:52:12
223VALERIADE NISI418330FOTEMP1:52:15
224RUSSELLTAIT408050M50+WCOAST1:52:21
225GERHARDKOTZE319641M40+TEMP1:52:24
226DAYNECLARK435130MOTEMP1:52:28
227ROSERUSHTON335640F40+CELTIC1:52:29
228ODETTEOLIVIER327024FOUCT1:52:30
229MICHAELMASSINGHAM337032MOSATORI1:52:35
230KENNANFAIRLAMB443420MOTEMP1:52:42
231RUDYHORN-BOTHA361749M40+VOB1:52:50
232ROGERGRAHAM324457M50+TEMP1:52:50
233ANGELOFREDERICKS345837MONBMSM1:52:52
234HELENDU PLESSIS304558F50+TYGER1:52:59
235MARELISEPRETORIUS443538FOWCOAST1:53:00
236ALEXANDERDIERKS423944M40+HOUTBAY1:53:00
237THEOFERREIRA391645M40+BIDWP1:53:02
238FLORIANSCHILLER435436MOTEMP1:53:04
239CHRISTOPHERHOLDSWORTH424128MOHOUTBAY1:53:07
240JEANBUCKHAM450539FOHARF1:53:08
241FRITHHOLING421548F40+FOREST1:53:15
242AUGUSTINEBALZER360333FOSTRAND1:53:15
243MARINGAVAN ZYL422830FOSTRAND1:53:23
244RYANSANGER394138MOFOREST1:53:24
245KOBIELOCHNER370426MOTEMP1:53:25
246GRANTDODGEN336337MOADIDAS1:53:27
247PAULPRITCHARD329447M40+FOREST1:53:32
248DE WALDBRAND444428MOTEMP1:53:33
249JAKOVERSFELD443939MOBRACK1:53:37
250JOHNFALCONER400056M50+VOB1:53:38
251MUNYAMATOSE425421MOPINE1:53:41
252LORIENPASK402343F40+VOB1:53:41
253THORSTENBECKER426027MOTEMP1:53:42
254ANWAROMAR343749M40+RWFLWP1:53:43
255JACQUELINESMITH308441F40+TEMP1:53:44
256JOHNHARTNICK348057M50+PAARL1:53:44
257RAYMONDSELOKELA338232MOTEMP1:53:47
258PAULROWE342540M40+MATES1:53:47
259GUYDE BRUYN335240M40+TEMP1:53:48
260PAULSINCLAIR353942M40+HARF1:53:49
261DONOVANHOLMAN358839MOTEMP1:53:50
262DANSAGE352043M40+AAC1:53:52
263BRANDONMAGGEN317136MOTEMP1:53:53
264CRAIGRUTHERFOORD398935MOTEMP1:53:56
265JOEHERBERT323231MOTEMP1:53:58
266DAVIDHUNTER331654M50+PINE1:54:02
267WERNBERGSTEPHEN403549M40+TEMP1:54:02
268MEIKEZUMPT412738FOCENTURY1:54:07
269LIANAVAN VUUREN445732FODURBAC1:54:09
270HELGOHOHENSTEIN323640M40+STRAND1:54:12
271MICHAELLAWRENSON335142M40+TEMP1:54:23
272DAVIDSMITH314257M50+FHOEK1:54:32
273JANINEGLANZ330543F40+TEMP1:54:39
274JACQUESSCHIPPERS441431MOTEMP1:54:43
275KARIENSTURMAIR304138FOFOURWAYS1:54:45
276MALCOLMLOMBERG384642M40+WCOAST1:54:47
277WILLIAMTAYLOR361852M50+WCOAST1:54:47
278LYNNESHANNON392340F40+PINE1:54:54
279MOGAMATISMAIL417448M40+TEMP1:54:56
280MARKWRIGHT379548M40+FORHILLS1:55:02
281JEAN-MARCSCHMID383639MOTEMP1:55:03
282SIMONSPECK438948M40+SH1:55:03
283ELIZABETHCASEY311139FOAAC1:55:09
284ANNEMULLER411845F40+EDGE1:55:18
285ROBERTMORRELL346354M50+UCT1:55:18
286JANINEMAZERY330635FOWEST1:55:20
287SIERRAGULLAN319324MOVOB1:55:21
288NATASHASTEINBERG365828FOTEMP1:55:22
289LEZANDREJOUBERT306023FOTEMP1:55:26
290JUSTINESYMONS322027FOTEMP1:55:29
291SARAH-JANEROSS337324FOTEMP1:55:30
292CHRISTOPHERSMITH307853M50+SH1:55:45
293JACQUESOOSTHUIZEN430356M50+BRACK1:55:47
294LESHANNA335963M60+WHALERS1:55:54
295HANNELIENAUDE354335FOSTRAND1:55:59
296MICHAELCLARKE396062M60+VOB1:56:07
297ROBGARDNER421446M40+DURBAC1:56:09
298CHRISLUYENDIJK367621MOTEMP1:56:11
299BRUCEDALLAS363136MOVOB1:56:20
300GAVINSTREET412429MOTEMP1:56:21
301BRADLEYBASTIAN361228MOVOB1:56:25
302VICKIMELLET436533FOTEMP1:56:40
303CHIVONNEGROENEVELT306836FOMETLIFE1:56:42
304SARAHKOCH457639FOVOB1:56:44
305TARYNTHOMPSON315623FOTEMP1:56:45
306ADIELDALWAI440939MOTEMP1:56:47
307RUSSELANDERS307152M50+TEMP1:56:54
308JACOBSUTTER430562M60+TEMP1:56:54
309JILLMCKEITH361141F40+VOB1:56:55
310FAYEKEITZMAN396136FONBMSM1:56:57
311NICOLASEEGERS379128FOTEMP1:56:58
312BARRI-JONSTEAR379429MOTEMP1:56:59
313ROBSPEEDY342941M40+FITWP1:57:00
314S.P.DE VILLIERS386039MOTEMP1:57:01
315SARAHGEORGE325831FOHARF1:57:07
316JACVAN DER SPUY410352M50+BELL1:57:09
317PAULCRAWFORD374141M40+TEMP1:57:12
318ELSCHENBEYERS458649F40+DURBAC1:57:15
319PJPYWELL457522MOTEMP1:57:15
320KENHOBSON337651M50+TEMP1:57:16
321NICOLETTECROESER352630FOPICKPAY1:57:21
322MICHAELCROESER352530MOPICKPAY1:57:22
323LESFLINT380665M60+BRC1:57:28
324POMPIESSTADLER414253M50+STRAND1:57:31
325MANDYSKYE370148F40+TEMP1:57:33
326ILSEDU PREEZ342442F40+DURBAC1:57:34
327SHAMIELDRAMAT352151M50+TOPF1:57:35
328PIETERODENDAAL358743M40+TEMP1:57:44
329GREGORYSMITH366440M40+TEMP1:57:45
330ADCOLE390443F40+KNYSNA1:57:47
331CHARLVAN DER HORST357520MOTEMP1:57:50
332SHARONMARTIN435729FOVOB1:57:50
333WIEHAHNSMIT362137MONEDWP1:57:51
334YOLANDESMIT362237FOTEMP1:57:56
335ANNELIZEKLEVE423541F40+VOB1:58:05
336JULIEALEXANDER-LILLIE387639FOVOB1:58:05
337JOHANVAN WYK311441M40+TEMP1:58:06
338TAMMYLE RICHE447724FOTEMP1:58:07
339DEONLE RICHE448357M50+TEMP1:58:10
340JACQULINEBUNGE417228FOEDEN1:58:11
341LOUISEVAN RIET304249F40+TEMP1:58:11
342THERESADU TOIT376036FOTYGER1:58:12
343JONINEMOSTERT360134FOTEMP1:58:16
344ISMAEELPECK316636MOYEBO1:58:18
345WALTERREYNOLDS309036MOTEMP1:58:19
346RANDOLFJORBERG422729MOTEMP1:58:20
347ELISABETHJENGO401424FOAAC1:58:30
348ROLANDMATZKE353654M50+TEMP1:58:31
349SHAMIELSALIE331132MOTEMP1:58:32
350EDMUNDVAN WYK428549M40+TEMP1:58:33
351BARRYWAINMAN426847M40+AAC1:58:41
352JONATHANCLARK363453M50+UCT1:58:42
353ESTHERGUNTER339523FOUCT1:58:46
354KERRYLA VITA309534FOTEMP1:58:46
355LIZADU PLESSIS429040F40+STRAND1:58:47
356MARLEINSTRAUSS392629FOCENTURY1:58:50
357MARIETHAHERBERT322966F60+BELL1:58:51
358ERICAVAN RHYN353547F40+STRAND1:58:51
359ANGELAELKINGTON369650F50+VOB1:58:51
360AUBREYSHOKO438837MORCSGUGS1:58:52
361MARENELOUW329938FONAMAQ1:58:52
362MICHAELHAYMAN390223MOTEMP1:58:53
363LINDATUCKER312935FOVOB1:58:58
364LE JUHNVAN ZUYDAM446738FONBMSM1:59:04
365ANDREWPICKERING390736MOTEMP1:59:05
366DEBBYGATES332940F40+FHOEK1:59:05
367RIAANSIEBRITZ404443M40+TEMP1:59:06
368LARRYCHAPMAN404947M40+PINE1:59:07
369PAULHEDDERWICK301034MOTEMP1:59:13
370GLANVILLERETIEF308736MOTEMP1:59:14
371MARGAKANNENBERG357032FOTEMP1:59:16
372AZIZAALLIE426651F50+TOPF1:59:19
373DEREKVAN DEN BERG439453M50+STRAND1:59:21
374WOODINNEIL438159M50+STRAND1:59:22
375MARTINFLINT338039MOTEMP1:59:23
376RICHARDFLINT329126MOVOB1:59:23
377VERADA SILVA402845F40+BELL1:59:28
378HERMANJANSE VAN RENSBURG349650M50+RWFLWP1:59:29
379GRAEMEWERRY358941M40+TEMP1:59:31
380NOTHANDOMUNGWE410527FOUCT1:59:32
381PHILIPDENNIS349048M40+EDGE1:59:33
382TONYTUNAR338349M40+EDGE1:59:33
383DAWNSAUNDERS319152F50+HELD1:59:34
384SCHALKSMIT384444M40+STRAND1:59:39
385ANGELIQUESMITH384333FOSTRAND1:59:40
386HILLIARDNYMAN385323MOODRAAI1:59:41
387DARYLHARDING385840M40+SATORI1:59:53
388SHIRLEYSOBEL367036FOTEMP1:59:56
389LAURIENATHAN305751M50+UCT1:59:57
390GRANTHILLARY347441M40+VOB1:59:59
391LINTONNAIDOO390331MOTEMP2:00:00
392KATINKAWAAGSAETHER386426FODURBAC2:00:04
393PHILIPKILROE307749M40+TEMP2:00:05
394ABDURAGMAANJACOBS427534MOARD2:00:07
395NICOLEDAVY417124FOWPCC2:00:08
396MIKEJENNINGS394030MOLLAN2:00:08
397ASHLEYJACOBS328637MOVOB2:00:09
398MICHAELALUGER311238FOTEMP2:00:12
399DYLANBURKE327330MOTEMP2:00:16
400SARAHFRAZEE341937FOTEMP2:00:18
401AVRILVAN DEN HEEVER439546F40+EDGE2:00:22
402PHILIPPAHUMPHREYS342140F40+TEMP2:00:23
403DAVIDBOKWE448139MOADIDAS2:00:25
404ADELEMAASS370540F40+NAMAQ2:00:26
405PHILLIPALEVER367944F40+PINE2:00:27
406CAMERONBASSON442620MOTEMP2:00:28
407JAMIESURKONT307634MOTEMP2:00:34
408CARLAWHITEHEAD414826FOCENTURY2:00:39
409GINETTEFLOCKTON305562F60+CELTIC2:00:41
410RAELLEVITT350339MOTEMP2:00:45
411ANDREWCOHEN332531MOAAC2:00:45
412CATHRINEKOEKEMOER378049F40+NBMSM2:00:47
413PIERREVAN ZYL377541M40+BRACK2:00:48
414AYESHAGALANT343136FOWCOAST2:00:48
415MICKYELLIOTT313355F50+MSM2:00:48
416LAURENKRAUSSE405634FOTEMP2:00:49
417SONWABONGCELWANE343244M40+RCSGUGS2:00:56
418ADEEBHENDRICKS371625MOTEMP2:00:59
419MOGAMATDAVIDS381947M40+ITHEKO2:01:02
420ZUNAIDHENDRICKS359427MOITHEKO2:01:02
421BOBCONNELLY348145M40+GROOT2:01:04
422LIZBRINK337549F40+VOB2:01:18
423ADELEDE WET379734FOWHALERS2:01:19
424THIVENREDDY411547M40+ITHEKO2:01:21
425NICOLEVAN DER MERWE311038FOVOB2:01:24
426CHRISBEASLEY413726MOTEMP2:01:24
427MARY ANNHILLARY347640F40+VOB2:01:27
428KARINFOURIE449748F40+STRAND2:01:27
429SARAHLANGE393228FOVOB2:01:29
430RATSIUTSEKO442734MOTEMP2:01:31
431PAULDIEDERICKS404039MOVOB2:01:32
432LENETIAMUNDIE346838FOBRACK2:01:32
433NARAYANVYAS371423MOUCT2:01:43
434MONIKAMOSER338139FOTEMP2:01:45
435NAOMIBADENHORST417950F50+VOB2:01:47
436STEPHENROCHE422148M40+TEMP2:01:47
437ADRIAANPEARSON438432MOTEMP2:01:49
438HEATHERSTEEL339851F50+STELLEN2:01:51
439MOHAMEDKAPDI420549M40+TEMP2:01:56
440FRANKIEJOHNSTON395749F40+WPCC2:01:59
441ADIELFORTUNE421935MOTEMP2:02:00
442ADELEBOTHA360841F40+STRAND2:02:03
443FRANKMATOSE424745M40+PINE2:02:04
444JANNPENFOLD348733FODURBAC2:02:06
445ANNETJIECLAASSEN313255F50+SANLAMC2:02:15
446GABRIELWESSELS398133MOTEMP2:02:23
447GARETHLOW397230MOATC RC2:02:27
448CAROLNORVALL451156F50+SSETAC2:02:28
449SOLLYMOENG357344M40+TEMP2:02:28
450NEILWHITEHEAD448424MOTEMP2:02:30
451CLEMENTCLARENCE420259M50+TEMP2:02:32
452PETERGERTLER323351M50+TEMP2:02:34
453SANETVISSER407451F50+RWFLWP2:02:36
454LLEWWELLYNBENJAMIN431434MOEDGE2:02:41
455SARAHKIRKMAN418432FOAAC2:02:44
456LAURENGUTHRIE300234FOSATORI2:02:45
457PETERCARRICK341840M40+TEMP2:02:46
458CHRISTINEWINTER405047F40+TEMP2:02:49
459JAMESBUCHANAN302345M40+TEMP2:02:54
460CISKASTEENKAMP405342F40+TEMP2:02:56
461MIKETAYLOR340666M60+TYGER2:03:00
462MELINDAPELSER320748F40+PAARL2:03:03
463GREGSWAN418139MORCSGUGS2:03:07
464ZELDAVISSER401139FOTEMP2:03:08
465ETIENNEOLIVIER407123MOTEMP2:03:23
466MELVILLESILKE412560M60+AACWP2:03:32
467MARKLEONARD393135MOWCOAST2:03:36
468PAULASPELING440747M40+ITHEKO2:03:38
469KENNITHBEVISS-CHALLINOR388830MOTEMP2:03:45
470CAROL-ANNKINSLEY309124FOTEMP2:03:46
471ABEEDAAHMED300433FOTEMP2:03:49
472TARAHOSSACK362326FOVOB2:03:52
473GREGGSNEDDON347844M40+FOREST2:03:55
474THOMASSHEEHY383930MOTEMP2:03:58
475SHARONMCAULIFFE387046F40+SOUTHS2:04:08
476TANIAVISAGIE416135FONBMSM2:04:11
477LOISOBRIEN304951F50+VOB2:04:11
478AMYTOERIEN439226FOTEMP2:04:14
479BETHBUCHANAN363620FOTEMP2:04:23
480ANNEOGORMAN330346F40+VOB2:04:31
481KIRSTYBELL357221FOFHOEK2:04:31
482VANESSAROGERS340036FOPINE2:04:32
483CLAIREASHWORTH450839FOHOUTBAY2:04:35
484AFZALDHANSAY340850M50+VOB2:04:36
485MARYKALOUBSER353727FONEDWP2:04:39
486TREVORSIMPSON404647M40+GROOT2:04:45
487TYRONSMITH337726MOTEMP2:04:51
488KURTBAKER400418MOTEMP2:04:52
489GARETHWALL424540M40+SATORI2:04:53
490PENNYLUYENDIJK367551F50+CELTIC2:04:54
491PATRICKMILNER334657M50+FOREST2:04:54
492JUNEPARR429345F40+SANLAMC2:04:59
493SEANLIGHT450648M40+SH2:05:01
494SUSANVILJOEN306124FOTEMP2:05:01
495SAMANTHAHOBBS447925FOTEMP2:05:11
496PAULA-JOGROBLER399140F40+RWFLWP2:05:13
497SHELLEYDIENER348241F40+TEMP2:05:15
498HASSENMIAZALGAONKER391333MOYEBO2:05:16
499ROBYNMCCANN324030FOTEMP2:05:17
500ROBBURNS323560M60+DURBAC2:05:20
501DAVECURRY303740M40+AAC2:05:23
502NATASHAOCONNELL396635FOTEMP2:05:28
503PIERREROUX420635MOTEMP2:05:40
504LIAMMCELHINNEY350229MOTEMP2:05:40
505CATHYALISON301646F40+MSM2:05:43
506KARENAMATO383840F40+RWFLWP2:05:51
507LYNDAFILLMORE316559F60+EDGE2:05:52
508KARENBELL411446F40+EDGE2:06:02
509COLINEVASON368152M50+TEMP2:06:02
510MERVYNLEE428856M50+EDGE2:06:02
511LYNNETHERIDGE386745F40+ASICSEP2:06:03
512DIETRICHFRANZ429232MOTEMP2:06:12
513DEONSTEYN443725MOTEMP2:06:12
514ELENACONTERATO343944F40+VOB2:06:19
515JENNIFERSTEPHENSON423825FOTEMP2:06:21
516TARRYNANELLI405127FOATC RC2:06:26
517BYRONRAMSEY446521MOTEMP2:06:31
518AMBERCAMERON326121FOSH2:06:31
519ANDREAICELY380520FOTEMP2:06:33
520SERUTLEMASEMOLA334031MOTEMP2:06:35
521SHIRLEYMILNE426231FOTEMP2:06:41
522LEEMCQUEEN309744F40+KAC2:06:44
523FIROZABRAHAMS434652M50+AACWP2:06:47
524JACQUESVERSTER325348M40+PINE2:06:50
525MARKETHERIDGE386849M40+AACWP2:06:52
526UBAIDSAULS448029MOTEMP2:06:53
527DIANEOBREE394228FOATC RC2:06:54
528COLEENLEYGONIE348625FOSTELLEN2:06:56
529MYRNACAMERON451236FOTEMP2:07:07
530TERTIAKRITZINGER446131FONBMSM2:07:08
531SANDRASMITH397142F40+VOB2:07:09
532THERESAISAACS306559F50+VOB2:07:17
533GERHARDVAN DER HORST357443M40+TEMP2:07:17
534SALLYSHUTTLEWORTH308538FOHOUTBAY2:07:18
535ANITAMOSER320941F40+WPCC2:07:19
536SYDNEYCULLIS380468M60+WPCC2:07:21
537LANAWITTE402537FOVOB2:07:21
538MARIUSVICTOR391440M40+BELL2:07:25
539NICOLAHAYES367329FOTEMP2:07:25
540LINDABARRIE-SMITH330038FOTEMP2:07:26
541CLAYTONPRINS327437MOTEMP2:07:26
542LIESELDOUGLAS399937FOTEMP2:07:27
543LYDENBRINDERS424619MOEDGE2:07:27
544PETERGRASSOW363353M50+VOB2:07:29
545BRIANBARNES420740M40+WCOAST2:07:31
546ELIZABETHMCGEEVER371357F50+AAC2:07:33
547GARETHFOX321930MOTEMP2:07:35
548WIMPIEAUCAMP387443M40+STELLEN2:07:37
549CRAIGDEATS342843M40+AAC2:07:38
550LIZZIBRINKMANN384848F40+TEMP2:07:38
551SHARONSTEENKAMP370731FORWFLWP2:07:40
552EBERTLE ROUX316042M40+LBAAN2:07:41
553SHARONPAWLEY312140F40+FITWP2:07:44
554ROYCRAIG312036MOFITWP2:07:50
555JANVISAGIE391758M50+SANLAMC2:07:51
556MANDYEAGAR318232FOVOB2:07:52
557DEANMAREE409532MOTEMP2:07:53
558JULIEHECHTER342236FODURBAC2:07:53
559STEVELAWLOR375656M50+VOB2:07:54
560ERNESTOGARCIA-MARQUES430453M50+HOUTBAY2:07:54
561ANITAADENDORFF428930FOSTELLEN2:07:58
562JOHNADAMS443646M40+METLIFE2:08:00
563KERITHTUFF366531FOVOB2:08:04
564ELIZABETHKOTZE319740F40+TEMP2:08:06
565BRANDONTAYLOR342735MOTEMP2:08:07
566BARRYSMITH334860M60+TEMP2:08:09
567FAEEZKHAN351554M50+TOPF2:08:11
568STEVEBEHRENS420858M50+VOB2:08:14
569JANDU PLESSIS333155M50+HELD2:08:19
570PETERSPENCE451051M50+SSETAC2:08:20
571ELBIEDE KOCK437226FOTEMP2:08:22
572HENDRIKDE KOCK437327MOTEMP2:08:30
573ZEBVILAKAZI362841M40+TEMP2:08:30
574ESTELLESPEIRS341440F40+TEMP2:08:31
575DELIA-ANNALLSOPP399351F50+TEMP2:08:32
576DOTROUX421138FOTEMP2:08:32
577PEGGYWHITMAN350651F50+WCOAST2:08:39
578ALIDAHILLARY384539FOWCOAST2:08:46
579RAQUELPEARSON397733FOWCOAST2:08:47
580SHANAAZKARIEM348329FOARD2:08:47
581MARELIMANS409628FONBMSM2:08:48
582ASHIKABRACHER378432FOTEMP2:08:49
583WAYNEHOLMAN428223MOTEMP2:08:50
584CRAIGJACOBS430727MOMPLAIN2:08:51
585ANANDAPRINSLOO409928FOTEMP2:08:58
586MARQUIRETHASMIT411927FOTEMP2:09:00
587DEREKHARE429744M40+VOB2:09:01
588ABUBAKARJACOBS429843M40+VOB2:09:03
589WENDYTHOMPSON420042F40+TEMP2:09:03
590MILLYZIMMERMANN405938FOWCOAST2:09:08
591EUGENEJOUBERT383446M40+TEMP2:09:10
592IZELLEDEAN310243F40+STELLEN2:09:13
593NAOMIPIETERSE310440F40+TEMP2:09:22
594JUDITHASHTON441052F50+FOREST2:09:22
595MOGAMATISAACS448943M40+ITHEKO2:09:26
596AILSARAMSEY416424FOTEMP2:09:31
597JORDANCOHEN344219MOTEMP2:09:33
598TSAKANEMTENJANE422432FOTEMP2:09:37
599ELMARIERHEEDER332243F40+NAMAQ2:09:41
600TARRYNSTEYN395822FOTEMP2:09:52
601IMKEJOSEK400526FOTEMP2:09:54
602JENSWILLMES401026MOTEMP2:09:54
603MOHAMMEDHAMID391229MOYEBO2:09:57
604COLLEENHAIG-SMITH456633FOVOB2:09:59
605ROBERTSTEINMETZ439042M40+SACS2:10:01
606SAMMYJEFTHA445362M60+TEMP2:10:03
607KERRILOWRIE312830FOTEMP2:10:21
608MARLENENEL438247F40+UPING2:10:30
609RORYSPANGENBERG301437MOTEMP2:10:32
610BECKYJONES396944F40+SATORI2:10:34
611SIRAJMAJIET352931MOITHEKO2:10:35
612ANEEQAHBENJAMIN404232FOITHEKO2:10:36
613LAURABOUWER359954F50+SANLAMC2:10:44
614LOUISEVISSER432248F40+BENNOR2:10:48
615GRAEMESHEPHERD373135MOPINE2:10:51
616CRAIGBROWN369362M60+VOB2:10:58
617JONATHANLEWIS318654M50+TEMP2:11:03
618TULEKANKUKWANA430127FOCSCGA2:11:07
619KOBUSTERBLANCHE346139MORWFLWP2:11:10
620CARYNVENN449228FOSTRAND2:11:11
621PAULINESKILLINGTON324128FODURBAC2:11:16
622CHARLENEVERNOOY315528FOPAARL2:11:20
623AZANNEVAN WYK311336FOTEMP2:11:22
624SAMANTHAKRIGER349538FOCELTIC2:11:23
625COLLEENBUCHANAN310941F40+WAND2:11:25
626EMMALINCOLN388929FOTEMP2:11:35
627BRIANALEXANDER422266M60+VOB2:11:36
628RENEJANUARY450338FOCGA2:11:37
629JEROMECORNS300740M40+TEMP2:11:39
630ROBERTNATHAN349353M50+TEMP2:11:40
631PATRICKFARRAND390645M40+TEMP2:11:43
632HANNEKEFARRAND390940F40+TEMP2:11:46
633RUTHCHAPMAN435625FOTEMP2:11:46
634ALLENCARELSE409235MOTEMP2:11:55
635ANNETTEDE BRUIN369427FOTEMP2:12:00
636STEPHENVAN DER BERG369548M40+TEMP2:12:01
637CHRISTOPHERGORRAH347753M50+KRAAI2:12:02
638DEBORAHMARTIN434938FOTEMP2:12:03
639ANDREABRADLEY402044F40+TEMP2:12:07
640ADRITRUTER404831FOATC RC2:12:09
641KARENJENKINS406250F50+VOB2:12:13
642PIERRECLOETE367859M50+PINE2:12:20
643LOUISBRINK407940M40+TEMP2:12:26
644SAMANTHAHEWETT408332FOTEMP2:12:27
645ROBERTLEBOWITSCH300563M60+TEMP2:12:28
646LARENZAKRUGER431123FORWFLWP2:12:31
647ROBERTSUTHERLAND425135MOVOB2:12:41
648SANDRARAFFAELLI373541F40+SH2:12:41
649CARENSKEA317838FOTEMP2:12:42
650WILLEMKIRSTEN413155M50+DURBAC2:12:43
651SETTIEKRUGER430648F40+RWFLWP2:12:43
652CARLHUNT302850M50+CELTIC2:12:44
653KERENEMILNER334725FOFOREST2:12:49
654LARA-JANEKELLY322324FOFOREST2:12:49
655CALVYNDU TOIT456837MOSH2:12:49
656HASANAINABDULLAH427432MOITHEKO2:12:50
657SALMAABDULLAH427731FOITHEKO2:12:50
658LAURENDEAN437421FOTEMP2:12:52
659SHARONLE ROUX437745F40+TEMP2:12:52
660NNEHELENGKOALI415732FODURBAC2:12:53
661HAZELMBEWU436155F50+CELTIC2:12:55
662ROSALINDLEWIS318453F50+TEMP2:12:58
663PHILSTEWART450760M60+JEPPE2:13:06
664HENTIEVAN VUUREN330227MOTEMP2:13:09
665ANNARIRICH347329FONBMSM2:13:09
666LOUISEVINK366845F40+TEMP2:13:09
667BRIANMAWMAN315864M60+VOB2:13:10
668ALLIEMACFARLANE303143F40+ADIDAS2:13:10
669GUYBURBIDGE395346M40+VOB2:13:10
670PETRABOTHA366734FOTYGER2:13:14
671CONRADBOTHA369240M40+TYGER2:13:14
672AYESHACONRAD406024FOTEMP2:13:15
673ARDIELALBERTYN310641M40+NEDBOL2:13:15
674GLENDAPATTERSON364346F40+HV2:13:19
675MERYLERASMUS357744F40+TEMP2:13:19
676IELHAAMJACOBS372436FONEDWP2:13:22
677HEILAUNGERER340321FOBRACK2:13:22
678JACQUESVAN DER WESTHUIZEN396243M40+NEDWP2:13:23
679KENNETHSINCLAIR443249M40+KIMBRR2:13:23
680ELANDALOUW369935FORWFLWP2:13:24
681LEONLOUW368438MORWFLAGN2:13:24
682MARCCOHEN344151M50+AAC2:13:30
683ORENTADMOR407749M40+AAC2:13:31
684VIOLABRUNGS317045F40+AAC2:13:32
685PETRONELVAN VOLLEHOVEN413432FOWCOAST2:13:38
686JESSICADU TOIT356625FORWFLWP2:13:38
687WILBYSTEENKAMP396349M40+NEDWP2:13:39
688LISAPEREIRA323737FOTEMP2:13:44
689GRAHAMROSS336562M60+FHOEK2:13:47
690SASHAKRETZSCHMAR346239FOTEMP2:13:49
691CRAIGPEARSON398036MOWCOAST2:13:58
692SHAUNFOURIE384130MOTEMP2:14:00
693DAVIDCOUPAR385530MOPICKPAY2:14:03
694JOANREX302059FRWFLWP2:14:07
695JENNIFERWELZEL366025FOTEMP2:14:07
696TANJABOSCH350534FONBMSM2:14:08
697HENKKLOPPER433044M40+NEDWP2:14:10
698GRAEMEKEEHN371242M40+SSETAC2:14:10
699YANDISWASONDLO352425FOCPUT2:14:13
700PETERNEL351359M50+BRACK2:14:14
701RALDIASHABODIEN321854F50+ITHEKO2:14:14
702JEANETTECLOETE367238FOTELKWP2:14:18
703CHRISTELVAN ZYL411343F40+VOB2:14:22
704BRANDONCOLLIER-REED363040M40+TEMP2:14:27
705HAYLEYSCHOLTZ403129FOVOB2:14:27
706ROBERTELS394521MOTEMP2:14:32
707ELMARIEWARRINGTON344441F40+STRAND2:14:33
708BILLYGEE374040M40+VOB2:14:37
709MARINALE ROUX316139FOLBAAN2:14:51
710MARYVONNEPALANDUZ401239FOTEMP2:14:52
711JEROMECHARLES414135MOTEMP2:14:53
712JOANWHITEHOUSE347142F40+RWFLWP2:15:08
713TIMCUBITT304455M50+SANLAMC2:15:12
714CYRILLWALTERS307331FOCELTIC2:15:14
715JOHNWILLIAMS302148M40+TEMP2:15:16
716JAMESABSALON396537MOOLDMUT2:15:17
717LEIGHHENDRICKS309926FOTEMP2:15:22
718CARRONCALE345639FOVOB2:15:22
719MANDYBURNS326438FOBELL2:15:31
720JULIAMCCURRACH335740F40+TEMP2:15:33
721SANDRAMITCHELL335840F40+TEMP2:15:33
722KEIRENATMORE444042F40+VOB2:15:34
723CHRISTIEBRINK342623FOUCT2:15:35
724MARILEVISSER376137FOTEMP2:15:49
725MARYVILAKAZI362733FOPINE2:15:51
726SEUGNETVAN DER MERWE329824FOATC RC2:15:57
727HEILETOLLSSON349731FOTEMP2:16:01
728ANTHONYWILSON326020MOTEMP2:16:01
729JEANERASMUS397641F40+TEMP2:16:11
730KATHERINETROMP328426FOTEMP2:16:12
731CATHERINECOUPAR356530FOPICKPAY2:16:13
732RODNEYCOETZEE436049M40+BIDWP2:16:23
733THOMASGILLESPIE410146M40+NEDWP2:16:24
734SHIRLEYSMITH336037FOTEMP2:16:25
735KIRSTENROBERTS355730FOTEMP2:16:28
736RHONWYNHENDRICKS441143F40+VOB2:16:31
737FREDDYSTEENKAMP328935MOAMAC2:16:34
738KENANDERSEN350053M50+VOB2:16:36
739SANDRAMALLOCA432735FOTEMP2:16:39
740MELISSATULLAGH432835FOTEMP2:16:39
741JO-ANNEGLAOK392749F40+PICKPAY2:16:49
742FIROZAKARIEM402235FOYEBO2:16:49
743MOGAMATTASSIEM409142M40+ITHEKO2:16:54
744VANESSASOUTHGATE385445F40+VOB2:16:59
745PAULSOUTHGATE390046M40+VOB2:16:59
746VIRGINIACLARKE360242M40+RWFLWP2:16:59
747ANDREWILD333244M40+VOB2:17:11
748BEVERLEYWILD333847F40+VOB2:17:12
749RAYMONDKLITZNER403456M50+TEMP2:17:24
750TESSCOWAN371527FOTEMP2:17:24
751EUGENELENFORD394724MOTEMP2:17:25
752TARYNALCOCK318120FOTEMP2:17:27
753SUROORSOLOMON424463M60+TEMP2:17:28
754SMIDTHEIDI-ANNE340538FOSH2:17:29
755PAULGOULSON300643M40+FHOEK2:17:36
756LIZELLEBOTHMA338431FOEDGE2:17:43
757TIMCURTIS302239MOTEMP2:17:45
758KENTBRYAN301965M60+WPCC2:17:47
759CORNELIAJANUARIE382542F40+NAMAQ2:17:48
760ADELEERASMUS441330FOBELL2:17:48
761JEANHUGHES330164F60+UK2:17:49
762NURAANSALIE322637FORWFLWP2:17:53
763DE WYKSTEYN307934MOTEMP2:17:55
764CHERYLSMIT375148F40+WCOAST2:18:09
765MARILETTEBROWN346729FONBMSM2:18:21
766MARLISEKLOPPER378725FOTEMP2:18:25
767AMYSASMAN402420FOSOUTHS2:18:26
768CURTJONES425927MOTEMP2:18:30
769MOGAMATTOFFAR434248M40+ITHEKO2:18:41
770AHMEDBANDERKER382755M50+ITHEKO2:18:41
771NAZLIEMOHEDEEN398649F40+ITHEKO2:18:41
772NDAIZIVEYIMAPASO437937FOTEMP2:18:46
773RONEMARTIN308033FOTEMP2:18:53
774AMANDAHAVENGA351047F40+TYGER2:19:00
775BENINEHAVENGA351118FOTYGER2:19:01
776LORENGREYLING436847F40+FHOEK2:19:01
777LIAKATSONDAY431754M50+TOPF2:19:11
778ANDREWMALING447439MORWFLWP2:19:12
779FAIZELABRAHAMS361433MOITHEKO2:19:12
780CHEREENKOLPAKOVA412936FOWCOAST2:19:14
781ALISONMEYER372734FOWCOAST2:19:14
782TONIDUCKWORTH384227FOWCOAST2:19:15
783BRADLEYBURGER313928MOSH2:19:17
784CHRISTINEPIENAAR382328FOSTRAND2:19:18
785ANDREWVAN RHYN381833MOTEMP2:19:19
786ABIGAILSMITH333528FOAAC2:19:21
787MELANIELOURENS398723FOBRACK2:19:25
788ADNAANEMERAN366144M40+ITHEKO2:19:38
789HENRYJONKERS446450M50+EAST2:19:39
790ZIYAADFATAAR389531MOITHEKO2:19:44
791ISMAILZEYN447531MOITHEKO2:19:45
792FARUAKPIETERSEN447648M40+ITHEKO2:19:58
793FAIZELHAROON304837MOTEMP2:19:58
794CATHERINEWELSH380941F40+HARF2:19:59
795RONELLEDUNCAN390151F50+VOB2:19:59
796DIONSTEVENS400147M40+PINE2:20:06
797BEVPALLET316346F40+SH2:20:06
798MIKEPALLET316454M50+SH2:20:07
799FATAARANEEKAH356739FOITHEKO2:20:15
800LESBICHRUTH349840F40+VOB2:20:19
801ELIZABETHKEAY309440F40+TEMP2:20:27
802ALEXSTEMMET309665M60+BONNIE2:20:36
803NABUWEYAVERMEULEN392229FOITHEKO2:20:41
804RIAANVAN EEDEN318834MOSTELLEN2:20:52
805AMANDAVAN EEDEN318740F40+STELLEN2:20:52
806BELINDAMULLER386237FOEDGE2:20:54
807ALOISCILLIERS397445F40+RWFLWP2:21:02
808STIAANKOTZE376250M50+VOB2:21:03
809LAURENFULLER366220FOUCT2:21:06
810MARCCLARENCE375429MOTEMP2:21:10
811JOHNNYLUKAS339232MOAMSAC2:21:11
812HESWILKRIGE355653F50+NAMAQ2:21:11
813SANDYALLEN349254F50+TEMP2:21:12
814MERKLEANNEMARIE336757F50+TEMP2:21:13
815HEATHERCOOKE342370F70+TEMP2:21:13
816ACHMATPRETORIUS341250M50+TOPF2:21:13
817FUADSALIE306445M40+TEMP2:21:15
818KARENSANDS381730FOTEMP2:21:18
819JUDITHDAVIDSE380729FOTEMP2:21:18
820RAAKESHGHEEWALA320537MOTEMP2:21:25
821LINDIEDE BRUIN451825FOTEMP2:21:34
822KIMPOTTER365132FOTEMP2:21:34
823THERESAPARSRAMAN365041F40+FHOEK2:21:35
824FATIMAEMERAN366343F40+ITHEKO2:21:37
825EBRAHIMAFISHER379244M40+TEMP2:21:38
826FUADADAMS403047M40+ITHEKO2:21:52
827SANDRARUSTIN371847F40+DEFWP2:22:00
828ALIYAADAMS398529FOITHEKO2:22:05
829CECILDOUGAN429956M50+RCSGUGS2:22:05
830VICTORIAHAWKINS311530FOTEMP2:22:13
831NICOLEGODFREY391825FOTEMP2:22:21
832ANJANAMAKANJEE402638FOTEMP2:22:21
833NINETTEMILLAR333763F60+RWFLWP2:22:26
834PENNYBARNARD425747F40+TEMP2:22:34
835ALANBARNARD425548M40+TEMP2:22:35
836FIYONAVALLI395127FOTOPF2:22:35
837CAROLGAHWILER353368F60+VOB2:22:36
838FARIEDFERRIS395037MOTOPF2:22:36
839MOEGAMATYASSIEM378252M50+TOPF2:22:36
840STEPHANHOCK375547M40+TEMP2:22:47
841MARGARETHADU TOIT354254F50+BELL2:22:47
842THALIAHOCK375845F40+TEMP2:22:48
843JACQUIJACOBSON431339FOCENTURY2:22:48
844CHRISTOLINESILVER413542F40+VOB2:22:54
845JULIEBIRD380343F40+PINE2:22:55
846DARRENMAREE395420MOTEMP2:23:01
847PETERSMITH337452M50+TEMP2:23:07
848DANIELUDICK408125MORWFLWP2:23:08
849LUDICKSUNEL407526FORWFLWP2:23:11
850VANNESSAVAN DER WESTHUIZEN321037FOSH2:23:12
851RENEGROBBELAAR361544F40+ORAC2:23:20
852PHILLIPROBERTS426934MOTEMP2:23:26
853THATOMARITIAPRIL372030FORCSGUGS2:23:29
854FADEELAHKENNY355326FOITHEKO2:23:36
855SUZAANKRUGER396728FOOUTENH2:24:01
856ZETHENAOCTOBER441941F40+RAVENS2:24:02
857CARMEN-ANNEBARKER442040F40+NBMSM2:24:02
858NASSERPETERSEN451651M50+MUTUAL2:24:07
859JASMINAWATSON432543F40+OMI2:24:19
860ABDULLAHMAJIET320461M60+OHFERS2:24:19
861TOMBILOUBSER449159F50+STELLEN2:24:21
862NICOLENEBURGER361649F40+ORAC2:24:23
863COLINLE ROUX381148M40+RCSGUGS2:24:24
864KERRYDIENST322134FOTEMP2:24:26
865SANDRAHALL413237FORWFLWP2:24:31
866ANTONSNYMAN436243M40+TEMP2:24:35
867MOESASAFAAR340450M50+TEMP2:24:39
868ASHLEYJEFFRIES354956M50+TEMP2:24:43
869BRIANGOLDBERG331847M40+TEMP2:24:57
870BETHODENDAAL374252F50+RWFLWP2:25:01
871KHALIDPARKER408932MOTEMP2:25:03
872VANESSAJOSHUA445538FOTEMP2:25:11
873FARAHNAAZWILLIAMS365440F40+OMI2:25:19
874SHIRLEYHOSSACK371056F50+VOB2:25:28
875JEROMYVAN ZYL371158M50+VOB2:25:28
876LESTERBURROW428355M50+STRAND2:25:53
877GAVINYOUNG445637MOTEMP2:25:54
878TRACEYHENDRICKS390548F40+FOREST2:25:54
879VENESSACLOETE423448F40+RWFLWP2:25:54
880ANDREABRAND449525FOTEMP2:26:01
881WILLIAMPAULSEN304367M60+TEMP2:26:07
882CATHERINEKELLY322448F40+FOREST2:26:07
883JANINEPHILLPS317640F40+VOB2:26:10
884RAYMONDABRATT319461M60+SH2:26:16
885BENJAMINKODISANG381340M40+TEMP2:26:24
886KARENVAN HUYSSTEEN308345F40+TEMP2:26:25
887MARYKEENGELBRECHT430222FOBRACK2:26:26
888RONELLEISAACS321127FOTYGER2:26:30
889ALLANCLARK362632MOTEMP2:26:41
890WILLIAMHONEYMAN446353M50+SADAC2:26:41
891NONYANEMONYAMATHE409843M40+VOB2:26:51
892YAZIEDCHOTHIA382932MOITHEKO2:26:57
893FATIMAKHAN382149F40+TEMP2:27:11
894JACQUELINEVISAGIE357942F40+MPLAIN2:27:22
895JOHNJOSEPHS416971M70+SOUTHS2:27:31
896RNANEETHLING443823FOTEMP2:27:32
897BRONWYNLINDGREN322826FORWFLWP2:27:41
898MICHELLEELS323433FORWFLWP2:27:56
899FRANCISKAVENTER301140F40+FITWP2:27:57
900HANNELIELOTZ313831FOPICKPAY2:28:02
901KALENEGOLIATH432640F40+TYGER2:28:03
902CLAIRECARPENTER385729FOTEMP2:28:09
903KATHRYNBURKE386328FOTEMP2:28:10
904THYSLOURENS336437MOBRACK2:28:10
905RONELLOURENS331440F40+BELL2:28:31
906HELENAJANSE VAN RENSBURG386528FOEDGE2:28:31
907TRACEYFISHER409734FOITHEKO2:28:35
908PIERREBINNEMAN410960M60+EDGE2:28:38
909ISGAAKSLAMDIEN427057M50+ITHEKO2:28:39
910BASHEERAHSWARTZ-EMANDIEN317254F50+TOPF2:28:46
911ADNAANMAJIET419443M40+ITHEKO2:28:54
912ESTEELAZARUS440231FOATC RC2:29:01
913LIZETTETERBLANCHE346041F40+RWFLWP2:29:03
914WILBEVAN DER WESTHUIZEN444566F60+STRAND2:29:03
915GORDONLEONARD360675M70+STRAND2:29:04
916MICHAELGAADE364064M60+VAAL2:29:08
917VICCYBAKER364160F60+VAAL2:29:08
918MANDLENKOSIMOYO408232MOPINE2:29:16
919COLLEENMARSH420944F40+TEMP2:29:17
920LINDSAYDAWES389348F40+PINE2:29:18
921DERRICKHENDRICKS411148M40+EERSTE2:29:18
922QUINTONARENDSE411245M40+BELL2:29:18
923YASMINABASSADIEN340230FOTEMP2:29:20
924GINACROUKAMP428027FORWFLWP2:29:24
925FAIZARAILON450445F40+TOPF2:29:27
926LISAWHITE329246F40+TEMP2:29:27
927DARYLBLOW329546F40+TEMP2:29:28
928MARTIESWANEPOEL433239FONBMSM2:29:34
929MADELEINEDE JAGER412643F40+NBMSM2:29:34
930DANIENIENABER413060M60+ADIDAS2:29:35
931WAYNESAMUELS389145M40+TEMP2:29:35
932ANWARKAMIES406946M40+ITHEKO2:29:36
933NEILARMITAGE446852M50+TEMP2:29:38
934GADIJAMOSAVEL411642F40+ITHEKO2:29:38
935LUDWIGSCHWEIKHARD343568M60+TEMP2:29:42
936REDUWHAANHERMANS418668M60+SH2:29:45
937UNITAVAN VUUREN409458F50+SH2:29:50
938KASHIFWICOMB403739MOITHEKO2:30:02
939FATIMAABRAHAMS376927FOTEMP2:30:04
940SORAYAELLOKER423150F50+SH2:30:19
941KIMSHAW341127FOVOB2:30:25
942MARISAENGELBRECHT417326FONBMSM2:30:37
943TEDBLAINE345259M50+SSETAC2:30:51
944ILHAAMDIEDERICKS403935FOITHEKO2:31:25
945MICHELLEDU PLESSIS421027FONBMSM2:31:36
946RIANAMOUTON354642F40+RWFLWP2:31:42
947GRAEMEMACSYMON333959M50+WPCC2:31:50
948LORRAINEDOYLE358159F50+RWFLWP2:31:51
949MICHELEKASFIKIS331048F40+FHOEK2:31:59
950JENNIFERSAMSODIEN406339FOITHEKO2:32:02
951SHARMILISAACS403350M50+ITHEKO2:32:03
952RUTHPENFOLD301231FOTEMP2:32:07
953TYRONECHAN301334MOFITWP2:32:07
954BRADWINSHAW341027MOVOB2:32:13
955TANIAZEEDERBERG377236FOPINE2:32:14
956FATIMAVAN DE RHEEDE419934FOITHEKO2:32:14
957EARLHARGREAVES334965M60+CELTIC2:32:24
958KEITHBOUGAARD397849M40+TEMP2:32:41
959MARWAANABDUL383539MOITHEKO2:32:42
960SVENWELZEL365931MOTEMP2:32:51
961SANDISWANDLEBE310029FOTEMP2:32:53
962DANIELESILVA408633MOEDGE2:32:53
963SHAHIDAISSEL413654F50+ITHEKO2:32:54
964NONTEMBISOGIJANA351733FOCSWPA2:32:55
965EILEENISAACS321245F40+TYGER2:33:16
966FERAADFORTUNE441732MOTEMP2:33:16
967ANWARFORTUNE415436MOTEMP2:33:17
968TANIAFOURIE368037FODURBAC2:33:20
969MICHAELPATHER371948M40+SH2:33:31
970JODYPATHER372120FOSH2:33:31
971JOHNWILTER311656M50+TEMP2:33:52
972RACHELVAN EYK407638FOTEMP2:33:52
973CHRISTINEWILLIAMS431569F60+SH2:34:03
974DANAMURPHY445234FOTEMP2:34:21
975BARRYYON394837MOTEMP2:34:36
976FRANCESBARRATT319955F50+RWFLWP2:34:39
977ELIZABETHVERMEULEN350847F40+INTOUCH2:34:40
978RODNEYMAHARAGE356147M40+CELTIC2:34:43
979DIANEGILLCHRIST456738FOVOB2:35:00
980CECILIAAFRICA351946F40+SH2:35:06
981CLAUDIAOHST418042F40+TEMP2:35:30
982MARKTAYLER341748M40+TEMP2:35:37
983SHIEHAAMDARRIES381435FOITHEKO2:35:41
984NICOLEWADSWORTH374441F40+TEMP2:35:55
985JUDYMILLESEN374348F40+TEMP2:35:56
986KARENMENTOR450240F40+TEMP2:35:56
987ROYWHYTE394664M60+SH2:36:00
988ALBERTKLOPPER378651M50+PAARL2:36:01
989FAZLINMCCALLUM393741F40+ITHEKO2:36:01
990CLAIREDEACON347535FOTEMP2:36:02
991RUSHANWYNGAARD400237FOITHEKO2:36:08
992LUCRETIAPETERSEN367136FORWFLWP2:36:14
993KHUTHALAMBOMVU435036FOPINE2:36:16
994ZULEIGAFAKIER406841F40+ITHEKO2:36:18
995CLINTONHOEDEMAKER374726MOVOB2:36:28
996GERRIEBOSMAN400351M50+SATORI2:36:32
997GIADASEGNERI313128FOSANLAMC2:36:32
998BRONWYNHANFORD456533FOFHOEK2:36:34
999LEONBURCHELL431258M50+AAC2:36:56
1000EBRAHIMSAMSODIEN405841M40+ITHEKO2:36:59
1001FALDIERYKLIEF389248M40+ITHEKO2:36:59
1002VAUGHNMILLS351641M40+TEMP2:37:03
1003TENIELLEMILLS351820FOTEMP2:37:03
1004DESIREESCHOLTZ380258F50+PINE2:37:15
1005ROGEEMAKENNY353830FOITHEKO2:37:16
1006NAZLIYAHGAMIET356044F40+ITHEKO2:37:19
1007NADIAGAMIET355031FOITHEKO2:37:19
1008THANIAENOUS399430FOITHEKO2:37:20
1009ANNATJIEBERNTZEN350968F60+TYGER2:37:29
1010MMASEEPALEWELE332631FOCSWPA2:37:29
1011ELENORADENDORFF381646F40+INTOUCH2:37:50
1012DEBBIEZIMMERMAN385944F40+SH2:37:51
1013TINAHEPPE386637FOFHOEK2:38:15
1014SULAIMANJAKOET313423MOTEMP2:38:32
1015TASNEEMSALIE313520FOTEMP2:38:32
1016ADELINAVAN NIEKERK359251F50+RWFLWP2:38:41
1017CATHERINESAUNDERS300131FOTEMP2:38:45
1018PAMJAMES316253F50+SH2:38:58
1019FAHMEEDAKHAN421638FOITHEKO2:39:00
1020TAHIRFAYKER427641M40+ITHEKO2:39:05
1021ANNETTEDIACON306348F40+TEMP2:39:13
1022MARIAMELISSAC353150F50+ITHEKO2:39:28
1023TEDDYGOVENDER321541M40+TEMP2:39:36
1024THEUNSBARNARD359357M50+PAARL2:39:37
1025WILLEMSPENCE359047M40+PAARL2:39:37
1026DENISEMARAIS422050F50+BRACK2:39:44
1027ELZETTEVAN SCHALKWYK373252F50+BRACK2:39:44
1028SERRYNPRYTZ356217FOFHOEK2:40:08
1029THOBELANDLEBE310129MOTEMP2:40:18
1030LILIANAGONCALVES402940F40+CENTURY2:40:18
1031BERENICECROWDER371746F40+TELKWP2:40:55
1032PIETJACOBS433651M50+ADIDAS2:40:59
1033LIZELLEBURGER326738FONAMAQ2:41:00
1034SUSANDU TOIT356854F50+RWFLWP2:41:01
1035MANDISABERE436433FOTEMP2:41:25
1036WALTERJAFTHA321360M60+STRAG2:41:29
1037ERICGODONGWANA358251M50+YEBO2:41:48
1038BERNICEDAVIDS406538FORWFLWP2:41:55
1039ALLANMIDDLETON335527MOTEMP2:41:55
1040JOSLINFARMER389729FOELGRAB2:41:59
1041BRIANTHORNE414761M60+PINE2:42:01
1042STEPHENSHEEHY407339MOVOB2:42:14
1043MARIANNAMULLER401557F50+RWFLWP2:42:16
1044MOEGAMATSTENEKAMP442346M40+ITHEKO2:42:35
1045MARNAVAN ZYL343337FOMETLIFE2:42:38
1046JOANLANG420466F60+WCOAST2:42:41
1047DAVEKIRBY343875M70+SH2:42:46
1048ANNELIZEBUYS363846F40+VOB2:42:51
1049EDWARDMURDOCK388378M70+TEMP2:43:14
1050CATHYHANAUER418832FOHARF2:43:18
1051RUSHDADAVIDS369034FOODRAAI2:43:41
1052ESTHERVLOK359863F60+STRAND2:43:46
1053ELIZABETH-ANNEDANIELS410247F40+RAVENS2:43:48
1054VANESSAJOSEPH445951F50+RAVENS2:43:51
1055MUQSOODAPARKER438329FOYEBO2:43:52
1056WAYNEJACOBS449841M40+TEMP2:43:53
1057SAMATADAMS433853M50+FARNESE2:43:54
1058STACEYSCOTT347030FOPICKPAY2:44:12
1059SHAFIQMEYER377847M40+ITHEKO2:44:16
1060ANNEGAINSFORD389655F50+OLDMUT2:44:30
1061RACHELSTEENKAMP339948F40+ELGRAB2:44:47
1062LOUISEGILMOUR446637FOTEMP2:44:53
1063CHANDRA-JAYDUNN451743F40+SH2:44:56
1064WARWICKGRAHAM315371M70+CELTIC2:45:02
1065RICHARDKAYS422943M40+TEMP2:45:18
1066JACQUELINECUNNINGHAM302541F40+SATORI2:45:42
1067JACQUELINEAFRICA377747F40+CELTIC2:45:46
1068ALITIAPETERSEN415159F50+BDOWNS2:46:03
1069ZAIDAMCCALLUM413943F40+ITHEKO2:46:06
1070LIZBEAUWENTZEL370843F40+TEMP2:46:07
1071ANGELABAUFELDT434124FOTEMP2:46:30
1072HAMISHHOLMAN376776M70+TEMP2:46:43
1073TASMEENAMODIEN COENRAAD375929FOTEMP2:46:54
1074CATHIEOCONNOR345945F40+RWFLWP2:47:01
1075MELVINGEORGE423247M40+TEMP2:47:01
1076JEREMYKERCHHOFF423047M40+TEMP2:47:03
1077ADRIAANWILLIAMS404341M40+TEMP2:47:07
1078SAMEERAGAMIET434825FOITHEKO2:47:09
1079ACHMATNAJAAR388745M40+ITHEKO2:47:23
1080DOREENDU TOIT431952F50+TITANS2:47:27
1081RENEBROWN368742F40+TEMP2:47:32
1082KATHERINETHOMSON368945F40+UCT2:47:37
1083SHEILAKNUDSEN369859F50+TEMP2:47:48
1084AEYSHALUKIE382643F40+ODRAAI2:47:53
1085LUCIALODEWYK375750F50+BELL2:47:54
1086BASHEERSMITH445148M40+ODRAAI2:48:33
1087FAZLEMKHATIEB381253F50+ODRAAI2:48:46
1088FARIDAHASSAN442250F50+ITHEKO2:48:53
1089FEROZAMOWLANA425224FOITHEKO2:48:53
1090GADIJAISAACS417845F40+ITHEKO2:48:55
1091ANGELAANTROBUS370036FOTEMP2:48:58
1092FATIMATHOMAS320859F50+TITANS2:49:01
1093LETTIEDE WAAL402148F40+VOB2:49:05
1094JANINEVENTER360431FODURBAC2:49:23
1095PHILLIPKEMPEN360540M40+DURBAC2:49:24
1096CHARMAINEKRUGER331739FOTEMP2:49:34
1097PHILLIPINEHANS350452F50+INTOUCH2:49:38
1098MARIANUNES327754F50+RWFLWP2:50:10
1099MELISSAMITCHELL352824FOTEMP2:50:23
1100BERNARDJAMES376447M40+DEFWP2:50:27
1101GENEVIEVEWILLIAMS441228FOTEMP2:50:40
1102JACKADAMS433955M50+FARNESE2:50:45
1103JANEKEY312425FOHARF2:51:12
1104NICOLETTEJOHNSTON365628FOTEMP2:51:13
1105ATIKABREY302646F40+ITHEKO2:51:13
1106ANEESAABRAHAMS-ADAMS434740F40+OMI2:51:39
1107RUTHFELIX417555F50+TITANS2:51:40
1108JULIANOHLSON414953M50+METLIFE2:51:48
1109NAZLIEYASIN439953F50+TOPF2:51:56
1110PAMELAARCHER417041F40+TEMP2:52:25
1111PORCHELIEDERMAN407032FORWFLWP2:52:41
1112LIZIWEMKONTWANA444730FOTEMP2:52:42
1113MARIANOTT301737FOPINE2:52:49
1114LOISGRAHAM313755F50+EDGE2:52:52
1115CHARLOTTEKETTLEWELL386162F60+VOB2:53:00
1116TOMMYFEINAUER314554M50+TEMP2:53:09
1117HASSANTAYOB415822MOTEMP2:53:25
1118MUHAMMEDTAYOB416324MOTEMP2:53:26
1119KAROLAVENTER360759F50+DURBAC2:53:27
1120HEIDIJOHNSON315745F40+OLDMUT2:53:34
1121GLYNISGARDNER347253F50+RWFLWP2:53:51
1122URDAKOTZE376346F40+VOB2:53:55
1123FRITHAANDERSON419655F50+TEMP2:54:03
1124SURIETABROWN419736FOTEMP2:54:04
1125CHARLOTTEFARMER334158F50+ELGRAB2:54:05
1126JENNIFERCURLE310838FORWFLWP2:54:10
1127MOGAMATISMAIL388656M50+OMI2:54:16
1128WYNANDBEUKES421358M50+SANLAMC2:54:27
1129LYDIARICHARDS305656F50+SH2:54:37
1130DOROTHYDU TOIT402751F50+SH2:54:40
1131SORAYAYASIN HARNEKAR440056F50+TOPF2:54:49
1132REYANAHMANUEL338830FOITHEKO2:54:54
1133SHEREENMAJIET419542F40+ITHEKO2:54:54
1134ADELASHEIK433147F40+ITHEKO2:54:55
1135MUFEEDAHTALIEP397927FOITHEKO2:54:55
1136SHAHIEDATOFFAR434345F40+ITHEKO2:54:55
1137DANESCHOEDER446925MOTEMP2:54:56
1138AYSHACLOETE368652F50+ITHEKO2:54:56
1139EBRAHIMMOHEDEEN409047M40+ITHEKO2:54:57
1140SHU-AIBABRAHAMS435343M40+ITHEKO2:54:57
1141ISMAELDHANSAY376840M40+ITHEKO2:54:58
1142ABDURACHMANEDWARDS425348M40+ITHEKO2:54:58
1143ISGAAKMUSTAPHA309350M50+ITHEKO2:54:58
1144RUGAYAEDWARDS420348F40+ITHEKO2:54:59
1145BELINDABURNS447041F40+INTOUCH2:54:59
1146DEBORAHVAN ZYL379046F40+RWFLWP2:55:00
1147NOELVAN ZYL378849M40+TEMP2:55:01
1148ERNESTAKLUE436756F50+TEMP2:55:02
1149LUCKYMOKWENA465036MOBELL2:55:07
1150NELISASANGOTSHA435231FOPINE2:55:09
1151MARIZANNELOMBARD331945F40+TEMP2:55:41
1152MARIZEEDWARDS355961F60+BELL2:55:42
1153DIGBYDEWAR356368M60+TEMP2:55:50
1154MOIRADEWAR356440F40+TEMP2:55:51
1155ERNESTDEANE444660M60+STRAND2:55:51
1156YASMINTHEUNISSEN439151F50+TOPF2:56:07
1157JEANHARGREAVES335055F50+SH2:56:31
1158MOGAMATADAMS432955M50+TEMP2:56:51
1159LANABARNETT416563F60+CELTIC2:57:33
1160PETERVAN ECK418260M60+TEMP2:57:53
1161JANETJACKSON427962F60+FHOEK2:57:53
1162HAROLDJOHANNES393943M40+RAVENS2:57:54
1163MIKEBENNETT350169M60+EDGE2:58:21
1164KASHIFMARCUS387346M40+TOPF2:58:29
1165DEBORAHTHOMSON327944F40+RWFLWP2:59:02
1166JACKYNIENABER300032FOTEMP2:59:18
1167DIANEWELLS327842F40+RWFLWP2:59:24
1168ELRISTRAUSS348941F40+RWFLWP2:59:25
1169AUDREYCLARKE321448F40+DEFWP2:59:29
1170MELISIAVAN DER MERWE399639FOMETLIFE2:59:34
1171JULIAELLMAN340157F50+RWFLCGA2:59:46
1172MOGAMATWILSON421839MOTEMP3:00:12
1173ADILAHSAMIE387247F40+ITHEKO3:00:19
1174CYNTHIAVAN SPRONSEN439763F60+TEMP3:00:24
1175NTUTUNGESE443032FOEGIJWP3:01:10
1176MICHELLEBEKKER337932FOTEMP3:01:16
1177KUTAPUMLA332844F40+TEMP3:02:03
1178JASMINKARIEM393646F40+ITHEKO3:02:12
1179ZAINABGAMIELDIEN391128FOITHEKO3:02:25
1180ADEEBDAVIES369133MOITHEKO3:02:26
1181SHEREENBEY414441F40+ITHEKO3:02:39
1182MAREKSANETRA399727MOTEMP3:02:40
1183JEANMARESANETRA399526FOTEMP3:02:43
1184RASHAADSAMUELS440450M50+TOPF3:02:44
1185CELIAPIENAAR348550F50+STRAND3:02:51
1186SHARONCOLLER314452F50+SH3:02:59
1187GADIJARYKLIEF397058F50+ITHEKO3:03:03
1188MARYHOLLAND-RAMSAY388263F60+SH3:03:15
1189GILLIANGROBBELAAR387942F40+RWFLWP3:04:32
1190MERLINOSBORNE364552F50+TEMP3:04:42
1191LINDATREDOUX373352F50+BRACK3:04:51
1192ZAINABBENJAMIN352763F60+TOPF3:05:11
1193RENEETHOMPSON406432FOAAC3:05:27
1194SUMAYAMAJIET380150F50+RWFLWP3:05:47
1195YAZEEDHENDRICKS423331MOITHEKO3:06:02
1196THABETAHENDRICKS344058F50+ITHEKO3:06:06
1197HEINRICHMULLER373760M60+DEFWP3:06:06
1198LYNNEFRASER344345F40+RWFLWP3:06:36
1199CAMILLEAMOD393442F40+ITHEKO3:06:37
1200IANFORGAN344559M50+TEMP3:07:13
1201MERCIASMITH433743F40+PINE3:07:21
1202SADIEKAPRICE426530FOITHEKO3:07:45
1203INGRIDBOTHA436951F50+TEMP3:08:05
1204CAROLNEPGEN316759F50+KOWIE3:08:19
1205JEANNEPGEN316866M60+KOWIE3:08:24
1206VALERIELUMB377970F70+SH3:08:24
1207DAVIDWINGRIN333675M70+HELD3:08:34
1208VELMERMANNE331352M50+CELTIC3:10:10
1209JAMESGREEN320264M60+TEMP3:10:11
1210IANHOLMQUIST310551M50+TEMP3:10:13
1211VALERIEMUNNIK355855F50+EGIJWP3:10:13
1212HELENASULLIVAN337155F50+FHOEK3:10:55
1213CECILEBIGARA324763F60+RWFLWP3:11:44
1214LESLEYHADDOW322541F40+RWFLWP3:11:54
1215VENESSASQUIRRA313036FOCELTIC3:12:19
1216VANESSASTEVENS380043F40+RWFLWP3:12:20
1217LIZAWILSON444929FOSH3:12:36
1218MARGARETNORTON434571F70+SH3:13:09
1219TOGIEDABULL399845F40+METLIFE3:13:17
1220DESIREESICKLE414551F50+TEMP3:13:19
1221KHADEEJASAMSODIEN410830FOITHEKO3:13:41
1222MAJIDIESCHROEDER422349M40+ITHEKO3:13:45
1223JANVERMEULEN359163M60+RWFLWP3:14:17
1224MOIRANOVEMBER317352F50+TEMP3:14:51
1225DESHUSKISSON387771M70+TEMP3:15:09
1226IVANNOVEMBER317454M50+TEMP3:15:10
1227JANETLANNING311868F60+AAC3:15:13
1228ROBLANNING311970M70+AAC3:15:18
1229AMIENAJEDAAR381047F40+ODRAAI3:15:32
1230LIEZLCORNELISSEN430838FOTEMP3:15:45
1231COLLEENCOX414053F50+TEMP3:15:46
1232VIRGINIAGREENWOOD419155F50+TEMP3:16:46
1233ERICWEBSTER336983M70+CELTIC3:16:46
1234RICHARDBARNETT416872M70+CELTIC3:18:02
1235IVANROUX411757M50+RWFLWP3:18:03
1236JANHOFMEYR450164M60+TEMP3:19:25
1237PIETERKRYNAUW326565M60+TEMP3:21:49
1238WENDYHOPKINS303227FORWFLWP3:21:50
1239MARIAMKHAN353270M70+OMI3:22:23
1240KOELSUMRYKLIEF412049F40+ITHEKO3:22:35
1241FARHANAADAM327530FOTEMP3:23:07
1242WASHELLAHADAMS381552F50+ODRAAI3:23:14
1243RAYGHANAHCASSIEM354052F50+ODRAAI3:23:15
1244ZUBEIDAGALLIE359625FOITHEKO3:23:15
1245HOODAHFAYKER427240F40+ITHEKO3:24:51
1246SHAFIEKAMOWLANA330941F40+ITHEKO3:26:00
1247WALEEDISAACS416647M40+ITHEKO3:26:01
1248ARTHURDAKERS324375M70+HELD3:26:41
1249ADRIHOFMEYR449934FOTEMP3:27:13
1250JACQUELINEKRYNAUW326665F60+TEMP3:27:14
1251MOYRAROUX412351F50+RWFLWP3:27:37
1252RALPHKING353080M70+SH3:27:40
1253COLLEENDANIELS380853F50+SH3:29:34
1254BADIYAHHENDRICKS444847F40+TEMP3:30:47
1255FLORAMAY445054F50+TEMP3:30:47
1256EMSIEENGELBRECHT350752M50+INTOUCH3:31:05
1257ROSALINECLOETE442553F50+TITANS3:32:01
1258CELINATAVARES382067F60+TEMP3:32:50
1259CLARAVAN NIEKERK377471F70+RWFLWP3:38:25
1260MICHAELLUMB377070M70+RWFLWP3:38:28
1261CHARNESCHEEPERS415222FOTEMP3:43:25
1262PIERREROGERS415325MOTEMP3:43:25
1263SIMONBRODOVCKY302764M60+VOB3:45:09
1264LYDIATERBLANCHE444346F40+TEMP3:46:19
1265RUWEIDATOFAR444238FOTEMP3:46:23

I did run the Marathon myself and made spot #346 🙂

2010 Peninsula Marathon results are in!

Posted on Feb 24, 2010 under Peninsula Marathon, Race results | 1 Comment

peninsula marathon 2011Finally we got the official results from last Sundays 2010 BDO Peninsula Marathon for the 42 km distance:

To look for your result, just start typing your name into the search box of the respective distance you went for:

Full Marathon results (42.195 km)

PlaceNameLast NameNoAgeSexCatClubTime
1MTHANDAZOQHINA143932MOADIDAS02:33:59
2ZONDWANOMBEXEZA138726MOAAC02:41:07
3MKHULULIMBEJENI196327MOAAC02:45:07
4CLIFFORDDRURY212640M40-49MPWP02:48:23
5LUYANDAMAPOYI191923MONBKHAY02:51:58
6JIMMYDRURY212740M40-49MPWP02:52:43
7WILLIEMTOLO216445M40-49MPCGA02:56:52
8BETHUELLEPHALLO84833MOSTRAND02:57:00
9JOHANSTEMMET59735MOBONNIE02:57:31
10ARNOLDHYDE190839MOMPWP02:57:40
11DUNCANGILMOUR145333MOVOB02:58:04
12GARETHBERNING59634MOVOB02:59:04
13ALANMATTHEWS102431MOVOB02:59:41
14MUZIWAKHEHLONGWA170332MODEFWP02:59:59
15ANDRIESSWANEPOEL104440M40-49BRACK03:00:38
16ZAMAWITVOET49252M50-59RCSGUGS03:02:45
17QUINTONPRINCE136836MOMETLIFE03:03:28
18VULINDLELAMACEMBE159743M40-49NEDWP03:04:58
19RYANWINTER208332MOPINE03:05:17
20PETERBENNETT60234MOWCOAST03:05:17
21HENRY PAULCIEVERTS16451M50-59TOPF03:06:37
22DESMOREOPPEL26750M50-59DURBAC03:07:11
23HUIBERTUSVERHOEF160941M40-49WELLING03:08:42
24BRANDINJANSE VAN VUUREN220530MOTEMP03:09:31
25AARONBOYISI161427MOBRACK03:09:53
26MOHAMEDALLIE25147M40-49TOPF03:10:09
27PHILIPPSASSIE202119MOTEMP03:10:52
28ECKHARDTVISSER206843M40-49DURBAC03:10:57
29MANDLENKOSINGQUNGE159844M40-49NEDWP03:13:23
30JOGGIEMAARMAN178044M40-49MAMRE03:13:35
31THOMASMOSES176153M50-59WORC03:14:06
32ALWYNMAASS75640M40-49NAMAQ03:14:11
33LUNGISACUBA216239MOCELTIC03:14:29
34SAKHUMZIDYUDELE186938MOAAC03:14:30
35FRANCOISGROENEWALD189523MOELGRAB03:14:35
36LISABAUMANN98339FOMPWP03:14:39
37EVELINATSHABALALA45544M40-49RCSGUGS03:16:26
38FARWAMENTOOR215636FOBONITCG03:16:44
39LUDWIGLILLIE14449M40-49DURBAC03:16:58
40ANGELOHENRY52546M40-49MSM03:17:39
41ROSSMACGREGOR166239MOSATORI03:18:46
42WILLIAMRUIJSCH VAN DUGTEREN201837MOAAC03:18:50
43JACOBARNARD81531MOBERTSB03:18:51
44PHAPHANGCHAKANA219131MOSH03:19:03
45BONGANIPLAATJIE137827MOBELL03:19:04
46SIYABONGAMWESA175834MOTOPF03:19:12
47JACQUESVAN WYK158746M40-49PICKPAY03:19:14
48MZOLISISOBHOYISI169731MOSH03:19:42
49ANDRIESSWARTS211346M40-49CERES03:20:11
50DAVIDDITSELA241337MOSANDFSWD03:20:14
51DERICKMBHELE178132MODEFWP03:20:16
52MARKWALTERS94839MOVOB03:20:44
53MARKCARLSON112539MOAAC03:20:52
54JOANNATHOMAS204941F40-49VOB03:21:03
55DUMISANIDOSI215930MOPAARL03:21:11
56URSULAFRANS147641F40-49ADIDAS03:22:16
57LLEWELLYNJACOBS49523MOCELTIC03:22:18
58BENNIEVAN DER MERWE151340M40-49EDGE03:23:09
59WARRIESRUDOLF124844M40-49PAARL03:23:12
60ALSCHERMBRUCKER202232MOVOB03:23:13
61ROBERTRORO178333MOCELTIC03:24:17
62SITHILENOHAYA199037MOAAC03:24:24
63FILIPPOFARALLA65041M40-49TEMP03:24:38
64TERRANCEMAZZOLINI75954M50-59VOB03:24:43
65EDWARDCONRAD212440M40-49MAMRE03:25:11
66NIKLAASVLOK94538MOYEBO03:25:11
67JULIAJANSEN VAN RENSBURG191427FOVOB03:25:13
68EBRAHIMADARIUS143848M40-49VOB03:25:45
69CONRADMOOLMAN121532MODURBAC03:25:52
70PAULFLOQUET140137MOVOB03:25:55
71PAULCONRADIE46839MONEDWP03:26:29
72SHAHEEDJAKOET214048M40-49VOB03:26:31
73IAINMCGREGOR155733MOTEMP03:26:35
74LEANNEJUUL133636FOMPWP03:26:36
75GERARDVISSER94348M40-49BENNOR03:26:45
76THEUNSMATTHEE204843M40-49STRAND03:26:46
77WARRENKNEZOVICH140935MOVOB03:26:47
78WILSONBAARTMAN22351M50-59SH03:26:48
79ROBERTGRAHAM189336MOHOUTBAY03:26:59
80RICHARDSTUBBS156632MOVOB03:26:59
81ELIOTMANGETE118035MORCSGUGS03:27:12
82SIDNEYRUSTIN80143M40-49DEFWP03:27:26
83MICHAELJANISCH118241M40-49VOB03:27:29
84PIETERVAN DER WESTHUYZEN205538MONAMAQ03:27:35
85MZIKAYISEBIKITSHA181934MONBKHAY03:28:19
86DONTORR168744M40-49DURBAC03:28:20
87GODFREYSWARTZ117940M40-49HANG03:28:45
88MPUMELELOQINELA178839MORCSGUGS03:28:47
89RICHARDJOHNSON25953M50-59MUTUAL03:28:54
90HEINEMATTHEE141341M40-49STRAND03:29:03
91LORCANMCHARRY149933MOVOB03:29:07
92CHARLESLORENTZ194434MOVOB03:29:11
93JOHANVAN ZYL82732MOTYGER03:29:19
94LEORUST124937MOVOB03:29:25
95ROGERSTEEL126233MOHARF03:29:26
96ROBERTBARTHOLOMEW82825MOTYGER03:29:26
97CARLIBASSON112431FOPAARL03:29:27
98STEFANDIENER64530MOSTRAND03:29:41
99PHILIPUSCROUS107926MONEDBOL03:29:42
100BRIANPETENI159325MORCSGUGS03:29:49
101DARRENHOPKINS46029MOHOUTBAY03:29:50
102CRAIGSMALL92144M40-49VOB03:30:08
103AJCALITZ57526MOTEMP03:30:26
104ERICMEMELA133544M40-49NBMSM03:31:06
105BELINDA-LEIGHHICKMAN MOSDELL117339FOPHOBS03:31:28
106URSULATURCK104937FOSTRAND03:32:27
107DOCTORTSHISEKA215444M40-49CELTIC03:33:16
108ANDYBOOYSEN137452M50-59ADIDAS03:34:09
109CLIVEADENDORFF95949M40-49INTOUCH03:34:15
110PHILDU TOIT60431MOPAARL03:34:18
111ELIZABETHDE GOUVEIA153335FODURBAC03:34:56
112KERRYNARMSTRONG62624FOCELTIC03:35:02
113IMRANPAYA129732MORCSGUGS03:35:14
114RUPERTBECKER85836MOTEMP03:35:18
115TANIAANDERSON180638FOVOB03:35:42
116JASONBELL-LEASK50936MOSATORI03:35:49
117OSCARHOHO190433MOTEMP03:35:58
118HELETTEBASSON97235FOLBAAN03:36:09
119EUGENEVAN DER MERWE54829MOCELTIC03:36:27
120THEMBINKOSINDUDE198821MOHOUTBAY03:36:34
121CARINAVAN DER MERWE105145F40-49WHALERS03:36:34
122HAPPYMAVAKALA241536MOHARF03:36:53
123OWENMIDDLETON197235MOTEMP03:37:10
124MARTINCELE83530MOEGIJWP03:37:52
125WAHEEDABRAHAMS240443M40-49TOPF03:38:01
126MELVYNDEAN214433MOELSIES03:38:12
127CHRISTIAANDE WET99436MOWHALERS03:38:30
128PIERRECONRADIE113440M40-49WCOAST03:38:34
129JACQUESSCHREIBER77741M40-49DURBAC03:38:47
130FRANCOISVAN DYK205646M40-49EDGE03:39:06
131XOLANIMDZANDZA240639MOTEMP03:39:30
132ROBYNWOODWARD107236FOHARF03:39:40
133RICHARDLANGE107436MOVOB03:39:41
134RAPHAELMOYO114450M50-59VOB03:39:48
135STUARTMURRAY-SMITH48041M40-49DURBAC03:39:48
136HERLIENVAN ZYL206136FONBMSM03:39:52
137JONASWILKE128820MOCELTIC03:40:02
138GEORGESTEGMANN151023MOAAC03:40:20
139STEPHENDENNIS45747M40-49MPLAIN03:40:32
140ANDREWCOTHILL184639MOFHOEK03:40:32
141JOHANDE GOEDE51441M40-49LBAAN03:40:34
142DAVEKRAITZICK75041M40-49HOWICK03:40:37
143WILHELMCOETZEE72153M50-59WCOAST03:41:02
144GIDEONLOUW194730MOSTELLEN03:41:02
145COLINTIMMIS142534MODURBAC03:41:10
146STUARTSHILLINGLAW78040M40-49EDGE03:41:18
147ANDRZEJOKREGLICK84249M40-49UCT03:41:39
148JONATHANLARCOMBE52735MOTEMP03:41:43
149EDWARDJOHNSON118652M50-59DEFWP03:41:53
150MTHOBISISIHLUKU45339MORCSGUGS03:41:59
151DAVIDBOKWE143738MOADIDAS03:42:08
152GAUTELOSET219525MOTEMP03:42:19
153ANDREWHART190038MOVOB03:42:21
154TISHALAVEYISHILE214550M50-59AAC03:42:25
155SHAUNMAREGELE209437MOBDOWNS03:42:27
156TERSIUSRIPSOLD97328MORWFLWP03:42:31
157DALEMILLAR155937MOVOB03:42:38
158ADRIANHAYES88227MOFHOEK03:43:02
159MARCNAUMANN198638MOEDGE03:43:19
160JULIETTESAVINI84552F50-59DURBAC03:43:26
161ALBERTMAHLAHLA102157M50-59HELD03:43:28
162DONOVANGOULD189034MOEDGE03:43:30
163MELISSAJORGENSEN74725FOVOB03:43:31
164QUINTONANTHONY62532MOAMSAC03:43:35
165JAMESVERSTER-COHEN128430MOVOB03:43:42
166ADRIANEKSTEEN209941M40-49NAMAQ03:43:54
167RICARDOKORKEE123136MOMPLAIN03:43:56
168MARKBULLIVANT86327MOTEMP03:43:58
169BENJYPORTER76936MOMPRRR03:44:12
170MARETHAVAN ZYL42623FONAMSAN03:44:15
171ANTONESTERHUIZEN187441M40-49DURBAC03:44:17
172GIDEONREDELINGHUIS200946M40-49DURBAC03:44:18
173MIRANDASYMONS168331FOADIDAS03:44:19
174PAULROOS124649M40-49NEDWP03:44:20
175PETERMILLER39829MOTEMP03:44:22
176EMILEMULLER27249M40-49STELLEN03:44:29
177MURRAYANDERSON180539MOVOB03:44:32
178WERNERVAN KETS206035MOGROOT03:44:35
179STEVEPORTER40937MOHARF03:44:37
180PIERREGOUSSARD189142M40-49ADIDAS03:44:37
181LOLASTRYDOM92333FOWORC03:44:46
182NOELDE VILLIERS131845M40-49HOUTBAY03:44:52
183RALPHADAMS180150M50-59TOPF03:44:56
184GARIONKRAUSS155036MOTYGER03:44:59
185KUTLWANORAMABOA200633FOWCOAST03:45:03
186CALVINDIRKS163337MOMETLIFE03:45:08
187EUNICEAVENANT85443F40-49HELD03:45:12
188RONELSTEENKAMP50440F40-49DURBAC03:45:15
189LORRAINEROGERS135050F50-59DURBAC03:45:22
190WESLEYENGELBRECHT139146M40-49ELSIES03:45:44
191GRANTGOODWIN132444M40-49WPCC03:45:49
192GREGPORRITT200129MOVOB03:45:52
193ADIELDOLLIE83227MORWFLWP03:45:58
194FAIZELGAMIET214841M40-49PINE03:45:58
195MARKMAWMAN102535MOVOB03:46:35
196HENKACKERMANN217040M40-49NBMSM03:46:51
197MERTONSNYDERS103840M40-49MUTUAL03:47:10
198WERNERERASMUS163937MORWFLWP03:47:27
199NICKELLIS215344M40-49WCOAST03:47:28
200TANIAWELGMOED157939FOSTRAND03:47:37
201WILFREDSTEENBERG176240M40-49EGIJWP03:47:46
202SIMONLLOYD39441M40-49HARF03:47:47
203HENDRYHENDRICKS212242M40-49METLIFE03:47:52
204ANDREWGOLIATH174241M40-49METLIFE03:47:52
205MARCERASMUS64932MOVOB03:48:08
206ALECJEPTHAS165658M50-59CELTIC03:48:11
207ALBIEBASSON181128MOTEMP03:48:32
208MICHAELCOETZEE172349M40-49PICKPAY03:48:33
209ALANHAZELL88446M40-49VOB03:48:34
210ANDREFILANDER24445M40-49CELTIC03:48:35
211CORNIMYBURGH134544M40-49WAND03:48:39
212ANDREKLEINSMITH133749M40-49DEFWP03:48:49
213ADRIAANVAN DE VENTER93840M40-49DEFWP03:48:53
214PAULWASSUNG55134MOFOREST03:48:55
215TIMOLEHMANN193728MOSATORI03:48:58
216COBUSWILSON210427MOGROOT03:48:59
217ESTELLEVAN SCHALKWYK169343F40-49STRAND03:49:01
218STUARTPURCELL53943M40-49WPCC03:49:03
219LIONELKLASSEN66359M50-59DURBAC03:49:14
220MPHICOTHIQANTOLO149433MOAAC03:49:24
221SANDORVARGA135943M40-49RWFLWP03:49:35
222ALWYNDE KOCK114243M40-49NBMSM03:49:37
223SEITUMENGGOITSEMODIMO147925MOWHALERS03:49:37
224NATHANPRINS123549M40-49DURBAC03:49:39
225MARTINSTEWART104245M40-49WCOAST03:49:41